[[{"header":{"parameterUnit":"m.s-1","parameterCategory":1,"la1":31.0,"la2":29.5877,"lo1":-88.7671,"lo2":-86.6584,"dy":0.0162,"dx":0.0185,"nx":115,"ny":88,"refTime":"2026-04-13T12:00:00:Z","depth":0,"parameterNumber":2,"parameterNumberName":"U-component_of_WINDS"},"data":[0.0,0.0,0.0,0.0,0.0,0.0,0.0,0.0,0.0,0.0,0.0,0.0,0.0,0.0,0.0,0.0,0.0,0.0,0.0,0.0,0.0,0.0,0.0,0.0,0.0,0.0,0.0,0.0,0.0,0.0,0.0,0.0,0.0,0.0,0.0,0.0,0.0,0.0,0.0,0.0,0.0,0.0,0.0,0.0,0.0,0.0,0.0,0.0,0.0,0.0,0.0,0.0,0.0,0.0,0.0,0.0,0.0,0.0,0.0,0.0,0.0,0.0,0.0,0.0,0.0,0.0,0.0,0.0,0.0,0.0,0.0,0.0,0.0,0.0,0.0,0.0,0.0,0.0,0.0,0.0,0.0,0.0,0.0,0.0,0.0,0.0,0.0,0.0,0.0,0.0,0.0,0.0,0.0,0.0,0.0,0.0,0.0,0.0,0.0,0.0,0.0,0.0,0.0,0.0,0.0,0.0,0.0,0.0,0.0,0.0,0.0,0.0,0.0,0.0,0.0,0.0,0.0,0.0,0.0,0.0,0.0,0.0,0.0,0.0,0.0,0.0,0.0,0.0,0.0,0.0,0.0,0.0,0.0,0.0,0.0,0.0,0.0,0.0,0.0,0.0,0.0,0.0,0.0,0.0,0.0,0.0,0.0,0.0,0.0,0.0,0.0,0.0,0.0,0.0,0.0,0.0,0.0,0.0,0.0,0.0,0.0,0.0,0.0,0.0,0.0,0.0,0.0,0.0,0.0,0.0,0.0,0.0,0.0,0.0,0.0,0.0,0.0,0.0,0.0,0.0,0.0,0.0,0.0,0.0,0.0,0.0,0.0,0.0,0.0,0.0,0.0,0.0,0.0,0.0,0.0,0.0,0.0,0.0,0.0,0.0,0.0,0.0,0.0,0.0,0.0,0.0,0.0,0.0,0.0,0.0,0.0,0.0,0.0,0.0,0.0,0.0,0.0,0.0,0.0,0.0,0.0,0.0,0.0,0.0,0.0,0.0,0.0,0.0,0.0,0.0,0.0,0.0,0.0,0.0,0.0,0.0,0.0,0.0,0.0,0.0,0.0,0.0,0.0,0.0,0.0,0.0,0.0,0.0,0.0,0.0,0.0,0.0,0.0,0.0,0.0,0.0,0.0,0.0,0.0,0.0,0.0,0.0,0.0,0.0,0.0,0.0,0.0,0.0,0.0,0.0,0.0,0.0,0.0,0.0,0.0,0.0,0.0,0.0,0.0,0.0,0.0,0.0,0.0,0.0,0.0,0.0,0.0,0.0,0.0,0.0,0.0,0.0,0.0,0.0,0.0,0.0,0.0,0.0,0.0,0.0,0.0,0.0,0.0,0.0,0.0,0.0,0.0,0.0,0.0,0.0,0.0,0.0,0.0,0.0,0.0,0.0,0.0,0.0,0.0,0.0,0.0,0.0,0.0,0.0,0.0,0.0,0.0,0.0,0.0,0.0,0.0,0.0,0.0,0.0,0.0,0.0,0.0,0.0,0.0,0.0,0.0,0.0,0.0,0.0,0.0,0.0,0.0,0.0,0.0,0.0,0.0,0.0,0.0,0.0,0.0,0.0,0.0,0.0,0.0,0.0,0.0,0.0,0.0,0.0,0.0,0.0,0.0,0.0,0.0,0.0,0.0,0.0,0.0,0.0,0.0,0.0,0.0,0.0,0.0,0.0,0.0,0.0,0.0,0.0,0.0,0.0,0.0,0.0,0.0,0.0,0.0,0.0,0.0,0.0,0.0,0.0,0.0,0.0,0.0,0.0,0.0,0.0,0.0,0.0,0.0,0.0,0.0,0.0,0.0,0.0,0.0,0.0,0.0,0.0,0.0,0.0,0.0,0.0,0.0,0.0,0.0,0.0,0.0,0.0,0.0,0.0,0.0,0.0,0.0,0.0,0.0,0.0,0.0,0.0,0.0,0.0,0.0,0.0,0.0,0.0,0.0,0.0,0.0,0.0,0.0,0.0,0.0,0.0,0.0,0.0,0.0,0.0,0.0,0.0,0.0,0.0,0.0,0.0,0.0,0.0,0.0,0.0,0.0,0.0,0.0,0.0,0.0,0.0,0.0,0.0,0.0,0.0,0.0,0.0,0.0,0.0,0.0,0.0,0.0,0.0,0.0,0.0,0.0,0.0,0.0,0.0,0.0,0.0,0.0,0.0,0.0,0.0,0.0,0.0,0.0,0.0,0.0,0.0,0.0,0.0,0.0,0.0,0.0,0.0,0.0,0.0,0.0,0.0,0.0,0.0,0.0,0.0,0.0,0.0,0.0,0.0,0.0,0.0,0.0,0.0,0.0,0.0,0.0,0.0,0.0,0.0,0.0,0.0,0.0,0.0,0.0,0.0,0.0,0.0,0.0,0.0,0.0,0.0,0.0,0.0,0.0,0.0,0.0,0.0,0.0,0.0,0.0,0.0,0.0,0.0,0.0,0.0,0.0,0.0,0.0,0.0,0.0,0.0,0.0,0.0,0.0,0.0,0.0,0.0,0.0,0.0,0.0,0.0,0.0,0.0,0.0,0.0,0.0,0.0,0.0,0.0,0.0,0.0,0.0,0.0,0.0,0.0,0.0,0.0,0.0,0.0,0.0,0.0,0.0,0.0,0.0,0.0,0.0,0.0,0.0,0.0,0.0,0.0,0.0,0.0,0.0,0.0,0.0,0.0,0.0,0.0,0.0,0.0,0.0,0.0,0.0,0.0,0.0,0.0,0.0,0.0,0.0,0.0,0.0,0.0,0.0,0.0,0.0,0.0,0.0,0.0,0.0,0.0,0.0,0.0,0.0,0.0,0.0,0.0,0.0,0.0,0.0,0.0,0.0,0.0,0.0,0.0,0.0,0.0,0.0,0.0,0.0,0.0,0.0,0.0,0.0,0.0,0.0,0.0,0.0,0.0,0.0,0.0,0.0,0.0,0.0,0.0,0.0,0.0,0.0,0.0,0.0,0.0,0.0,0.0,0.0,0.0,0.0,0.0,0.0,0.0,0.0,0.0,0.0,0.0,0.0,0.0,0.0,0.0,0.0,0.0,0.0,0.0,0.0,0.0,0.0,0.0,0.0,0.0,0.0,0.0,0.0,0.0,0.0,0.0,0.0,0.0,0.0,0.0,0.0,0.0,0.0,0.0,0.0,0.0,0.0,0.0,0.0,0.0,0.0,0.0,0.0,0.0,0.0,0.0,0.0,0.0,0.0,0.0,0.0,0.0,0.0,0.0,0.0,0.0,0.0,0.0,0.0,0.0,0.0,0.0,0.0,0.0,0.0,0.0,0.0,0.0,0.0,0.0,0.0,0.0,0.0,0.0,0.0,0.0,0.0,0.0,0.0,0.0,0.0,0.0,0.0,0.0,0.0,0.0,0.0,0.0,0.0,0.0,0.0,0.0,0.0,0.0,0.0,0.0,0.0,0.0,0.0,0.0,0.0,0.0,0.0,0.0,0.0,0.0,0.0,0.0,0.0,0.0,0.0,0.0,0.0,0.0,0.0,0.0,0.0,0.0,0.0,0.0,0.0,0.0,0.0,0.0,0.0,0.0,0.0,0.0,0.0,0.0,0.0,0.0,0.0,0.0,0.0,0.0,0.0,0.0,0.0,0.0,0.0,0.0,0.0,0.0,0.0,0.0,0.0,0.0,0.0,0.0,0.0,0.0,0.0,0.0,0.0,0.0,0.0,0.0,0.0,0.0,0.0,0.0,0.0,0.0,0.0,0.0,0.0,0.0,0.0,0.0,0.0,0.0,0.0,0.0,0.0,0.0,0.0,0.0,0.0,0.0,0.0,0.0,0.0,0.0,0.0,0.0,0.0,0.0,0.0,0.0,0.0,0.0,0.0,0.0,0.0,0.0,0.0,0.0,0.0,0.0,0.0,0.0,0.0,0.0,0.0,0.0,0.0,0.0,0.0,0.0,0.0,0.0,0.0,0.0,0.0,0.0,0.0,0.0,0.0,0.0,0.0,0.0,0.0,0.0,0.0,0.0,0.0,0.0,0.0,0.0,0.0,0.0,0.0,0.0,0.0,0.0,0.0,0.0,0.0,0.0,0.0,0.0,0.0,0.0,0.0,0.0,0.0,0.0,0.0,0.0,0.0,0.0,0.0,0.0,0.0,0.0,0.0,0.0,0.0,0.0,0.0,0.0,0.0,0.0,0.0,0.0,0.0,0.0,0.0,0.0,0.0,0.0,0.0,0.0,0.0,0.0,0.0,0.0,0.0,0.0,0.0,0.0,0.0,0.0,0.0,0.0,0.0,0.0,0.0,0.0,0.0,0.0,-3.818,0.0,0.0,0.0,0.0,0.0,0.0,0.0,0.0,0.0,0.0,0.0,0.0,0.0,0.0,0.0,0.0,0.0,0.0,0.0,0.0,0.0,0.0,0.0,0.0,0.0,0.0,0.0,0.0,0.0,0.0,0.0,0.0,0.0,0.0,0.0,0.0,0.0,0.0,0.0,0.0,0.0,0.0,0.0,0.0,0.0,0.0,0.0,0.0,0.0,0.0,0.0,0.0,0.0,0.0,0.0,0.0,0.0,0.0,0.0,0.0,0.0,0.0,0.0,0.0,0.0,0.0,0.0,0.0,0.0,0.0,0.0,0.0,0.0,0.0,0.0,0.0,0.0,0.0,0.0,0.0,0.0,0.0,0.0,0.0,0.0,0.0,0.0,0.0,0.0,0.0,0.0,0.0,0.0,0.0,0.0,0.0,0.0,0.0,0.0,0.0,0.0,0.0,0.0,0.0,0.0,0.0,0.0,0.0,0.0,0.0,-4.0701,-4.0559,-3.9283,-3.8407,-3.7988,0.0,0.0,0.0,0.0,0.0,0.0,0.0,0.0,0.0,0.0,0.0,0.0,0.0,0.0,0.0,0.0,0.0,0.0,0.0,0.0,0.0,0.0,0.0,0.0,0.0,0.0,0.0,0.0,0.0,0.0,0.0,0.0,0.0,0.0,0.0,0.0,0.0,0.0,0.0,0.0,0.0,0.0,0.0,0.0,0.0,0.0,0.0,0.0,0.0,0.0,0.0,0.0,0.0,0.0,0.0,0.0,0.0,0.0,0.0,0.0,0.0,0.0,0.0,0.0,0.0,0.0,0.0,0.0,0.0,0.0,0.0,0.0,0.0,0.0,0.0,0.0,0.0,0.0,0.0,0.0,0.0,0.0,0.0,0.0,0.0,0.0,0.0,0.0,0.0,0.0,0.0,0.0,0.0,0.0,0.0,0.0,0.0,0.0,0.0,0.0,0.0,0.0,0.0,0.0,0.0,0.0,0.0,0.0,0.0,0.0,0.0,0.0,-3.9161,-3.8104,-3.77,0.0,0.0,0.0,0.0,0.0,0.0,0.0,0.0,0.0,0.0,0.0,0.0,0.0,0.0,0.0,0.0,0.0,0.0,0.0,0.0,0.0,0.0,0.0,0.0,0.0,0.0,0.0,0.0,0.0,0.0,0.0,0.0,0.0,0.0,0.0,0.0,0.0,0.0,0.0,0.0,0.0,0.0,0.0,0.0,0.0,0.0,0.0,0.0,0.0,0.0,0.0,0.0,0.0,0.0,0.0,0.0,0.0,0.0,0.0,0.0,0.0,0.0,0.0,0.0,0.0,0.0,0.0,0.0,0.0,0.0,0.0,0.0,0.0,0.0,0.0,0.0,0.0,0.0,0.0,0.0,0.0,0.0,0.0,0.0,0.0,0.0,0.0,0.0,0.0,0.0,0.0,0.0,0.0,0.0,0.0,0.0,0.0,0.0,0.0,0.0,0.0,0.0,0.0,0.0,0.0,0.0,0.0,0.0,0.0,0.0,-4.0939,-4.1623,-4.0046,0.0,-3.6911,0.0,0.0,0.0,0.0,0.0,0.0,0.0,0.0,0.0,0.0,0.0,0.0,0.0,0.0,0.0,0.0,0.0,0.0,0.0,0.0,0.0,0.0,0.0,0.0,0.0,0.0,0.0,0.0,0.0,0.0,0.0,0.0,0.0,0.0,0.0,0.0,0.0,0.0,0.0,0.0,0.0,0.0,0.0,0.0,0.0,0.0,0.0,0.0,0.0,0.0,0.0,0.0,0.0,0.0,0.0,0.0,0.0,0.0,0.0,0.0,0.0,0.0,0.0,0.0,0.0,0.0,0.0,0.0,0.0,0.0,0.0,0.0,0.0,0.0,0.0,0.0,0.0,0.0,0.0,0.0,0.0,0.0,0.0,0.0,0.0,0.0,0.0,0.0,0.0,0.0,0.0,0.0,0.0,0.0,0.0,0.0,0.0,0.0,0.0,0.0,0.0,0.0,0.0,0.0,0.0,0.0,0.0,0.0,0.0,0.0,-4.1716,-4.2566,-4.045,-3.8257,0.0,0.0,0.0,0.0,0.0,0.0,0.0,0.0,0.0,0.0,0.0,0.0,0.0,0.0,0.0,0.0,0.0,0.0,0.0,0.0,0.0,0.0,0.0,0.0,0.0,0.0,0.0,0.0,0.0,0.0,0.0,0.0,0.0,0.0,0.0,0.0,0.0,0.0,0.0,0.0,0.0,0.0,0.0,0.0,0.0,0.0,0.0,0.0,0.0,0.0,0.0,0.0,0.0,0.0,0.0,0.0,0.0,0.0,0.0,0.0,0.0,0.0,0.0,0.0,0.0,0.0,0.0,0.0,0.0,0.0,0.0,0.0,0.0,0.0,0.0,0.0,0.0,0.0,0.0,0.0,0.0,0.0,0.0,0.0,0.0,0.0,0.0,0.0,0.0,0.0,0.0,0.0,0.0,0.0,0.0,0.0,0.0,0.0,0.0,0.0,0.0,0.0,0.0,0.0,0.0,0.0,0.0,0.0,0.0,0.0,-4.0354,0.0,-4.1931,-4.0265,-3.8104,-3.5577,0.0,0.0,0.0,0.0,0.0,0.0,0.0,0.0,0.0,0.0,0.0,0.0,0.0,0.0,0.0,0.0,0.0,0.0,0.0,0.0,0.0,0.0,0.0,0.0,0.0,0.0,0.0,0.0,0.0,0.0,0.0,0.0,0.0,0.0,0.0,0.0,0.0,0.0,0.0,0.0,0.0,0.0,0.0,0.0,0.0,0.0,0.0,0.0,0.0,0.0,0.0,0.0,0.0,0.0,0.0,0.0,0.0,0.0,0.0,0.0,0.0,0.0,0.0,0.0,0.0,0.0,0.0,0.0,0.0,0.0,0.0,0.0,0.0,0.0,0.0,0.0,0.0,0.0,0.0,0.0,0.0,0.0,0.0,0.0,0.0,0.0,0.0,0.0,0.0,0.0,0.0,0.0,0.0,0.0,0.0,0.0,0.0,0.0,0.0,0.0,0.0,0.0,0.0,0.0,0.0,0.0,0.0,0.0,0.0,-3.8969,-3.9457,-3.9534,-3.9361,-3.8084,0.0,0.0,0.0,0.0,0.0,0.0,0.0,0.0,0.0,0.0,0.0,0.0,0.0,0.0,0.0,0.0,0.0,0.0,0.0,0.0,0.0,0.0,0.0,0.0,0.0,0.0,0.0,0.0,0.0,0.0,0.0,0.0,0.0,0.0,0.0,0.0,0.0,0.0,0.0,0.0,0.0,0.0,0.0,0.0,0.0,0.0,0.0,0.0,0.0,0.0,0.0,0.0,0.0,0.0,0.0,0.0,0.0,0.0,0.0,0.0,0.0,0.0,0.0,0.0,0.0,0.0,0.0,0.0,0.0,0.0,0.0,0.0,0.0,0.0,0.0,0.0,0.0,0.0,0.0,0.0,0.0,0.0,0.0,0.0,0.0,0.0,0.0,0.0,0.0,0.0,0.0,0.0,0.0,0.0,0.0,0.0,0.0,0.0,0.0,0.0,0.0,0.0,0.0,0.0,0.0,0.0,0.0,0.0,0.0,-3.7238,-3.9046,-3.9823,-3.9304,-3.8238,-3.6699,0.0,0.0,0.0,0.0,0.0,0.0,0.0,0.0,0.0,0.0,0.0,0.0,0.0,0.0,0.0,0.0,0.0,0.0,0.0,0.0,0.0,0.0,0.0,0.0,0.0,0.0,0.0,0.0,0.0,0.0,0.0,0.0,0.0,0.0,0.0,0.0,0.0,0.0,0.0,0.0,0.0,0.0,0.0,0.0,0.0,0.0,0.0,0.0,0.0,0.0,0.0,0.0,0.0,0.0,0.0,0.0,0.0,0.0,0.0,0.0,0.0,0.0,0.0,0.0,0.0,0.0,0.0,0.0,0.0,0.0,0.0,0.0,0.0,0.0,0.0,0.0,0.0,0.0,0.0,0.0,0.0,0.0,0.0,0.0,0.0,0.0,0.0,0.0,0.0,0.0,0.0,0.0,0.0,0.0,0.0,0.0,0.0,0.0,0.0,0.0,0.0,0.0,0.0,0.0,0.0,0.0,0.0,0.0,0.0,-3.718,0.0,-4.0285,0.0,-3.7462,-3.5795,0.0,0.0,0.0,0.0,0.0,0.0,0.0,0.0,0.0,0.0,0.0,0.0,0.0,0.0,0.0,0.0,0.0,0.0,0.0,0.0,0.0,0.0,0.0,0.0,0.0,0.0,0.0,0.0,0.0,0.0,0.0,0.0,0.0,0.0,0.0,0.0,0.0,0.0,0.0,0.0,0.0,0.0,0.0,0.0,0.0,0.0,0.0,0.0,0.0,0.0,0.0,0.0,0.0,0.0,0.0,0.0,0.0,0.0,0.0,0.0,0.0,0.0,0.0,0.0,0.0,0.0,0.0,0.0,0.0,0.0,0.0,0.0,0.0,0.0,0.0,0.0,0.0,0.0,0.0,0.0,0.0,0.0,0.0,0.0,0.0,0.0,0.0,0.0,0.0,0.0,0.0,0.0,0.0,0.0,0.0,0.0,0.0,0.0,0.0,0.0,0.0,0.0,0.0,0.0,0.0,0.0,0.0,0.0,-3.6372,-3.8027,-4.045,-4.0546,-3.8123,-3.7154,-3.55,0.0,0.0,0.0,0.0,0.0,0.0,0.0,0.0,0.0,0.0,0.0,0.0,0.0,0.0,0.0,0.0,0.0,0.0,0.0,0.0,0.0,0.0,0.0,0.0,0.0,0.0,0.0,0.0,0.0,0.0,0.0,0.0,0.0,0.0,0.0,0.0,0.0,0.0,0.0,0.0,0.0,0.0,0.0,0.0,0.0,0.0,0.0,0.0,0.0,0.0,0.0,0.0,0.0,0.0,0.0,0.0,0.0,0.0,0.0,0.0,0.0,0.0,0.0,0.0,0.0,0.0,0.0,0.0,0.0,0.0,0.0,0.0,0.0,0.0,0.0,0.0,0.0,0.0,0.0,0.0,0.0,0.0,0.0,0.0,0.0,0.0,0.0,0.0,0.0,0.0,0.0,0.0,0.0,0.0,0.0,0.0,0.0,0.0,0.0,0.0,0.0,0.0,0.0,0.0,0.0,0.0,0.0,0.0,0.0,-3.8911,-4.02,-4.0258,-3.89,-3.6923,-3.5231,0.0,0.0,0.0,0.0,0.0,0.0,0.0,0.0,0.0,0.0,0.0,0.0,0.0,0.0,0.0,0.0,0.0,0.0,0.0,0.0,0.0,0.0,0.0,0.0,0.0,0.0,0.0,0.0,0.0,0.0,0.0,0.0,0.0,0.0,0.0,0.0,0.0,0.0,0.0,0.0,0.0,0.0,0.0,0.0,0.0,0.0,0.0,0.0,0.0,0.0,0.0,0.0,0.0,0.0,0.0,0.0,0.0,0.0,0.0,0.0,0.0,0.0,0.0,0.0,0.0,0.0,0.0,0.0,0.0,0.0,0.0,0.0,0.0,0.0,0.0,0.0,0.0,0.0,0.0,0.0,0.0,0.0,0.0,0.0,0.0,0.0,0.0,0.0,0.0,0.0,0.0,0.0,0.0,0.0,0.0,0.0,0.0,0.0,0.0,0.0,0.0,0.0,0.0,0.0,0.0,0.0,0.0,0.0,0.0,-4.1131,-4.1978,-4.1708,-4.0277,-3.8065,-3.6065,-3.4205,0.0,0.0,0.0,0.0,0.0,0.0,0.0,0.0,0.0,0.0,0.0,0.0,0.0,0.0,0.0,0.0,0.0,0.0,0.0,0.0,0.0,0.0,0.0,0.0,0.0,0.0,0.0,0.0,0.0,0.0,0.0,0.0,0.0,0.0,0.0,0.0,0.0,0.0,0.0,0.0,0.0,0.0,0.0,0.0,0.0,0.0,0.0,0.0,0.0,0.0,0.0,0.0,0.0,0.0,0.0,0.0,0.0,0.0,0.0,0.0,0.0,0.0,0.0,0.0,0.0,0.0,0.0,0.0,0.0,0.0,0.0,0.0,0.0,0.0,0.0,0.0,0.0,0.0,0.0,0.0,0.0,0.0,0.0,0.0,0.0,0.0,0.0,0.0,0.0,0.0,0.0,0.0,0.0,0.0,0.0,0.0,0.0,0.0,0.0,0.0,0.0,0.0,0.0,0.0,0.0,0.0,0.0,0.0,-4.4412,-4.5441,-4.4682,-4.2077,-4.0335,-3.7861,0.0,0.0,0.0,0.0,0.0,0.0,0.0,0.0,0.0,0.0,0.0,0.0,0.0,0.0,0.0,0.0,0.0,0.0,0.0,0.0,0.0,0.0,0.0,0.0,0.0,0.0,0.0,0.0,0.0,0.0,0.0,0.0,0.0,0.0,0.0,0.0,0.0,0.0,0.0,0.0,0.0,0.0,0.0,0.0,0.0,0.0,0.0,0.0,0.0,0.0,0.0,0.0,0.0,0.0,0.0,0.0,0.0,0.0,0.0,0.0,0.0,0.0,0.0,0.0,0.0,0.0,0.0,0.0,0.0,0.0,0.0,0.0,0.0,0.0,0.0,0.0,0.0,0.0,0.0,0.0,0.0,0.0,0.0,0.0,0.0,0.0,0.0,0.0,0.0,0.0,0.0,0.0,0.0,0.0,0.0,0.0,0.0,0.0,0.0,0.0,0.0,0.0,0.0,0.0,0.0,0.0,0.0,0.0,0.0,-4.6144,-4.8856,-4.8432,-4.4739,-4.2354,-3.9854,0.0,0.0,0.0,0.0,0.0,0.0,0.0,0.0,0.0,0.0,0.0,0.0,0.0,0.0,0.0,0.0,0.0,0.0,0.0,0.0,0.0,0.0,0.0,0.0,0.0,0.0,0.0,0.0,0.0,0.0,0.0,0.0,0.0,0.0,0.0,0.0,0.0,0.0,0.0,0.0,0.0,0.0,0.0,0.0,0.0,0.0,0.0,0.0,0.0,0.0,0.0,0.0,0.0,0.0,0.0,0.0,0.0,0.0,0.0,0.0,0.0,0.0,0.0,0.0,0.0,0.0,0.0,0.0,0.0,0.0,0.0,0.0,0.0,0.0,0.0,0.0,0.0,0.0,0.0,0.0,0.0,0.0,0.0,0.0,0.0,0.0,0.0,0.0,0.0,0.0,0.0,0.0,0.0,0.0,0.0,0.0,0.0,0.0,0.0,0.0,0.0,0.0,0.0,0.0,0.0,0.0,0.0,0.0,-4.3981,-4.7346,-5.1058,-5.1144,-4.7287,-4.4374,-4.1316,0.0,0.0,0.0,0.0,0.0,0.0,0.0,0.0,0.0,0.0,0.0,0.0,0.0,0.0,0.0,0.0,0.0,0.0,0.0,0.0,0.0,0.0,0.0,0.0,0.0,0.0,0.0,0.0,0.0,0.0,0.0,0.0,0.0,0.0,0.0,0.0,0.0,0.0,0.0,0.0,0.0,0.0,0.0,0.0,0.0,0.0,0.0,0.0,0.0,0.0,0.0,0.0,0.0,0.0,0.0,0.0,0.0,0.0,0.0,0.0,0.0,0.0,0.0,0.0,0.0,0.0,0.0,0.0,0.0,0.0,0.0,0.0,0.0,0.0,0.0,0.0,0.0,0.0,0.0,0.0,0.0,0.0,0.0,0.0,0.0,0.0,0.0,0.0,0.0,0.0,0.0,0.0,0.0,0.0,0.0,0.0,0.0,0.0,0.0,0.0,0.0,0.0,0.0,0.0,0.0,0.0,0.0,0.0,-4.4816,-4.8067,-5.2106,-5.2683,-4.9471,-4.6259,-4.2585,0.0,0.0,0.0,0.0,0.0,0.0,0.0,0.0,0.0,0.0,0.0,0.0,0.0,0.0,0.0,0.0,0.0,0.0,0.0,0.0,0.0,0.0,0.0,0.0,0.0,0.0,0.0,0.0,0.0,0.0,0.0,0.0,0.0,0.0,0.0,0.0,0.0,0.0,0.0,0.0,0.0,0.0,0.0,0.0,0.0,0.0,0.0,0.0,0.0,0.0,0.0,0.0,0.0,0.0,0.0,0.0,0.0,0.0,0.0,0.0,0.0,0.0,0.0,0.0,0.0,0.0,0.0,0.0,0.0,0.0,0.0,0.0,0.0,0.0,0.0,0.0,0.0,0.0,0.0,0.0,0.0,0.0,0.0,0.0,0.0,0.0,0.0,0.0,0.0,0.0,0.0,0.0,0.0,0.0,0.0,0.0,0.0,0.0,0.0,0.0,0.0,0.0,0.0,0.0,0.0,0.0,0.0,0.0,-4.5374,-4.8067,-5.0942,-5.1491,-4.9452,-4.7432,-4.4335,0.0,0.0,0.0,0.0,0.0,0.0,0.0,0.0,0.0,0.0,0.0,0.0,0.0,0.0,0.0,0.0,0.0,0.0,0.0,0.0,0.0,0.0,0.0,0.0,0.0,0.0,0.0,0.0,0.0,0.0,0.0,0.0,0.0,0.0,0.0,0.0,0.0,0.0,0.0,0.0,0.0,0.0,0.0,0.0,0.0,0.0,0.0,0.0,-3.1403,0.0,0.0,0.0,0.0,0.0,0.0,0.0,0.0,0.0,0.0,0.0,0.0,0.0,0.0,0.0,0.0,0.0,0.0,0.0,0.0,0.0,0.0,0.0,0.0,0.0,0.0,0.0,0.0,0.0,0.0,0.0,0.0,0.0,0.0,0.0,0.0,0.0,0.0,0.0,0.0,0.0,0.0,0.0,0.0,0.0,0.0,0.0,0.0,0.0,0.0,0.0,0.0,0.0,0.0,0.0,0.0,0.0,0.0,0.0,-4.6567,-4.8682,-5.1202,-5.1519,-4.949,-4.8144,-4.5278,0.0,0.0,0.0,0.0,0.0,0.0,0.0,0.0,0.0,0.0,0.0,0.0,0.0,0.0,0.0,0.0,0.0,0.0,0.0,0.0,0.0,0.0,0.0,0.0,0.0,0.0,0.0,0.0,0.0,0.0,0.0,0.0,0.0,0.0,0.0,0.0,0.0,0.0,0.0,0.0,0.0,0.0,0.0,0.0,0.0,0.0,0.0,0.0,0.0,0.0,0.0,0.0,0.0,0.0,0.0,0.0,0.0,0.0,0.0,0.0,0.0,0.0,0.0,0.0,0.0,0.0,0.0,0.0,0.0,0.0,0.0,0.0,0.0,0.0,0.0,0.0,0.0,0.0,0.0,0.0,0.0,0.0,0.0,0.0,0.0,0.0,0.0,0.0,0.0,0.0,0.0,0.0,0.0,0.0,0.0,0.0,0.0,0.0,0.0,0.0,0.0,0.0,0.0,0.0,0.0,0.0,0.0,-4.4259,-4.7509,-4.9202,-5.1452,-5.1452,-4.9086,-4.7932,-4.5066,-4.0285,0.0,0.0,0.0,0.0,0.0,0.0,0.0,0.0,0.0,0.0,0.0,0.0,0.0,0.0,0.0,0.0,0.0,0.0,0.0,0.0,0.0,0.0,0.0,0.0,0.0,0.0,0.0,0.0,0.0,0.0,0.0,0.0,0.0,0.0,0.0,0.0,0.0,0.0,-2.7115,-2.9145,0.0,0.0,0.0,0.0,0.0,0.0,0.0,0.0,-3.0815,0.0,0.0,0.0,0.0,0.0,0.0,0.0,0.0,0.0,0.0,0.0,0.0,0.0,0.0,0.0,0.0,0.0,0.0,0.0,0.0,0.0,0.0,0.0,0.0,0.0,0.0,0.0,0.0,0.0,0.0,0.0,0.0,0.0,0.0,0.0,0.0,0.0,0.0,0.0,0.0,0.0,0.0,0.0,0.0,0.0,0.0,0.0,0.0,0.0,0.0,0.0,0.0,0.0,0.0,0.0,0.0,-4.0246,-4.3959,-4.6624,-4.8279,-4.9413,-4.9144,-4.7355,-4.5105,-4.2181,-3.8565,0.0,0.0,0.0,0.0,0.0,0.0,0.0,0.0,0.0,0.0,0.0,0.0,0.0,0.0,0.0,0.0,0.0,0.0,0.0,0.0,0.0,0.0,0.0,0.0,0.0,0.0,0.0,0.0,0.0,0.0,0.0,0.0,0.0,0.0,0.0,0.0,0.0,0.0,0.0,-3.1115,-3.1953,0.0,0.0,0.0,0.0,0.0,0.0,0.0,0.0,-3.095,0.0,0.0,0.0,0.0,0.0,0.0,0.0,0.0,0.0,0.0,0.0,0.0,0.0,0.0,0.0,0.0,0.0,0.0,0.0,0.0,0.0,0.0,0.0,0.0,0.0,0.0,0.0,0.0,0.0,0.0,0.0,0.0,0.0,0.0,0.0,0.0,0.0,0.0,0.0,0.0,0.0,0.0,0.0,0.0,0.0,0.0,0.0,0.0,0.0,0.0,0.0,0.0,0.0,0.0,0.0,-4.0419,-4.4316,-4.6663,-4.749,-4.8721,-4.8163,-4.5624,-4.3528,-4.0635,0.0,0.0,0.0,0.0,0.0,0.0,0.0,0.0,0.0,0.0,0.0,0.0,0.0,0.0,0.0,0.0,0.0,0.0,0.0,0.0,0.0,0.0,0.0,0.0,0.0,0.0,0.0,0.0,0.0,0.0,0.0,0.0,0.0,0.0,0.0,0.0,0.0,0.0,0.0,0.0,-3.2467,-3.3238,-3.3261,0.0,0.0,0.0,0.0,0.0,0.0,-3.1066,-3.0626,0.0,0.0,0.0,0.0,0.0,0.0,0.0,0.0,0.0,0.0,0.0,0.0,0.0,0.0,0.0,0.0,0.0,0.0,0.0,0.0,0.0,0.0,0.0,0.0,0.0,0.0,0.0,0.0,0.0,0.0,0.0,0.0,0.0,0.0,0.0,0.0,0.0,0.0,0.0,0.0,0.0,0.0,0.0,0.0,0.0,0.0,0.0,0.0,0.0,0.0,0.0,0.0,0.0,0.0,0.0,-4.0458,-4.4374,-4.6567,-4.6923,-4.8202,-4.7413,-4.4393,-4.2354,-3.9385,0.0,0.0,0.0,0.0,0.0,0.0,0.0,0.0,0.0,0.0,0.0,0.0,0.0,0.0,0.0,0.0,0.0,0.0,0.0,0.0,0.0,0.0,0.0,0.0,0.0,0.0,0.0,0.0,0.0,0.0,0.0,0.0,0.0,0.0,0.0,0.0,0.0,0.0,0.0,0.0,0.0,-3.4325,-3.5133,-3.416,0.0,0.0,0.0,0.0,-3.226,-3.1696,0.0,0.0,0.0,0.0,0.0,0.0,0.0,0.0,0.0,0.0,0.0,0.0,0.0,0.0,0.0,0.0,0.0,0.0,0.0,0.0,0.0,0.0,0.0,0.0,0.0,0.0,0.0,0.0,0.0,0.0,0.0,0.0,0.0,0.0,0.0,0.0,0.0,0.0,0.0,0.0,0.0,0.0,0.0,0.0,0.0,0.0,0.0,0.0,0.0,0.0,0.0,0.0,0.0,0.0,0.0,0.0,-4.0381,-4.3201,-4.5336,-4.6808,-4.7086,-4.6259,-4.4316,-4.1219,-3.795,0.0,0.0,0.0,0.0,0.0,0.0,0.0,0.0,0.0,0.0,0.0,0.0,0.0,0.0,0.0,0.0,0.0,0.0,0.0,0.0,0.0,0.0,0.0,0.0,0.0,0.0,0.0,0.0,0.0,0.0,0.0,0.0,0.0,0.0,0.0,0.0,0.0,0.0,0.0,0.0,0.0,-3.5188,-3.6046,-3.5991,-3.5862,0.0,0.0,-3.4747,-3.5605,-3.5018,0.0,0.0,0.0,0.0,0.0,0.0,0.0,0.0,0.0,0.0,0.0,0.0,0.0,0.0,0.0,0.0,0.0,0.0,0.0,0.0,0.0,0.0,0.0,0.0,0.0,0.0,0.0,0.0,0.0,0.0,0.0,0.0,0.0,0.0,0.0,0.0,0.0,0.0,0.0,0.0,0.0,0.0,0.0,0.0,0.0,0.0,0.0,0.0,0.0,0.0,0.0,0.0,0.0,0.0,0.0,-3.518,-3.9727,-4.2777,-4.4913,-4.6124,-4.6644,-4.5615,-4.2951,-4.0065,-3.6745,0.0,0.0,0.0,0.0,0.0,0.0,0.0,0.0,0.0,0.0,0.0,0.0,0.0,0.0,0.0,0.0,0.0,0.0,0.0,0.0,0.0,0.0,0.0,0.0,0.0,0.0,0.0,0.0,0.0,0.0,0.0,0.0,0.0,0.0,0.0,0.0,0.0,0.0,0.0,0.0,0.0,0.0,-3.6798,-3.6997,0.0,0.0,0.0,-3.5862,-3.6229,0.0,0.0,0.0,0.0,0.0,0.0,0.0,0.0,0.0,0.0,0.0,0.0,0.0,0.0,0.0,0.0,0.0,0.0,0.0,0.0,0.0,0.0,0.0,0.0,0.0,0.0,0.0,0.0,0.0,0.0,0.0,0.0,0.0,0.0,0.0,0.0,0.0,0.0,0.0,0.0,0.0,0.0,0.0,0.0,0.0,0.0,0.0,0.0,0.0,0.0,0.0,0.0,0.0,0.0,0.0,0.0,0.0,-3.8938,-4.2297,-4.4412,-4.5267,-4.6124,-4.5163,-4.222,-3.9662,0.0,0.0,0.0,0.0,0.0,0.0,0.0,0.0,0.0,0.0,0.0,0.0,0.0,0.0,0.0,0.0,0.0,0.0,0.0,0.0,0.0,0.0,0.0,0.0,0.0,0.0,0.0,-1.9387,0.0,0.0,0.0,0.0,0.0,0.0,0.0,0.0,0.0,0.0,0.0,0.0,0.0,0.0,-3.583,-3.7309,-3.7841,-3.8025,0.0,0.0,-3.7129,-3.6879,-3.6828,-3.5828,0.0,0.0,0.0,0.0,0.0,0.0,0.0,0.0,0.0,0.0,0.0,0.0,0.0,0.0,0.0,0.0,0.0,0.0,0.0,0.0,0.0,0.0,0.0,0.0,0.0,0.0,0.0,0.0,0.0,0.0,0.0,0.0,0.0,0.0,0.0,0.0,0.0,0.0,0.0,0.0,0.0,0.0,0.0,0.0,0.0,0.0,0.0,0.0,0.0,0.0,0.0,0.0,0.0,0.0,0.0,-3.8027,-4.145,-4.3566,-4.4374,-4.522,-4.4836,-4.3028,-4.0527,-3.718,0.0,0.0,0.0,0.0,0.0,0.0,0.0,0.0,0.0,0.0,0.0,0.0,0.0,0.0,0.0,0.0,0.0,0.0,0.0,0.0,0.0,0.0,0.0,0.0,0.0,0.0,0.0,0.0,0.0,0.0,0.0,0.0,0.0,0.0,0.0,0.0,0.0,0.0,0.0,0.0,0.0,-3.6523,-3.7382,-3.8796,-3.946,0.0,0.0,-3.9355,-3.847,-3.828,-3.7082,-3.3592,0.0,0.0,0.0,0.0,0.0,0.0,0.0,0.0,0.0,0.0,0.0,0.0,0.0,0.0,0.0,0.0,0.0,0.0,0.0,0.0,0.0,0.0,0.0,0.0,0.0,0.0,0.0,0.0,0.0,0.0,0.0,0.0,0.0,0.0,0.0,0.0,0.0,0.0,0.0,0.0,0.0,0.0,0.0,0.0,0.0,0.0,0.0,0.0,0.0,0.0,0.0,0.0,0.0,-3.2737,-3.6423,-3.9796,-4.2162,-4.3508,-4.3893,-4.3489,-4.2327,-4.0335,-3.7276,0.0,0.0,0.0,0.0,0.0,0.0,0.0,0.0,0.0,0.0,0.0,0.0,0.0,0.0,0.0,0.0,0.0,0.0,0.0,0.0,0.0,0.0,0.0,0.0,0.0,0.0,0.0,0.0,-1.9279,-1.9554,-2.0197,0.0,0.0,0.0,0.0,0.0,0.0,0.0,0.0,0.0,0.0,-3.5238,-3.6574,-3.8138,0.0,0.0,-3.8964,-3.8826,-3.7841,-3.715,-3.5711,-3.267,-2.923,0.0,0.0,0.0,0.0,0.0,0.0,0.0,0.0,0.0,0.0,0.0,0.0,0.0,0.0,0.0,0.0,0.0,0.0,0.0,0.0,0.0,0.0,0.0,0.0,0.0,0.0,0.0,0.0,0.0,0.0,0.0,0.0,0.0,0.0,0.0,0.0,0.0,0.0,0.0,0.0,0.0,0.0,0.0,0.0,0.0,0.0,0.0,0.0,0.0,0.0,0.0,0.0,-3.163,-3.477,-3.8592,-4.1154,-4.236,-4.2888,-4.2638,-4.1493,-4.0094,-3.7346,0.0,0.0,0.0,0.0,0.0,0.0,0.0,0.0,0.0,0.0,0.0,0.0,0.0,0.0,0.0,0.0,0.0,0.0,0.0,0.0,0.0,0.0,0.0,0.0,0.0,0.0,0.0,0.0,-2.0031,-1.9848,-1.937,0.0,0.0,0.0,0.0,0.0,0.0,0.0,0.0,0.0,0.0,-3.4963,-3.6138,-3.7863,-3.8982,-3.8744,-3.8909,-3.8609,-3.7377,-3.63,-3.4763,-3.2236,0.0,0.0,0.0,0.0,0.0,0.0,0.0,0.0,0.0,0.0,0.0,0.0,0.0,0.0,0.0,0.0,0.0,0.0,0.0,0.0,0.0,0.0,0.0,0.0,0.0,0.0,0.0,0.0,0.0,0.0,0.0,0.0,0.0,0.0,0.0,0.0,0.0,0.0,0.0,0.0,0.0,0.0,0.0,0.0,0.0,0.0,0.0,0.0,0.0,0.0,0.0,0.0,0.0,-3.0583,-3.316,-3.8052,-4.0662,-4.0778,-4.2395,-4.2395,-4.0739,-3.9888,-3.7458,-3.3165,0.0,0.0,0.0,0.0,0.0,0.0,0.0,0.0,0.0,0.0,0.0,0.0,0.0,0.0,0.0,0.0,0.0,0.0,0.0,0.0,0.0,0.0,0.0,0.0,0.0,0.0,-2.1581,-2.1702,-2.1023,0.0,0.0,0.0,0.0,0.0,0.0,0.0,0.0,0.0,0.0,-3.3678,-3.6229,-3.6303,-3.8322,-3.9496,-3.8799,-3.935,-3.9198,-3.7355,-3.6172,-3.4784,0.0,0.0,0.0,0.0,0.0,0.0,0.0,0.0,0.0,0.0,0.0,0.0,0.0,0.0,0.0,0.0,0.0,0.0,0.0,0.0,0.0,0.0,0.0,0.0,0.0,0.0,0.0,-2.916,-2.9101,0.0,0.0,0.0,0.0,0.0,0.0,0.0,0.0,0.0,0.0,0.0,-3.2559,-3.2266,0.0,0.0,0.0,0.0,0.0,0.0,0.0,0.0,0.0,0.0,0.0,0.0,-2.9181,-3.2287,-3.5642,-3.7933,-3.9078,-3.9675,-3.9694,-3.9117,-3.8287,-3.5573,-3.0784,0.0,0.0,0.0,0.0,0.0,0.0,0.0,0.0,0.0,0.0,0.0,0.0,0.0,0.0,0.0,0.0,0.0,0.0,0.0,0.0,0.0,0.0,0.0,0.0,0.0,-2.0175,0.0,0.0,0.0,0.0,0.0,0.0,0.0,0.0,0.0,0.0,0.0,-2.72,-2.9861,-3.2779,-3.5037,-3.6138,-3.7441,-3.841,0.0,0.0,0.0,0.0,0.0,0.0,0.0,0.0,0.0,0.0,0.0,0.0,0.0,0.0,-2.8552,-2.7283,-2.6657,-2.5795,-2.4086,0.0,0.0,0.0,0.0,0.0,0.0,0.0,0.0,0.0,0.0,0.0,0.0,0.0,0.0,0.0,0.0,-3.0859,0.0,0.0,0.0,0.0,0.0,0.0,0.0,0.0,-3.4687,-3.5469,-3.5195,-3.4902,-3.4629,0.0,-3.3242,-3.1777,0.0,0.0,0.0,0.0,0.0,0.0,0.0,0.0,-2.9151,-3.1957,-3.4778,-3.6781,-3.7864,-3.8215,-3.8234,-3.7907,-3.6466,-3.4022,-3.0448,-2.7819,-2.6015,0.0,0.0,0.0,0.0,0.0,0.0,0.0,0.0,0.0,0.0,0.0,0.0,0.0,0.0,0.0,0.0,0.0,0.0,0.0,0.0,0.0,0.0,0.0,-2.0374,0.0,0.0,0.0,0.0,0.0,0.0,0.0,0.0,0.0,-2.4217,-2.6106,-2.8326,-3.0711,-3.2858,-3.4711,-3.6101,0.0,0.0,0.0,0.0,0.0,0.0,0.0,-3.277,-3.209,-3.0308,-2.9328,-3.0345,-3.0717,-3.0852,-3.0869,0.0,0.0,-2.9262,-2.877,-2.8077,-2.6386,-2.6234,-2.6082,-2.5118,-2.5304,-2.5726,0.0,0.0,0.0,0.0,0.0,0.0,0.0,0.0,-3.3633,-3.3691,0.0,-3.2832,0.0,0.0,0.0,0.0,0.0,0.0,0.0,0.0,-3.6875,-3.7793,-3.8457,-3.7715,-3.7793,-3.8457,-3.6797,-3.5918,-3.5566,-3.0059,0.0,0.0,0.0,0.0,0.0,0.0,-3.0373,-3.2189,-3.5385,-3.7117,-3.7175,-3.7934,-3.7932,-3.7019,-3.4624,-3.289,-3.2014,-2.9558,-2.7777,-2.6804,-2.4394,0.0,0.0,0.0,0.0,0.0,0.0,0.0,0.0,0.0,0.0,0.0,0.0,0.0,0.0,0.0,0.0,0.0,0.0,0.0,0.0,-2.1666,0.0,0.0,0.0,0.0,0.0,0.0,0.0,0.0,0.0,0.0,-2.6631,-2.8088,-2.9941,-3.2271,0.0,0.0,0.0,0.0,-3.7701,-3.8327,-3.8412,-3.7945,-3.668,-3.48,-3.3615,-3.3893,0.0,0.0,-3.3169,-3.2814,-3.2327,-3.2293,-3.1698,-3.1224,-3.1157,-3.0531,-2.9837,-2.9077,-2.8332,-2.7908,-2.7824,-2.7638,-2.7925,-4.0762,0.0,0.0,0.0,0.0,-3.5767,-3.6256,-3.7076,-3.7706,-3.7963,-3.7907,-3.7127,0.0,0.0,0.0,0.0,0.0,0.0,-3.4121,-3.6055,-3.7539,-3.8359,-3.8613,-3.8984,-3.8965,-3.8555,-3.7461,-3.6601,-3.5879,-3.3008,-3.0527,-2.8476,0.0,0.0,0.0,0.0,-3.07,-3.2965,-3.4605,-3.5718,-3.6343,-3.5971,-3.5385,-3.4507,-3.3219,-3.2106,-3.1266,-2.9933,-2.8476,-2.6913,-2.4992,0.0,0.0,0.0,0.0,0.0,0.0,0.0,0.0,0.0,0.0,0.0,0.0,0.0,0.0,0.0,0.0,0.0,0.0,0.0,-2.1127,-2.1218,-2.1334,0.0,0.0,0.0,0.0,0.0,0.0,0.0,0.0,0.0,-2.906,-3.0063,-3.1164,0.0,0.0,-3.4435,-3.5243,-3.6101,-3.6864,-3.7481,0.0,0.0,0.0,-3.4991,-3.3963,-3.3874,-3.3686,-3.3694,-3.41,-3.3998,-3.3529,-3.2513,-3.2141,-3.1836,-3.1292,-3.1038,-3.0632,-2.9956,-2.96,-2.9244,-2.8789,-2.8653,-2.8739,-4.4443,-4.1653,-3.9846,-3.9325,-3.9627,-3.9279,-3.9633,-4.0474,-4.1042,-4.1275,-4.1232,-4.0088,-3.8649,-3.6914,-3.4863,0.0,0.0,0.0,-3.5879,-3.7598,-3.8613,-3.9297,-3.9648,-4.0156,-4.0137,-3.957,-3.8398,-3.7539,-3.7012,-3.4922,-3.3144,-3.1582,0.0,0.0,-2.9863,-3.0684,-3.2031,-3.3867,-3.4785,-3.5312,-3.5469,-3.4629,-3.3926,-3.3398,-3.2637,-3.1953,-3.1426,-2.9902,-2.8569,-2.7484,-2.5125,-2.3157,0.0,0.0,0.0,0.0,0.0,0.0,0.0,0.0,0.0,0.0,0.0,-1.6138,-1.7138,0.0,0.0,0.0,-2.0861,-2.1363,-2.1717,-2.1557,0.0,0.0,0.0,0.0,0.0,0.0,0.0,-2.5558,-2.7897,-2.9776,-3.0577,-3.1641,-3.254,-3.3018,-3.3495,-3.4069,-3.4848,0.0,-3.6014,-3.6842,-3.712,-3.7024,-3.6424,-3.5316,-3.4416,-3.411,-3.4313,-3.4472,-3.4472,-3.4049,-3.3343,-3.253,-3.2073,-3.1715,-3.1275,-3.119,-3.1072,-3.0649,-3.0531,-3.0362,-2.9958,-2.9873,-2.989,-4.7221,-4.7005,-4.3808,-4.287,-4.3418,-4.2567,-4.2635,-4.3402,-4.353,-4.3637,-4.3563,-4.2002,-4.0343,-3.8555,-3.6113,0.0,0.0,-3.7402,-3.8262,-3.9883,-3.9883,-4.0371,-4.1172,-4.1191,-4.1172,-4.1035,-3.9394,-3.8555,-3.834,-3.5976,-3.4805,-3.4726,-3.2461,-3.168,-3.2402,-3.3125,-3.3945,-3.4785,-3.5527,-3.5449,-3.4512,-3.3711,-3.3223,-3.3086,-3.2383,-3.1953,-3.1816,-2.957,-2.824,-2.8,-2.4964,-2.2777,-2.1841,0.0,0.0,0.0,0.0,0.0,0.0,0.0,0.0,0.0,0.0,0.0,0.0,0.0,0.0,0.0,-2.2023,0.0,-2.2821,-2.269,0.0,0.0,0.0,-2.3814,-2.5329,-2.5568,-2.6182,-2.7714,0.0,0.0,0.0,0.0,-3.3807,-3.3807,-3.3807,-3.4037,-3.4718,-3.4761,-3.5166,-3.6172,-3.6239,-3.6212,-3.6292,-3.5528,-3.4749,-3.4372,-3.4404,-3.4336,-3.4167,-3.3275,-3.2412,-3.2192,-3.1667,-3.119,-3.119,-3.119,-3.119,-3.1157,-3.1157,-3.1173,-3.1089,-3.1072,-3.1038,-4.9807,-4.9643,-4.7531,-4.5769,-4.425,-4.3383,-4.3131,-4.3394,-4.4098,-4.4459,-4.4442,-4.3448,-4.1752,-3.951,-3.8242,-3.791,-3.8281,-3.8281,-3.8867,-3.9863,-3.9883,-4.0371,-4.1172,-4.1191,-4.0859,-4.0156,-3.9101,-3.8262,-3.7578,-3.6309,-3.5684,-3.5664,-3.5078,-3.457,-3.4141,-3.4297,-3.4824,-3.5684,-3.5234,-3.4297,-3.2851,-3.2578,-3.1836,-3.0547,-3.0312,-2.9902,-2.9258,-2.8633,-2.7676,-2.6367,-2.4879,-2.3679,-2.2785,-2.0477,0.0,0.0,0.0,0.0,0.0,0.0,0.0,0.0,0.0,-1.7965,-1.9288,0.0,-2.0389,0.0,-2.3716,-2.4677,-2.4602,-2.5,0.0,0.0,-2.5448,-2.5299,-2.6291,-2.6883,-2.7622,-2.8594,-3.0136,-3.1421,-3.2228,-3.3183,-3.3807,-3.3807,-3.3807,-3.3826,-3.3921,-3.4258,-3.4485,-3.4614,-3.5115,-3.5464,-3.5387,-3.4951,-3.4393,-3.3766,-3.3677,-3.3474,-3.2919,-3.2564,-3.2124,-3.1599,-3.1326,-3.119,-3.119,-3.119,-3.119,-3.119,-3.119,-3.119,-3.119,-3.119,-3.119,-5.0683,-5.0539,-4.8817,-4.7349,-4.6063,-4.4834,-4.4332,-4.4378,-4.4892,-4.5192,-4.5167,-4.4101,-4.2428,-4.0443,-3.996,-3.9746,-3.9746,-3.9766,-4.0,-4.0469,-4.0488,-4.0742,-4.1191,-4.082,-4.0371,-3.9863,-3.8633,-3.7773,-3.7266,-3.6426,-3.6016,-3.6016,-3.6016,-3.5762,-3.5293,-3.5273,-3.5332,-3.541,-3.4199,-3.3125,-3.2226,-3.1816,-3.0976,-2.9668,-2.9609,-2.918,-2.832,-2.793,-2.7266,-2.6309,-2.5077,-2.4,-2.3114,-2.1361,-1.9986,0.0,0.0,0.0,0.0,0.0,0.0,0.0,0.0,0.0,0.0,0.0,-2.2115,0.0,-2.5115,0.0,-2.6339,-2.6658,-2.7094,-2.7743,-2.7148,-2.6988,-2.773,-2.8441,-2.9053,-2.9482,-3.0944,-3.2118,-3.2546,-3.3311,-3.3807,-3.3807,-3.3807,-3.3753,-3.3637,-3.3785,-3.3854,-3.3839,-3.4349,-3.4786,-3.4763,-3.433,-3.3863,-3.3474,-3.3136,-3.2763,-3.2378,-3.2022,-3.1684,-3.1275,-3.119,-3.119,-3.119,-3.119,-3.119,-3.119,-3.119,-3.119,-3.119,-3.119,-3.119,-5.0683,-5.0529,-4.8817,-4.8096,-4.799,-4.6297,-4.5594,-4.5594,-4.5679,-4.5672,-4.5551,-4.4194,-4.2713,-4.127,-4.1207,-4.1191,-4.1191,-4.1191,-4.1191,-4.1191,-4.1191,-4.1152,-4.1016,-4.0254,-3.9785,-3.9492,-3.8027,-3.7226,-3.709,-3.6367,-3.6016,-3.6016,-3.6016,-3.6016,-3.5996,-3.5879,-3.5351,-3.4394,-3.293,-3.2148,-3.2012,-3.1289,-3.043,-2.9492,-2.9434,-2.8906,-2.7851,-2.7168,-2.6719,-2.6484,-2.5156,-2.4022,-2.316,-2.229,-2.1081,0.0,-1.9411,0.0,0.0,0.0,0.0,0.0,0.0,0.0,0.0,-2.2466,-2.4043,-2.5519,-2.6423,-2.719,-2.7888,-2.7943,-2.8174,-2.8698,-2.8482,-2.8527,-2.9156,-2.98,-3.0246,-3.0338,-3.1665,-3.2619,-3.2784,-3.3353,-3.3807,-3.3807,-3.3807,-3.3753,-3.3615,-3.3404,-3.3337,-3.3559,-3.3768,-3.396,-3.4045,-3.3626,-3.3203,-3.3068,-3.2581,-3.2175,-3.2124,-3.1633,-3.1207,-3.119,-3.119,-3.119,-3.119,-3.119,-3.119,-3.119,-3.119,-3.119,-3.119,-3.119,-3.119,-5.0683,-5.0529,-4.8817,-4.8096,-4.7971,-4.6326,-4.5594,-4.5594,-4.5673,-4.5387,-4.4769,-4.3906,-4.2968,-4.2044,-4.1399,-4.11,-4.1123,-4.1127,-4.111,-4.1112,-4.1172,-4.082,-4.0176,-3.998,-3.916,-3.7832,-3.7461,-3.6934,-3.623,-3.6094,-3.6016,-3.6016,-3.6016,-3.6016,0.0,0.0,0.0,0.0,-3.2363,-3.1855,-3.1172,-3.0976,-3.0156,-2.8613,-2.8555,0.0,-2.5312,-2.5644,-2.5312,-2.4023,-2.4219,0.0,0.0,0.0,0.0,0.0,0.0,0.0,0.0,0.0,0.0,0.0,-2.375,-2.4365,-2.4404,-2.5928,-2.7087,-2.739,-2.8145,-2.8687,-2.8839,-2.9372,-2.9713,-2.9714,-2.9445,-2.9249,-2.9312,-2.9816,-3.043,-3.1121,-3.2027,-3.2839,-3.3458,-3.3733,-3.3807,-3.3807,-3.3807,-3.378,-3.3684,-3.3408,-3.3135,-3.295,-3.3016,-3.2914,-3.2761,-3.2615,-3.231,-3.1765,-3.1529,-3.1427,-3.1447,-3.1343,-3.1207,-3.119,-3.119,-3.119,-3.119,-3.119,-3.119,-3.119,-3.119,-3.119,-3.119,-3.119,-3.119,-5.0683,0.0,-4.8817,-4.8096,0.0,-4.6306,-4.5594,-4.5594,-4.564,-4.5221,-4.4485,-4.4145,-4.3335,-4.2198,-4.177,-4.1379,-4.1007,-4.1028,-4.0826,-4.0462,-4.0527,-4.0098,-3.9238,-3.8828,-3.8164,-3.7305,-3.6855,-3.6426,-3.6035,-3.6016,-3.6016,-3.6016,-3.6016,-3.6016,-3.5976,-3.4707,-3.3437,-3.2226,-3.1777,-3.1348,-3.0937,-3.0918,-3.0059,-2.8379,0.0,0.0,0.0,0.0,0.0,0.0,0.0,0.0,0.0,0.0,0.0,-2.1847,-2.218,-2.2395,-2.2327,-2.3486,-2.4339,-2.4709,-2.6251,-2.7024,-2.6621,-2.7409,-2.8068,-2.8453,-2.8876,-2.9269,-2.9694,-3.0087,-3.026,-3.0113,-2.9792,-2.9542,-2.9516,-3.0231,-3.0938,-3.1421,-3.2467,-3.3366,-3.3752,-3.3807,-3.3807,-3.3807,-3.3807,-3.3793,-3.3739,-3.3512,-3.3298,-3.315,-3.2634,-3.2399,-3.2378,-3.2038,-3.169,-3.1278,-3.119,-3.119,-3.119,-3.119,-3.119,-3.119,-3.119,-3.119,-3.119,-3.119,-3.119,-3.119,-3.119,-3.119,-3.119,-3.119,-3.119,-5.0683,-5.0539,-4.8817,-4.8096,-4.7971,-4.6317,-4.5594,-4.5594,0.0,0.0,0.0,-4.436,-4.355,-4.2316,-4.2005,-4.1498,-4.0919,-4.0947,-4.0545,-3.9803,-3.9859,-3.9335,-3.8359,-3.7636,-3.7207,-3.7031,-3.6348,-3.6016,-3.6016,-3.6016,-3.6016,-3.6016,-3.6016,-3.584,-3.5449,-3.3965,-3.2793,-3.1973,-3.1269,-3.0918,-3.0918,-3.0918,-3.0059,-2.8359,-2.8281,-2.7422,-2.5547,-2.5625,-2.5625,-2.5488,-2.5625,-2.5293,-2.4473,-2.4414,-2.4022,-2.32,-2.3249,-2.3617,-2.427,-2.5199,-2.616,-2.7064,-2.835,-2.8819,-2.8145,-2.8261,-2.8626,-2.9261,-2.9338,-2.9621,-3.0327,-3.0404,-3.0356,-3.0213,-3.0059,-2.9887,-2.9831,-3.0872,-3.1642,-3.1795,-3.2902,-3.3807,-3.3807,-3.3807,-3.3807,-3.3807,-3.3807,-3.3807,-3.378,-3.3629,-3.3497,-3.3392,-3.2773,-3.2246,-3.2271,-3.1891,-3.1346,-3.1247,-3.119,-3.119,-3.119,-3.119,-3.119,-3.119,-3.119,-3.119,-3.119,-3.119,-3.114,-3.1021,-3.1004,-3.0954,-3.0835,-3.0903,-3.1021,-5.0683,-5.0558,-4.8817,-4.8096,-4.7971,-4.6317,-4.5594,-4.5594,-4.5594,-4.5563,-4.5428,-4.3994,-4.3304,-4.306,-4.1635,-4.0961,-4.0891,-4.0898,-4.0493,0.0,-3.9777,-3.8992,-3.7511,-3.7358,-3.6912,-3.621,-3.6074,-3.6016,-3.6016,-3.6016,-3.6016,-3.6016,-3.6016,-3.5254,-3.3809,-3.2832,-3.1953,-3.1113,-3.0976,-3.0918,-3.0918,-3.0918,-3.0078,-2.8398,-2.8281,-2.7129,-2.4707,-2.5312,-2.5352,-2.4648,-2.5312,-2.5293,-2.4473,-2.4434,-2.4004,-2.3222,-2.3806,-2.4246,-2.4343,-2.581,-2.7333,-2.8684,-2.9021,-2.903,-2.8973,-2.9621,-3.0096,-3.0212,-3.0173,-3.025,-3.0404,-3.0404,-3.0362,-3.031,-3.0635,-3.0825,-3.0668,-3.1745,-3.2527,-3.2495,-3.3241,-3.3807,-3.3807,-3.3807,-3.3807,-3.3807,-3.3807,-3.3807,-3.378,-3.3671,-3.3509,-3.3268,-3.2902,-3.2437,-3.2087,-3.1759,-3.1485,-3.123,-3.121,-3.121,-3.119,-3.119,-3.119,-3.119,-3.119,-3.119,-3.119,-3.119,-3.092,-3.048,-3.0311,-3.0091,-2.96,-2.9905,-3.048,-5.0,-4.9779,-4.8163,-4.7442,-4.7355,-4.6124,-4.5594,-4.5556,-4.5094,-4.493,-4.485,-4.4121,-4.3316,-4.2452,-4.1689,-4.1106,-4.0736,-4.078,-4.0358,-3.9587,-3.9179,-3.8354,-3.7221,-3.6752,-3.6355,-3.603,-3.6015,-3.6016,-3.6016,-3.6016,-3.6016,-3.5976,-3.5527,-3.4434,-3.2832,-3.2383,-3.1777,-3.0937,-3.0918,-3.0918,-3.0918,-3.0918,-3.0059,-2.834,-2.8281,-2.7305,-2.5195,-2.5488,-2.5527,-2.5117,-2.5488,-2.5527,-2.5137,-2.5117,-2.4941,-2.4551,-2.4882,-2.5113,-2.5044,-2.6578,-2.8193,-2.9761,-2.9855,-2.9813,-2.9813,-3.0173,-3.0404,-3.0404,-3.0404,-3.0404,-3.0404,-3.0404,-3.0541,-3.0924,-3.1108,-3.1311,-3.1647,-3.2331,-3.2863,-3.2865,-3.3403,-3.3807,-3.3807,-3.3807,-3.3807,-3.3807,-3.3807,-3.3807,-3.3807,-3.3753,-3.3629,-3.3383,-3.3114,-3.27,-3.2231,-3.195,-3.1711,-3.1387,-3.1291,-3.1252,-3.121,-3.1173,-3.1173,-3.119,-3.1173,-3.119,-3.1157,-3.0852,-3.0497,-3.0226,-2.9736,-2.9364,-2.9162,-2.9583,-3.0328,-4.9413,-4.924,-4.7605,-4.6797,-4.6547,-4.5902,-4.5498,-4.5248,-4.4586,-4.4085,-4.3758,-4.3739,-4.3028,-4.1846,-4.1604,-4.1162,-4.0665,-4.0675,-4.0161,-3.9208,-3.8561,-3.7755,-3.682,-3.6143,-3.5901,-3.5979,-3.5993,-3.6015,-3.6015,-3.6016,-3.5879,-3.5605,-3.4648,-3.3476,-3.2226,-3.1992,-3.1562,-3.0937,-3.0918,-3.0801,-3.0605,-3.0605,-2.9785,-2.8164,-2.7988,-2.7285,-2.5801,-2.5703,-2.5703,-2.5703,-2.5703,-2.5703,-2.5703,-2.5703,-2.5703,-2.5703,-2.5703,-2.5877,-2.6315,-2.7345,-2.8753,-3.0365,-3.0444,-3.0404,-3.0404,-3.0404,-3.0404,-3.0404,-3.0404,-3.0404,-3.0404,-3.0404,-3.0726,-3.1463,-3.1616,-3.1935,-3.2548,-3.3055,-3.3321,-3.3312,-3.3603,-3.386,-3.3834,-3.382,-3.3807,-3.3807,-3.3807,-3.3807,-3.3807,-3.3807,-3.3726,-3.3591,-3.3357,-3.3083,-3.2651,-3.2334,-3.202,-3.1635,-3.1464,-3.123,-3.1046,-3.092,-3.0801,-3.0666,-3.0615,-3.0565,-3.0598,-3.026,-2.9803,-2.9499,-2.9025,-2.8721,-2.8704,-2.9059,-2.9888,-4.9375,-4.9144,-4.7548,-4.6451,-4.5768,-4.5633,-4.5171,-4.447,-4.4316,-4.3431,-4.2181,-4.2038,-4.1981,-4.1712,-4.0989,-4.0635,-4.0595,-4.0654,-3.9857,-3.8481,-3.8252,-3.7395,-3.6079,-3.585,-3.5838,-3.5914,-3.5963,-3.5993,-3.5995,-3.5976,-3.5586,-3.4726,-3.3223,-3.2383,-3.2129,-3.1426,-3.0996,-3.0918,-3.0918,-3.0527,-2.9766,-2.9726,-2.8887,-2.7187,-2.7129,-2.668,-2.5742,-2.5703,-2.5703,-2.5703,-2.5703,-2.5703,-2.5703,-2.5703,-2.5703,-2.5703,-2.5703,-2.6346,-2.7852,-2.8065,-2.8838,-3.035,-3.0485,-3.0385,-3.0404,-3.0404,-3.0404,-3.0404,-3.0404,-3.0404,-3.0404,-3.0404,-3.0757,-3.1616,-3.2177,-3.2852,-3.3543,-3.4121,-3.4403,-3.4274,-3.4018,-3.3959,-3.3889,-3.3842,-3.3807,-3.3807,-3.3807,-3.3807,-3.3807,-3.3807,-3.3807,-3.3753,-3.3643,-3.3441,-3.3139,-3.2844,-3.2419,-3.1932,-3.1657,-3.1264,-3.07,-3.0279,-3.004,-2.9738,-2.9382,-2.9433,-2.9365,-2.9094,-2.8856,-2.8484,-2.8128,-2.7908,-2.7908,-2.8077,-2.8669,-4.7932,-4.7798,-4.6624,-4.5932,-4.5614,-4.5594,-4.5114,-4.4278,-4.3797,-4.2912,-4.1797,-4.1258,-4.1027,-4.1008,-4.065,-4.0504,-4.0539,-4.0569,-3.9955,-3.885,-3.8325,-3.748,-3.6436,-3.5878,-3.5745,-3.5833,-3.5917,-3.5942,-3.5893,-3.5488,-3.4551,-3.3301,-3.25,-3.1953,-3.1445,-3.1074,-3.0918,-3.0918,-3.0918,-3.0234,-2.9062,-2.9336,-2.8769,-2.7226,-2.7012,-2.6582,-2.582,-2.5703,-2.5703,-2.5703,-2.5703,-2.5703,-2.5703,-2.5703,-2.5703,-2.5723,-2.6191,-2.7245,-2.8951,-2.8946,-2.9391,-3.0575,-3.054,-3.0436,-3.0394,-3.0396,-3.0404,-3.0404,-3.0404,-3.0404,-3.0404,-3.0404,-3.0917,-3.2084,-3.2647,-3.3302,-3.4553,-3.435,-3.4235,-3.4501,-3.3915,-3.3611,-3.3881,-3.3881,-3.382,-3.3807,-3.3807,-3.377,-3.3807,-3.3807,-3.3807,-3.3807,-3.3734,-3.3611,-3.3397,-3.3111,-3.2716,-3.2282,-3.1985,-3.1472,-3.0508,-3.0187,-2.9912,-2.9113,-2.8908,-2.8891,-2.9061,-2.8535,-2.8111,-2.7722,-2.7351,-2.7148,-2.7148,-2.7503,-2.8111,-4.6904,-4.6778,-4.596,-4.5594,-4.5594,-4.5594,-4.4979,-4.397,-4.3355,-4.2489,-4.1431,-4.0766,-4.0496,-4.0496,-4.0496,-4.0496,-4.0477,-4.0265,-3.9719,-3.89,-3.8046,-3.7235,-3.6447,-3.5913,-3.566,-3.5757,-3.5853,-3.5804,-3.5572,-3.4761,-3.3612,-3.2342,-3.1933,-3.1503,-3.0957,-3.0879,-3.0879,-3.0859,-3.0859,-3.0019,-2.8633,-2.8924,-2.8417,-2.6836,-2.666,-2.6348,-2.5742,-2.5703,-2.5703,-2.5703,-2.5703,-2.5703,-2.5703,-2.5703,-2.5801,-2.6074,-2.6641,-2.7753,-2.9484,-2.9496,-2.9801,-3.0562,-3.0585,-3.0481,-3.0439,-3.0414,-3.0404,-3.0404,-3.0404,-3.0404,-3.0404,-3.0404,-3.1135,-3.2641,-3.2891,-3.3557,-3.4997,-3.4599,-3.4404,-3.468,-3.4116,-3.3462,-3.3636,-3.3368,-3.3136,-3.3348,-3.344,-3.3605,-3.3752,-3.3807,-3.3807,-3.3807,-3.3807,-3.3753,-3.3605,-3.3401,-3.3032,-3.2414,-3.1997,-3.1324,-3.0212,-2.9793,-2.9306,-2.8182,-2.8367,-2.8316,-2.8079,-2.7672,-2.7536,-2.7401,-2.7097,-2.6742,-2.6793,-2.7215,-2.7418,-4.6904,-4.675,-4.597,-4.5594,-4.5594,-4.5556,-4.4652,-4.3239,-4.3085,-4.2143,-4.0727,-4.0535,-4.0496,-4.0496,-4.0496,-4.0496,-4.0362,-3.9727,-3.8919,-3.8027,-3.7199,-3.6355,-3.5592,-3.5577,-3.5632,-3.5713,-3.5764,-3.5415,-3.4722,-3.3925,-3.3008,-3.2092,-3.1315,-3.0871,-3.0796,-3.0855,-3.0856,-3.0816,-3.0813,-2.9988,-2.8539,-2.8343,-2.7569,-2.6016,-2.5781,-2.5781,-2.5703,-2.5703,-2.5703,-2.5703,-2.5703,-2.5703,-2.5703,-2.5703,-2.6055,-2.6816,-2.6992,-2.7792,-2.9331,-2.9611,-2.9876,-3.0528,-3.0591,-3.0491,-3.0496,-3.0442,-3.0396,-3.0404,-3.0404,-3.0404,-3.0404,-3.0404,-3.1096,-3.2641,-3.2891,-3.366,-3.5194,-3.5147,-3.5133,-3.5008,-3.4565,-3.3858,-3.2994,-3.2109,-3.2145,-3.248,-3.2656,-3.2839,-3.3403,-3.366,-3.3715,-3.3715,-3.3733,-3.3775,-3.373,-3.3432,-3.2958,-3.237,-3.1696,-3.09,-2.9478,-2.8285,-2.7776,-2.7301,-2.7267,-2.7165,-2.6894,-2.681,-2.6877,-2.686,-2.6877,-2.6708,-2.6708,-2.6708,-2.6877,-4.6067,-4.6028,-4.5729,-4.5594,-4.5537,-4.5009,-4.4124,-4.3066,-4.2481,-4.1623,-4.0631,-4.0496,-4.0496,-4.0496,-4.0496,-4.0227,-3.9727,-3.9411,-3.8546,-3.7257,-3.6834,-3.6276,-3.5566,-3.5534,-3.5566,-3.5629,-3.565,-3.4991,-3.3821,-3.3419,-3.2543,-3.1337,-3.0886,-3.0747,-3.0743,-3.0804,-3.0804,-3.0744,-3.0732,-2.9895,-2.8353,-2.8175,-2.7324,-2.5704,-2.5652,-2.57,-2.5702,-2.5702,-2.5703,-2.5703,-2.5703,-2.5703,-2.5703,-2.5703,-2.6367,-2.7637,-2.7832,-2.8593,-3.0115,-3.0381,-3.0444,-3.0704,-3.0694,-3.0595,-3.0572,-3.0491,-3.0442,-3.0419,-3.0396,-3.0404,-3.0404,-3.0404,-3.1058,-3.2506,-3.2929,-3.3577,-3.4852,-3.4978,-3.4736,-3.4939,-3.448,-3.3441,-3.2467,-3.1834,-3.1697,-3.1776,-3.1825,-3.199,-3.2247,-3.2687,-3.3023,-3.3115,-3.344,-3.3623,-3.3054,-3.2957,-3.2643,-3.2172,-3.1531,-3.0487,-2.9202,-2.8573,-2.8088,-2.7315,-2.6926,-2.6792,-2.6809,-2.6742,-2.6708,-2.6708,-2.6708,-2.6708,-2.6708,-2.6708,-2.6708,-4.5594,-4.5594,-4.5594,-4.5441,-4.5124,-4.4547,-4.3662,-4.2681,-4.2047,-4.1296,-4.0612,-4.0496,-4.0496,-4.0496,-4.0496,-3.9881,-3.8957,-3.8854,-3.8104,-3.675,-3.6442,-3.6019,-3.5577,-3.55,-3.5534,-3.5572,-3.5577,-3.4758,-3.3343,-3.3156,-3.2262,-3.0707,-3.0667,-3.0704,-3.0712,-3.0753,-3.0753,-3.0712,-3.0711,-2.9839,-2.8304,-2.8064,-2.7229,-2.5784,-2.5586,-2.564,-2.5655,-2.568,-2.5702,-2.5703,-2.5703,-2.5703,-2.5703,-2.5703,-2.6465,-2.8027,-2.8281,-2.9062,-3.0585,-3.0857,-3.0811,-3.0796,-3.0756,-3.0684,-3.0621,-3.0572,-3.0477,-3.0444,-3.0414,-3.0404,-3.0404,-3.0404,-3.1077,-3.2526,-3.2891,-3.3622,-3.5173,-3.4988,-3.4747,-3.4626,-3.3862,-3.277,-3.1732,-3.1227,-3.1031,-3.1041,-3.1048,-3.1109,-3.1433,-3.1806,-3.2357,-3.2546,-3.2742,-3.2852,-3.2485,-3.2195,-3.173,-3.1245,-3.1039,-3.0028,-2.9262,-2.8752,-2.8204,-2.7421,-2.7006,-2.6892,-2.6792,-2.6725,-2.6708,-2.6708,-2.6708,-2.6708,-2.6708,-2.6708,-2.6708,-4.5594,-4.5594,-4.5594,-4.5133,-4.4432,-4.4239,-4.3316,-4.2019,-4.175,-4.12,-4.0535,-4.0496,-4.0496,-4.0496,-4.04,-3.9565,-3.8315,-3.8046,-3.7507,-3.6584,-3.5904,-3.5577,-3.55,-3.55,-3.5501,-3.5528,-3.5562,-3.4719,-3.3175,-3.302,-3.2245,-3.0881,-3.0645,-3.0675,-3.0686,-3.0689,-3.0689,-3.0692,-3.0678,-2.9799,-2.8252,-2.8012,-2.7194,-2.5689,-2.5508,-2.553,-2.5595,-2.5668,-2.5698,-2.5703,-2.5703,-2.5703,-2.5703,-2.5703,-2.6484,-2.7949,-2.8281,-2.916,-3.0625,-3.0879,-3.0858,-3.0814,-3.0743,-3.0695,-3.0681,-3.0575,-3.0505,-3.0501,-3.0447,-3.039,-3.041,-3.0404,-3.1077,-3.2564,-3.291,-3.3641,-3.5,-3.55,-3.5081,-3.4155,-3.3218,-3.2172,-3.1091,-3.0311,-3.0029,-3.0298,-3.0332,-3.044,-3.0913,-3.1201,-3.1696,-3.21,-3.2118,-3.2008,-3.1715,-3.1353,-3.073,-3.021,-3.0087,-2.9588,-2.8972,-2.8427,-2.8153,-2.7507,-2.7166,-2.7021,-2.6875,-2.6808,-2.6775,-2.6758,-2.6742,-2.6725,-2.6708,-2.6708,-2.6708,-4.5594,-4.5594,-4.5594,-4.5114,-4.4278,-4.372,-4.2816,-4.1769,-4.12,-4.0739,-4.0516,-4.0496,-4.0496,-4.0342,-3.9938,-3.9073,-3.7988,-3.7392,-3.668,-3.5942,-3.5596,-3.55,-3.55,-3.55,-3.5488,-3.5501,-3.5515,-3.4635,-3.3251,-3.2962,-3.2127,-3.0769,-3.053,-3.0557,-3.0579,-3.0595,-3.0614,-3.0576,-3.055,-2.9699,-2.8116,-2.7933,-2.7103,-2.5575,-2.539,-2.5432,-2.5465,-2.5609,-2.5688,-2.5701,-2.5702,-2.5703,-2.5703,-2.5703,-2.6523,-2.8027,-2.8281,-2.9062,-3.0605,-3.0918,-3.0898,-3.0877,-3.0811,-3.0777,-3.0765,-3.0681,-3.0603,-3.058,-3.051,-3.0466,-3.0419,-3.0396,-3.1135,-3.2718,-3.291,-3.3583,-3.5115,-3.5462,-3.4775,-3.3556,-3.2931,-3.2031,-3.0714,-2.983,-2.973,-2.9717,-2.9683,-2.9739,-2.9804,-3.0332,-3.0577,-3.0858,-3.0944,-3.1164,-3.0944,-3.0668,-3.0155,-2.9721,-2.9521,-2.9442,-2.8826,-2.8417,-2.811,-2.7771,-2.7428,-2.7197,-2.7037,-2.6923,-2.6908,-2.6808,-2.6775,-2.6742,-2.6725,-2.6708,-2.6708,-4.5594,-4.5594,-4.5594,-4.4913,-4.3855,-4.3278,-4.2393,-4.1354,-4.0758,-4.0496,-4.0496,-4.0496,-4.0304,-4.0015,-3.9508,-3.8623,-3.7546,-3.693,-3.6269,-3.5577,-3.55,-3.55,-3.55,-3.55,-3.55,-3.55,-3.55,-3.4596,-3.2968,-3.2833,-3.2045,-3.0666,-3.0442,-3.0486,-3.0501,-3.0544,-3.0544,-3.0501,-3.0477,-2.9783,-2.858,-2.8044,-2.7217,-2.5972,-2.5529,-2.5404,-2.5422,-2.5563,-2.5636,-2.5672,-2.5681,-2.5703,-2.5703,-2.5742,-2.6465,-2.7871,-2.8398,-2.9062,-3.0625,-3.0918,-3.0918,-3.0898,-3.0857,-3.0832,-3.0796,-3.0739,-3.0673,-3.0648,-3.0557,-3.0496,-3.0449,-3.0414,-3.116,-3.2718,-3.2891,-3.368,-3.5038,-3.5192,-3.4449,-3.3263,-3.2577,-3.1602,-3.0522,-2.995,-2.9775,-2.9551,-2.9404,-2.9238,-2.9226,-2.9504,-2.9786,-3.0001,-3.0136,-3.0265,-3.0246,-2.9953,-2.9555,-2.9305,-2.908,-2.91,-2.884,-2.8669,-2.8422,-2.8069,-2.7725,-2.755,-2.7382,-2.718,-2.7101,-2.6972,-2.6858,-2.6741,-2.6708,-2.6708,-2.6708,-4.5586,-4.5586,-4.5547,-4.4558,-4.3203,-4.2992,-4.2038,-4.07,-4.0516,-4.0496,-4.0496,-4.0496,-4.0131,-3.9534,-3.9265,-3.8296,-3.7,-3.6584,-3.6173,-3.5654,-3.55,-3.55,-3.55,-3.55,-3.55,-3.55,-3.55,-3.4538,-3.2968,-3.2891,-3.2045,-3.0583,-3.0414,-3.0433,-3.0471,-3.0485,-3.049,-3.0476,-3.0439,-2.9938,-2.905,-2.8415,-2.7525,-2.6582,-2.59,-2.5508,-2.5397,-2.5455,-2.5532,-2.5595,-2.566,-2.5703,-2.5703,-2.5703,-2.6484,-2.8105,-2.8281,-2.9238,-3.0469,-3.0918,-3.0918,-3.0918,-3.0898,-3.0879,-3.0814,-3.076,-3.0714,-3.0689,-3.0598,-3.0509,-3.0492,-3.0444,-3.1203,-3.257,-3.3186,-3.4007,-3.5064,-3.4718,-3.3872,-3.2929,-3.2058,-3.1252,-3.0381,-3.0126,-2.9931,-2.975,-2.9608,-2.9434,-2.9265,-2.9359,-2.9501,-2.9584,-2.9604,-2.9629,-2.9702,-2.9574,-2.9262,-2.9189,-2.8975,-2.8952,-2.8917,-2.8798,-2.8675,-2.8313,-2.8079,-2.7915,-2.7713,-2.7519,-2.7353,-2.723,-2.7037,-2.6808,-2.6758,-2.6825,-2.6825,-4.5467,-4.539,-4.4804,-4.3951,-4.2914,-4.2291,-4.1445,-4.0564,-4.05,-4.0496,-4.0496,-4.0496,-4.0362,-4.0054,-3.8873,-3.8046,-3.743,-3.6392,-3.5769,-3.5538,-3.55,-3.55,-3.55,-3.55,-3.55,-3.55,-3.5442,-3.4596,-3.3006,-3.2891,-3.2025,-3.0462,-3.039,-3.0389,-3.0419,-3.0419,-3.0433,-3.0414,-3.0408,-2.9992,-2.9242,-2.8896,-2.8063,-2.6717,-2.6361,-2.5909,-2.5428,-2.5387,-2.549,-2.5648,-2.5695,-2.5702,-2.5703,-2.5723,-2.6484,-2.7949,-2.8359,-2.9062,-3.0469,-3.0918,-3.0918,-3.0918,-3.0918,-3.0879,-3.0877,-3.0812,-3.0777,-3.0745,-3.0703,-3.0614,-3.0567,-3.0544,-3.1316,-3.2765,-3.3788,-3.4533,-3.4526,-3.434,-3.366,-3.2295,-3.1802,-3.1193,-3.0605,-3.0254,-3.014,-2.9935,-2.9782,-2.9626,-2.9424,-2.9257,-2.9403,-2.9209,-2.917,-2.9189,-2.9189,-2.9115,-2.9042,-2.9042,-2.8987,-2.8975,-2.8917,-2.8834,-2.8694,-2.8505,-2.8391,-2.8246,-2.8073,-2.7876,-2.7704,-2.7522,-2.7307,-2.7116,-2.7084,-2.7117,-2.7085,-4.5072,-4.4737,-4.4269,-4.3369,-4.2269,-4.1695,-4.1081,-4.0518,-4.0476,-4.0496,-4.0496,-4.0496,-4.0304,-3.9881,-3.8969,-3.8104,-3.7373,-3.6449,-3.5865,-3.55,-3.55,-3.55,-3.55,-3.55,-3.55,-3.55,-3.55,-3.4507,-3.3179,-3.2891,-3.1962,-3.0692,-3.0404,-3.0404,-3.039,-3.0404,-3.0404,-3.0404,-3.0385,-3.0115,-2.9698,-2.8909,-2.8198,-2.7082,-2.6538,-2.5755,-2.5375,-2.5378,-2.5473,-2.563,-2.5659,-2.5677,-2.57,-2.5703,-2.6504,-2.8125,-2.8301,-2.9062,-3.0488,-3.0918,-3.0918,-3.0918,-3.0918,-3.0918,-3.0898,-3.0857,-3.0832,-3.078,-3.0745,-3.0689,-3.0707,-3.0878,-3.1525,-3.2385,-3.367,-3.434,-3.4154,-3.3872,-3.3083,-3.2064,-3.1365,-3.1,-3.0442,-3.0343,-3.0235,-3.0102,-2.9969,-2.9775,-2.958,-2.9444,-2.927,-2.9138,-2.9033,-2.9076,-2.909,-2.9023,-2.9005,-2.9005,-2.8987,-2.8987,-2.8952,-2.8881,-2.8834,-2.8731,-2.8682,-2.8576,-2.8396,-2.8224,-2.8069,-2.7869,-2.7636,-2.7502,-2.7487,-2.7459,-2.7428,-4.4397,-4.3711,-4.3628,-4.2732,-4.1462,-4.1186,-4.0759,-4.0355,-4.0417,-4.05,-4.05,-4.0489,-4.0189,-3.9411,-3.9092,-3.8277,-3.693,-3.6538,-3.6058,-3.5654,-3.55,-3.55,-3.55,-3.55,-3.55,-3.55,-3.55,-3.4468,-3.3295,-3.2891,-3.1987,-3.0788,-3.0404,-3.0404,-3.0404,-3.0404,-3.0404,-3.0404,-3.0404,-3.0231,-2.9833,-2.8871,-2.8063,-2.7332,-2.6115,-2.5491,-2.5384,-2.5415,-2.5503,-2.5715,-2.5722,-2.5913,-2.5983,-2.6013,-2.6836,-2.8144,-2.8633,-2.9277,-3.0547,-3.0918,-3.0918,-3.0918,-3.0918,-3.0918,-3.0918,-3.0898,-3.0858,-3.0815,-3.0746,-3.0725,-3.0852,-3.1459,-3.2019,-3.2438,-3.2938,-3.3622,-3.3718,-3.3301,-3.2449,-3.1679,-3.0846,-3.05,-3.0379,-3.0342,-3.0286,-3.0241,-3.0114,-2.9981,-2.9775,-2.9626,-2.9435,-2.9246,-2.9156,-2.9078,-2.9051,-2.9005,-2.9005,-2.8987,-2.8987,-2.8987,-2.8987,-2.8952,-2.8964,-2.8929,-2.8827,-2.8779,-2.8718,-2.8563,-2.8373,-2.8228,-2.801,-2.7954,-2.794,-2.7915,-2.7872,-4.278,-4.2524,-4.1882,-4.1416,-4.101,-4.04,-4.011,-4.0091,-4.0314,-4.0447,-4.0479,-4.05,-4.0381,-4.0131,-3.8969,-3.8027,-3.743,-3.6442,-3.5635,-3.5558,-3.55,-3.55,-3.55,-3.55,-3.55,-3.55,-3.55,-3.4564,-3.3314,-3.2814,-3.2064,-3.0654,-3.0442,-3.0404,-3.0404,-3.0404,-3.0404,-3.0404,-3.0404,-3.0083,-2.9602,-2.9083,-2.8198,-2.7121,-2.5981,-2.5442,-2.5313,-2.5327,-2.5697,-2.6254,-2.6623,-2.6948,-2.7366,-2.7567,-2.8122,-2.8866,-2.9277,-2.9766,-3.0664,-3.0918,-3.0918,-3.0918,-3.0918,-3.0918,-3.0918,-3.0918,-3.0898,-3.0877,-3.0813,-3.0782,-3.09,-3.2133,-3.2616,-3.2935,-3.3885,-3.4371,-3.3462,-3.2537,-3.1781,-3.0962,-3.0558,-3.0404,-3.0404,-3.0379,-3.0361,-3.0343,-3.0267,-3.0154,-2.9985,-2.9799,-2.9607,-2.9404,-2.9299,-2.9232,-2.9112,-2.9055,-2.9033,-2.901,-2.8998,-2.8987,-2.8987,-2.8987,-2.8987,-2.8987,-2.8975,-2.8929,-2.8881,-2.8798,-2.8589,-2.8487,-2.8409,-2.8339,-2.8313,-2.8317,-2.8277,-4.1724,-4.131,-4.091,-4.0503,-4.0109,-3.9683,-3.959,-3.9865,-4.0139,-4.0316,-4.0413,-4.0476,-4.0304,-3.99,-3.9008,-3.8277,-3.7238,-3.6135,-3.55,-3.55,-3.55,-3.55,-3.55,-3.55,-3.55,-3.55,-3.55,-3.4699,-3.3757,-3.3026,-3.2275,-3.1038,-3.0635,-3.0404,-3.0404,-3.0404,-3.0404,-3.0404,-3.0404,-3.0154,-2.9775,-2.9256,-2.8607,-2.7448,-2.6774,-2.6519,-2.6563,-2.6563,-2.7031,-2.7634,-2.7908,-2.7964,-2.8104,-2.8249,-2.8719,-2.937,-2.959,-3.0019,-3.0664,-3.0918,-3.0918,-3.0918,-3.0918,-3.0918,-3.0918,-3.0918,-3.0918,-3.0898,-3.0858,-3.0854,-3.0926,-3.1871,-3.2608,-3.2866,-3.381,-3.3891,-3.2813,-3.2326,-3.1768,-3.0814,-3.0423,-3.0404,-3.0404,-3.0404,-3.0398,-3.0361,-3.0323,-3.0209,-3.0128,-2.9943,-2.9784,-2.9608,-2.9492,-2.9361,-2.9214,-2.9145,-2.9089,-2.9055,-2.901,-2.8998,-2.8987,-2.8987,-2.8987,-2.8987,-2.8987,-2.8994,-2.8947,-2.8858,-2.8822,-2.8767,-2.8718,-2.8682,-2.8669,-2.8657,-2.8619,-4.0798,-4.0175,-4.0198,-3.9793,-3.9193,-3.9109,-3.9281,-3.958,-3.9908,-4.012,-4.0261,-4.0392,-4.003,-3.9362,-3.9042,-3.8043,-3.6731,-3.5942,-3.55,-3.55,-3.55,-3.55,-3.55,-3.55,-3.55,-3.55,-3.55,-3.4949,-3.4141,-3.3436,-3.266,-3.1737,-3.1019,-3.0615,-3.0462,-3.0404,-3.0404,-3.0404,-3.0404,-3.0212,-2.9962,-2.9371,-2.8665,-2.7953,-2.7717,-2.764,-2.7621,-2.7717,-2.8195,-2.9102,-2.9168,-2.8909,-2.8676,-2.8578,-2.8856,-2.9711,-2.9858,-3.0215,-3.0703,-3.0879,-3.0898,-3.0898,-3.0918,-3.0918,-3.0918,-3.0918,-3.0918,-3.0996,-3.1035,-3.1211,-3.1172,-3.2282,-3.2626,-3.2766,-3.3282,-3.3105,-3.2442,-3.2613,-3.2094,-3.0814,-3.0404,-3.0404,-3.0404,-3.0404,-3.0404,-3.0379,-3.0342,-3.0292,-3.0202,-3.0102,-2.9946,-2.9817,-2.9688,-2.9551,-2.9385,-2.9267,-2.9222,-2.9123,-2.9067,-2.901,-2.8998,-2.8987,-2.8987,-2.8987,-2.8987,-2.8994,-2.8994,-2.894,-2.894,-2.8987,-2.8952,-2.887,-2.8893,-2.8975,-2.8893,-3.9318,-3.9168,-3.9202,-3.9114,-3.8983,-3.8984,-3.9137,-3.9389,-3.9705,-3.9924,-4.0039,-4.0167,-3.982,-3.9078,-3.8334,-3.7183,-3.6044,-3.5558,-3.55,-3.55,-3.55,-3.55,-3.55,-3.55,-3.55,-3.55,-3.5462,-3.5038,-3.4449,-3.3975,-3.3122,-3.1987,-3.1506,-3.1135,-3.0538,-3.0404,-3.0404,-3.0404,-3.0385,-3.0135,-2.964,-2.9333,-2.8915,-2.8236,-2.8198,-2.814,-2.8025,-2.8005,-2.828,-2.9017,-2.9105,-2.9461,-2.9805,-3.0047,-3.0232,-3.0381,-3.0443,-3.0572,-3.0772,-3.0816,-3.0837,-3.0897,-3.0918,-3.0918,-3.0918,-3.0918,-3.0918,-3.1094,-3.1504,-3.1934,-3.2031,-3.3124,-3.4039,-3.4361,-3.4516,-3.4496,-3.3313,-3.2787,-3.2314,-3.0755,-3.0471,-3.0404,-3.0404,-3.0404,-3.0404,-3.0404,-3.0373,-3.0348,-3.0317,-3.0241,-3.0135,-3.0015,-2.9904,-2.9739,-2.9579,-2.9454,-2.9351,-2.9206,-2.9138,-2.9051,-2.9028,-2.8987,-2.8987,-2.8987,-2.8987,-2.8987,-2.8987,-2.8987,-2.8987,-2.8987,-2.8987,-2.8987,-2.8987,-2.8987,-2.8964,-3.8822,-3.8792,-3.8837,-3.8822,-3.881,-3.8822,-3.8935,-3.9115,-3.9338,-3.9525,-3.9686,-3.9767,-3.921,-3.8328,-3.7875,-3.6829,-3.5799,-3.55,-3.55,-3.55,-3.55,-3.55,-3.55,-3.55,-3.55,-3.55,-3.5462,-3.5327,-3.4872,-3.4353,-3.3526,-3.2545,-3.1948,-3.125,-3.0577,-3.0404,-3.0404,-3.0404,-3.0365,-3.0212,-2.9794,-2.9737,-2.9467,-2.9294,-2.914,-2.9198,-2.9179,-2.9198,-2.939,-2.9717,-2.9794,-3.0034,-3.0335,-3.0543,-3.0625,-3.0678,-3.0701,-3.071,-3.0728,-3.074,-3.0789,-3.0855,-3.0878,-3.0898,-3.0918,-3.0918,-3.0996,-3.1152,-3.166,-3.2187,-3.2207,-3.3789,-3.4335,-3.4255,-3.4793,-3.4401,-3.3193,-3.273,-3.1798,-3.0776,-3.0502,-3.0406,-3.0404,-3.0404,-3.0404,-3.0404,-3.0404,-3.0404,-3.0404,-3.0343,-3.0248,-3.0162,-3.0052,-2.9939,-2.9784,-2.9644,-2.9504,-2.9365,-2.9206,-2.9134,-2.9051,-2.9021,-2.8998,-2.8987,-2.8987,-2.8987,-2.8987,-2.8987,-2.8987,-2.8987,-2.8987,-2.8987,-2.8987,-2.8975,-2.8964,-3.8707,-3.8707,-3.8707,-3.8707,-3.8707,-3.8707,-3.8747,-3.8892,-3.9045,-3.9208,-3.9313,-3.9219,-3.8512,-3.7471,-3.6948,-3.6362,-3.5472,-3.5467,-3.5474,-3.55,-3.55,-3.55,-3.55,-3.55,-3.55,-3.55,-3.55,-3.55,-3.5288,-3.4853,-3.3949,-3.2968,-3.216,-3.1371,-3.0635,-3.0404,-3.0404,-3.0404,-3.0404,-3.0404,-3.0404,-3.0404,-3.0404,-3.0404,-3.0404,-3.0308,-3.0192,-3.0173,-3.0192,-3.0288,-3.0327,-3.0377,-3.0386,-3.0449,-3.0511,-3.0554,-3.0567,-3.0619,-3.0675,-3.0708,-3.0749,-3.0804,-3.0856,-3.0957,-3.1289,-3.1484,-3.1562,-3.1543,-3.2246,-3.2851,-3.3144,-3.4121,-3.4551,-3.4453,-3.4588,-3.4406,-3.3156,-3.2398,-3.1926,-3.1154,-3.0666,-3.0425,-3.0419,-3.0404,-3.0404,-3.0404,-3.0404,-3.0404,-3.0404,-3.0373,-3.0311,-3.0267,-3.0181,-3.0092,-2.9981,-2.9859,-2.9715,-2.957,-2.9375,-2.9225,-2.9134,-2.9055,-2.9033,-2.901,-2.8987,-2.8987,-2.8987,-2.8987,-2.8987,-2.8987,-2.8987,-2.8987,-2.8987,-2.8987,-2.8975,-3.8707,-3.8707,-3.8707,-3.8707,-3.8707,-3.8707,-3.875,-3.8837,-3.896,-3.9073,-3.8975,-3.8538,-3.7847,-3.6915,-3.5808,-3.5397,-3.5331,-3.5398,-3.5446,-3.5493,-3.55,-3.55,-3.55,-3.55,-3.55,-3.55,-3.55,-3.55,-3.5442,-3.5308,-3.4449,-3.3237,-3.2718,-3.2,-3.0712,-3.0462,-3.0404,-3.0404,-3.0404,-3.0404,-3.0404,-3.0404,-3.0404,-3.0404,-3.0404,-3.0404,-3.0404,-3.0404,-3.0404,-3.0404,-3.0404,-3.0404,-3.039,-3.0396,-3.0402,-3.0449,-3.054,-3.0642,-3.0681,-3.0686,-3.0711,-3.078,-3.0807,-3.1227,-3.1757,-3.2461,-3.2832,-3.3144,-3.3809,-3.4141,-3.4219,-3.5156,-3.5605,-3.5508,-3.5273,-3.4626,-3.3485,-3.2437,-3.1924,-3.1225,-3.0622,-3.0482,-3.0447,-3.0414,-3.0404,-3.0404,-3.0404,-3.0404,-3.0404,-3.0373,-3.0373,-3.0311,-3.0292,-3.0208,-3.0128,-3.0015,-2.9907,-2.9767,-2.9551,-2.9353,-2.9267,-2.9171,-2.9067,-2.9033,-2.9033,-2.9033,-2.9044,-2.9044,-2.8998,-2.8987,-2.8987,-2.8987,-2.8987,-2.8987,-2.8987,-3.8707,-3.8707,-3.8707,-3.8707,-3.8707,-3.8707,-3.8723,-3.875,-3.8792,-3.8575,-3.8213,-3.79,-3.7175,-3.6115,-3.5153,-3.4963,-3.5163,-3.5289,-3.541,-3.5479,-3.5474,-3.5481,-3.55,-3.55,-3.55,-3.5474,-3.55,-3.55,-3.55,-3.5385,-3.4795,-3.3757,-3.3122,-3.2352,-3.1096,-3.0635,-3.0442,-3.0404,-3.0404,-3.0404,-3.0404,-3.0404,-3.0404,-3.0404,-3.0404,-3.0404,-3.0404,-3.0404,-3.0404,-3.0404,-3.0404,-3.0404,-3.0404,-3.0404,-3.0404,-3.0396,-3.0453,-3.0525,-3.0563,-3.0591,-3.0672,-3.0752,-3.0842,-3.1163,-3.2049,-3.2949,-3.3457,-3.3379,-3.418,-3.4648,-3.4883,-3.5508,-3.5508,-3.5508,-3.5547,-3.4453,-3.3496,-3.2871,-3.2064,-3.1307,-3.0725,-3.077,-3.0748,-3.0628,-3.0546,-3.0404,-3.0404,-3.0404,-3.0404,-3.0398,-3.0379,-3.0373,-3.0361,-3.0329,-3.0254,-3.0169,-3.0044,-2.9915,-2.9724,-2.9551,-2.9453,-2.9341,-2.9228,-2.9174,-2.9195,-2.9192,-2.9156,-2.9085,-2.904,-2.9017,-2.8987,-2.8987,-2.8987,-2.8987,-2.8987,-3.8707,-3.8707,-3.8707,-3.8707,-3.8707,-3.8707,-3.8707,-3.8707,-3.8707,-3.8264,-3.7547,-3.7059,-3.6196,-3.5324,-3.4798,-3.4743,-3.5016,-3.5168,-3.53,-3.5388,-3.5424,-3.5417,-3.541,-3.5424,-3.5439,-3.5453,-3.546,-3.5467,-3.55,-3.5404,-3.5045,-3.4199,-3.3628,-3.266,-3.1775,-3.1135,-3.075,-3.0404,-3.0404,-3.0404,-3.0404,-3.0404,-3.0404,-3.0404,-3.0404,-3.0404,-3.0404,-3.0404,-3.0404,-3.0404,-3.0404,-3.0404,-3.0404,-3.0404,-3.0404,-3.0404,-3.0408,-3.0444,-3.0485,-3.053,-3.0675,-3.0996,-3.1602,-3.2359,-3.2886,-3.3553,-3.4062,-3.4258,-3.4687,-3.5039,-3.5176,-3.5703,-3.5664,-3.5469,-3.5215,-3.4082,-3.3242,-3.3144,-3.2901,-3.2355,-3.1828,-3.1403,-3.1297,-3.0989,-3.0735,-3.0466,-3.0404,-3.0404,-3.0404,-3.0404,-3.0404,-3.0404,-3.0379,-3.0379,-3.0336,-3.026,-3.0162,-3.0052,-2.9883,-2.9769,-2.9662,-2.9551,-2.9446,-2.9407,-2.9405,-2.9385,-2.9365,-2.9203,-2.9051,-2.9051,-2.904,-2.8998,-2.8987,-2.8987,-2.8987,-3.8707,-3.8707,-3.8707,-3.8707,-3.8707,-3.8707,-3.8707,-3.8707,-3.8707,-3.8212,-3.7235,-3.6007,-3.4961,-3.442,-3.4428,-3.4534,-3.4812,-3.4936,-3.5072,-3.5157,-3.5218,-3.5209,-3.5218,-3.5242,-3.5297,-3.5315,-3.5364,-3.5439,-3.5493,-3.5481,-3.4968,-3.4276,-3.4026,-3.3064,-3.2122,-3.1448,-3.0904,-3.0538,-3.0404,-3.0404,-3.0404,-3.0404,-3.0404,-3.0404,-3.0404,-3.0404,-3.0404,-3.0404,-3.0404,-3.0404,-3.0404,-3.0404,-3.0404,-3.0404,-3.0404,-3.0404,-3.0404,-3.0416,-3.0425,-3.0518,-3.096,-3.1934,-3.3018,-3.3828,-3.4054,-3.5142,-3.5674,-3.5502,-3.5563,-3.5703,-3.5801,-3.5937,-3.5859,-3.5762,-3.5469,-3.4941,-3.4316,-3.4199,-3.3922,-3.3426,-3.2861,-3.2279,-3.1779,-3.1456,-3.0869,-3.0568,-3.0404,-3.0404,-3.0404,-3.0404,-3.0404,-3.0404,-3.0404,-3.0404,-3.0404,-3.0336,-3.0273,-3.0182,-3.0044,-2.9962,-2.9891,-2.9782,-2.9652,-2.9652,-2.9662,-2.9626,-2.9561,-2.9424,-2.9267,-2.9134,-2.9062,-2.9028,-2.8987,-2.8987,-2.8987,-3.8707,-3.8707,-3.8707,-3.8707,-3.8707,-3.8707,-3.8707,-3.8707,-3.8689,-3.7936,-3.6652,-3.5101,-3.4168,-3.4002,-3.4074,-3.4262,-3.4442,-3.458,-3.4753,-3.487,-3.4908,-3.4889,-3.4917,-3.4981,-3.5041,-3.5171,-3.5281,-3.541,-3.5493,-3.5467,-3.5385,-3.4968,-3.45,-3.3564,-3.2622,-3.1487,-3.0769,-3.0577,-3.0404,-3.0404,-3.0404,-3.0404,-3.0404,-3.0404,-3.0404,-3.0404,-3.0404,-3.0404,-3.0404,-3.0404,-3.0404,-3.0404,-3.0404,-3.0404,-3.0404,-3.0404,-3.0404,-3.0423,-3.0481,-3.0527,-3.0876,-3.1936,-3.3348,-3.4539,-3.472,-3.5388,-3.58,-3.5893,-3.5986,-3.5991,-3.5996,-3.5996,-3.5976,-3.6016,-3.584,-3.5469,-3.5215,-3.498,-3.4648,-3.4023,-3.3418,-3.283,-3.237,-3.1932,-3.127,-3.0674,-3.0513,-3.0404,-3.0404,-3.0404,-3.0404,-3.0404,-3.0404,-3.0404,-3.0404,-3.0379,-3.0367,-3.0292,-3.0196,-3.0142,-3.0071,-2.9977,-2.9872,-2.9899,-2.9891,-2.9851,-2.9767,-2.9626,-2.9464,-2.9289,-2.9134,-2.8998,-2.8987,-2.8998,-2.8987,-3.8707,-3.8707,-3.8707,-3.8707,-3.8707,-3.8707,-3.8707,-3.8652,-3.8414,-3.7422,-3.5826,-3.4431,-3.3807,-3.3847,-3.3921,-3.4055,-3.4189,-3.4318,-3.4461,-3.4559,-3.463,-3.4609,-3.4632,-3.4714,-3.486,-3.5009,-3.516,-3.5269,-3.5395,-3.5424,-3.5374,-3.5189,-3.4833,-3.4013,-3.2679,-3.1327,-3.0423,-3.0404,-3.0404,-3.0404,-3.0404,-3.0404,-3.0404,-3.0404,-3.0404,-3.0404,-3.0404,-3.0404,-3.0404,-3.0404,-3.0404,-3.0404,-3.0404,-3.0404,-3.0404,-3.0404,-3.0423,-3.0481,-3.0731,-3.1139,-3.1595,-3.2808,-3.396,-3.4717,-3.4995,-3.5428,-3.5803,-3.5862,-3.5926,-3.5984,-3.5995,-3.6016,-3.6016,-3.6016,-3.6016,-3.5742,-3.5527,-3.5312,-3.498,-3.457,-3.418,-3.4015,-3.3271,-3.2759,-3.1681,-3.0989,-3.0519,-3.041,-3.0404,-3.0404,-3.0404,-3.0404,-3.0404,-3.0404,-3.0404,-3.0379,-3.0373,-3.0367,-3.0299,-3.028,-3.0208,-3.0121,-3.0107,-3.0128,-3.0114,-3.0078,-2.9996,-2.9859,-2.9635,-2.9394,-2.9238,-2.9123,-2.9067,-2.9067,-2.904,-3.8707,-3.8707,-3.8707,-3.8707,-3.8707,-3.8707,-3.8707,-3.8579,-3.7841,-3.6615,-3.5169,-3.4174,-3.3807,-3.382,-3.3868,-3.3954,-3.4055,-3.4142,-3.4257,-3.4321,-3.4344,-3.4367,-3.442,-3.448,-3.4609,-3.4783,-3.4908,-3.5037,-3.5201,-3.5234,-3.5254,-3.5265,-3.4976,-3.4403,-3.2891,-3.1269,-3.0481,-3.0423,-3.05,-3.0519,-3.0404,-3.0404,-3.0404,-3.0404,-3.0404,-3.0404,-3.0404,-3.0404,-3.0404,-3.0404,-3.0404,-3.0404,-3.0404,-3.0404,-3.0404,-3.0404,-3.0404,-3.0788,-3.1583,-3.2422,-3.3163,-3.3807,-3.4701,-3.5294,-3.5544,-3.573,-3.5761,-3.5772,-3.586,-3.5923,-3.5964,-3.6013,-3.6014,-3.6016,-3.6016,-3.5976,-3.5762,-3.5664,-3.5351,-3.5195,-3.5508,-3.5543,-3.4608,-3.3631,-3.2308,-3.1389,-3.0681,-3.0504,-3.0722,-3.0652,-3.0754,-3.0621,-3.0602,-3.0404,-3.0404,-3.0404,-3.0398,-3.0398,-3.0392,-3.0349,-3.0343,-3.0299,-3.0299,-3.0349,-3.0299,-3.0241,-3.0188,-3.0121,-2.9875,-2.9616,-2.9404,-2.9286,-2.9211,-2.9134,-2.9089,-3.8707,-3.8707,-3.8707,-3.8707,-3.8707,-3.8707,-3.8707,-3.8469,-3.7312,-3.6064,-3.5023,-3.4156,-3.3807,-3.382,-3.3815,-3.3868,-3.3895,-3.3908,-3.3985,-3.4011,-3.4018,-3.3979,-3.4061,-3.4185,-3.4298,-3.4409,-3.454,-3.4704,-3.487,-3.4954,-3.506,-3.5087,-3.4901,-3.432,-3.3622,-3.2564,-3.191,-3.1391,-3.1237,-3.1038,-3.05,-3.0423,-3.0404,-3.0404,-3.0404,-3.0404,-3.0404,-3.0404,-3.0404,-3.0404,-3.0404,-3.0404,-3.0404,-3.0404,-3.0404,-3.0404,-3.0442,-3.1077,-3.2237,-3.3231,-3.3846,-3.4449,-3.4988,-3.5527,-3.5578,-3.5612,-3.5649,-3.5691,-3.5787,-3.5855,-3.5924,-3.5983,-3.5996,-3.6016,-3.6016,-3.6016,-3.5918,-3.5918,-3.5801,-3.5762,-3.5937,-3.5584,-3.4874,-3.4466,-3.3351,-3.2872,-3.2363,-3.2028,-3.2118,-3.1631,-3.1441,-3.1118,-3.0927,-3.0583,-3.0404,-3.0404,-3.0404,-3.0398,-3.0398,-3.0392,-3.0398,-3.0404,-3.0398,-3.0367,-3.0392,-3.0392,-3.0292,-3.0208,-3.0071,-2.9859,-2.9689,-2.9474,-2.9361,-2.9257,-2.9138,-3.8707,-3.867,-3.8395,-3.8285,-3.8322,-3.8579,-3.8432,-3.7734,-3.6431,-3.5367,-3.4582,-3.4009,-3.3807,-3.3807,-3.3807,-3.3807,-3.3807,-3.3807,-3.382,-3.3807,-3.382,-3.3847,-3.3873,-3.3908,-3.408,-3.4153,-3.4272,-3.4439,-3.4609,-3.4694,-3.487,-3.4937,-3.4718,-3.4671,-3.4215,-3.3493,-3.2583,-3.2083,-3.1833,-3.141,-3.0942,-3.0654,-3.0404,-3.0404,-3.0404,-3.0404,-3.0404,-3.0404,-3.0404,-3.0404,-3.0404,-3.0404,-3.0404,-3.0404,-3.0404,-3.0404,-3.1154,-3.175,-3.2776,-3.4103,-3.459,-3.4783,-3.525,-3.5462,-3.5494,-3.5541,-3.5589,-3.5634,-3.5712,-3.579,-3.5866,-3.5919,-3.5976,-3.5976,-3.5996,-3.5996,-3.6016,-3.6016,-3.6016,-3.6016,-3.5957,-3.5527,-3.5232,-3.4951,-3.4438,-3.4287,-3.4143,-3.3779,-3.3301,-3.2614,-3.2046,-3.1733,-3.1201,-3.0704,-3.0462,-3.0404,-3.0404,-3.0404,-3.0462,-3.0519,-3.0404,-3.0404,-3.0404,-3.0404,-3.0398,-3.0392,-3.0355,-3.0273,-3.0188,-3.0126,-3.003,-2.9803,-2.9542,-2.9414,-2.9301,-3.8707,-3.8579,-3.7878,-3.7584,-3.7658,-3.812,-3.7569,-3.6248,-3.5426,-3.4601,-3.3825,-3.3862,-3.3807,-3.3807,-3.3807,-3.3807,-3.3807,-3.3807,-3.3807,-3.3807,-3.3807,-3.3807,-3.3834,-3.3868,-3.3941,-3.4061,-3.4148,-3.4203,-3.4374,-3.4502,-3.4693,-3.4927,-3.492,-3.4937,-3.4561,-3.4031,-3.3223,-3.2865,-3.2526,-3.2025,-3.1481,-3.0923,-3.0615,-3.0481,-3.0404,-3.0404,-3.0404,-3.0404,-3.0404,-3.0404,-3.0404,-3.0404,-3.0404,-3.0404,-3.0404,-3.0788,-3.1872,-3.2564,-3.3083,-3.4385,-3.5173,-3.5231,-3.5385,-3.5481,-3.5494,-3.5521,-3.5547,-3.5595,-3.5653,-3.572,-3.5785,-3.586,-3.5937,-3.5957,-3.5976,-3.5996,-3.6016,-3.6016,-3.6016,-3.6016,-3.6016,-3.582,-3.5781,-3.5541,-3.5195,-3.5235,-3.5038,-3.472,-3.4134,-3.3117,-3.2628,-3.2338,-3.1706,-3.0851,-3.0666,-3.0852,-3.0769,-3.0885,-3.075,-3.075,-3.0596,-3.0404,-3.0404,-3.0404,-3.0404,-3.0379,-3.0367,-3.0367,-3.0361,-3.0305,-3.0207,-3.0034,-2.9767,-2.9653,-2.9542,-3.8707,-3.867,-3.8469,-3.8028,-3.7401,-3.6472,-3.5775,-3.5353,-3.5059,-3.4546,-3.3807,-3.3807,-3.3807,-3.3807,-3.3807,-3.3807,-3.3807,-3.3807,-3.3807,-3.3807,-3.3807,-3.3807,-3.382,-3.3834,-3.3855,-3.3881,-3.3921,-3.3954,-3.403,-3.4196,-3.4405,-3.4572,-3.4793,-3.4889,-3.4827,-3.4615,-3.4152,-3.3754,-3.3403,-3.2776,-3.2025,-3.1448,-3.1,-3.0654,-3.0423,-3.0423,-3.0404,-3.0404,-3.0404,-3.0404,-3.0404,-3.0404,-3.0404,-3.0404,-3.0423,-3.0577,-3.1795,-3.2929,-3.3199,-3.4526,-3.55,-3.55,-3.55,-3.55,-3.5488,-3.5494,-3.5521,-3.5554,-3.5589,-3.5654,-3.5715,-3.5787,-3.5855,-3.5919,-3.5941,-3.5996,-3.5996,-3.6016,-3.6016,-3.6016,-3.6016,-3.6016,-3.6016,-3.5937,-3.5664,-3.5879,-3.5834,-3.5492,-3.4961,-3.3941,-3.3355,-3.3081,-3.2188,-3.1323,-3.1574,-3.1813,-3.1551,-3.1371,-3.1218,-3.0987,-3.0692,-3.0519,-3.0442,-3.0404,-3.0404,-3.0404,-3.0398,-3.0404,-3.0404,-3.0373,-3.0292,-3.0148,-3.0007,-2.9894,-2.9777,-3.8707,-3.8652,-3.834,-3.7569,-3.6431,-3.5426,-3.4857,-3.4582,-3.4527,-3.4229,-3.3844,-3.3807,-3.3807,-3.3807,-3.3807,-3.3807,-3.3807,-3.3807,-3.3807,-3.3807,-3.3807,-3.3807,-3.3807,-3.3807,-3.382,-3.3807,-3.3807,-3.3847,-3.3868,-3.4012,-3.4225,-3.4348,-3.4513,-3.4612,-3.4688,-3.4756,-3.4736,-3.4462,-3.4124,-3.357,-3.2891,-3.2064,-3.1371,-3.1,-3.0712,-3.05,-3.0462,-3.0481,-3.0442,-3.0404,-3.0404,-3.0404,-3.0404,-3.0404,-3.0404,-3.0692,-3.1923,-3.2718,-3.3179,-3.4526,-3.5231,-3.55,-3.55,-3.55,-3.55,-3.5488,-3.5494,-3.5515,-3.5541,-3.5583,-3.5629,-3.5688,-3.5774,-3.587,-3.5921,-3.5982,-3.5996,-3.6016,-3.6016,-3.6016,-3.6016,-3.6016,-3.6016,-3.6016,-3.6016,-3.5996,-3.5996,-3.5876,-3.5417,-3.4726,-3.4261,-3.4006,-3.2897,-3.1844,-3.2284,-3.2619,-3.2242,-3.1922,-3.1641,-3.1352,-3.0929,-3.0577,-3.0442,-3.0404,-3.0404,-3.0404,-3.0404,-3.0404,-3.0404,-3.0373,-3.0373,-3.0286,-3.0181,-3.0097,-2.9973,-3.8643,-3.8569,-3.7753,-3.6597,-3.5206,-3.4986,-3.4472,-3.3844,-3.388,-3.3825,-3.3807,-3.3807,-3.3807,-3.3807,-3.3807,-3.3807,-3.3807,-3.3807,-3.3807,-3.3807,-3.3807,-3.3807,-3.3807,-3.3807,-3.3807,-3.3807,-3.3807,-3.3807,-3.386,-3.3972,-3.408,-3.4173,-3.4269,-3.4367,-3.448,-3.4622,-3.4661,-3.4704,-3.4519,-3.4133,-3.3724,-3.2833,-3.1852,-3.1673,-3.1231,-3.075,-3.0731,-3.0673,-3.0596,-3.0615,-3.0673,-3.0769,-3.0635,-3.0423,-3.0423,-3.1,-3.2135,-3.2833,-3.3487,-3.4673,-3.525,-3.55,-3.55,-3.55,-3.55,-3.55,-3.55,-3.5488,-3.5509,-3.5534,-3.5589,-3.5643,-3.5726,-3.5794,-3.5847,-3.5914,-3.5962,-3.5972,-3.6016,-3.6016,-3.6016,-3.6016,-3.6016,-3.6016,-3.6016,-3.6016,-3.6016,-3.6016,-3.5801,-3.5254,-3.5039,-3.4773,-3.3798,-3.2923,-3.3228,-3.3388,-3.2875,-3.2518,-3.2248,-3.1788,-3.1389,-3.0916,-3.0404,-3.0404,-3.0404,-3.0404,-3.0404,-3.0404,-3.0404,-3.0398,-3.0398,-3.0404,-3.033,-3.026,-3.02,-3.8303,-3.8259,-3.6976,-3.6227,-3.5826,-3.4614,-3.4009,-3.3807,-3.3807,-3.3807,-3.3807,-3.3807,-3.3807,-3.3807,-3.3807,-3.3807,-3.3807,-3.3807,-3.3807,-3.3807,-3.3807,-3.3807,-3.3807,-3.3807,-3.3807,-3.3807,-3.3807,-3.3807,-3.3834,-3.3873,-3.3881,-3.3926,-3.3985,-3.4074,-3.4197,-3.4337,-3.4489,-3.4678,-3.4769,-3.4523,-3.4086,-3.391,-3.3359,-3.2833,-3.2237,-3.2102,-3.2122,-3.2179,-3.2256,-3.2314,-3.2314,-3.2006,-3.1462,-3.0808,-3.0827,-3.1423,-3.2352,-3.3141,-3.3891,-3.475,-3.5346,-3.55,-3.55,-3.55,-3.55,-3.55,-3.5481,-3.5488,-3.5494,-3.5515,-3.5541,-3.5596,-3.5651,-3.5708,-3.5772,-3.5833,-3.5907,-3.5967,-3.5995,-3.6016,-3.6016,-3.6016,-3.6016,-3.6016,-3.6016,-3.6016,-3.6016,-3.6016,-3.6016,-3.5703,-3.5625,-3.5325,-3.4694,-3.4171,-3.4369,-3.4178,-3.3668,-3.3324,-3.3081,-3.2513,-3.1798,-3.1056,-3.0404,-3.0404,-3.0404,-3.0404,-3.0404,-3.0404,-3.0404,-3.0404,-3.0404,-3.0404,-3.0462,-3.0426,-3.0388,-3.7773,-3.7821,-3.6905,-3.6175,-3.5595,-3.4692,-3.4156,-3.3844,-3.3807,-3.3807,-3.3807,-3.3807,-3.3807,-3.3807,-3.3807,-3.3807,-3.3807,-3.3807,-3.3807,-3.3807,-3.3807,-3.3807,-3.3807,-3.3807,-3.3807,-3.3807,-3.3807,-3.3807,-3.3807,-3.382,-3.382,-3.3807,-3.382,-3.3842,-3.3972,-3.4099,-3.426,-3.4505,-3.4803,-3.4712,-3.437,-3.4237,-3.4038,-3.3513,-3.3179,-3.3064,-3.2891,-3.2891,-3.2891,-3.2891,-3.2795,-3.2352,-3.191,-3.1679,-3.1596,-3.1987,-3.2718,-3.3705,-3.4314,-3.4911,-3.5462,-3.55,-3.55,-3.55,-3.55,-3.55,-3.55,-3.5488,-3.5488,-3.5501,-3.5515,-3.5554,-3.5589,-3.5634,-3.5702,-3.579,-3.587,-3.5955,-3.5987,-3.6016,-3.6016,-3.6016,-3.6016,-3.6016,-3.6016,-3.6016,-3.6016,-3.6016,-3.6016,-3.6016,-3.5976,-3.5805,-3.516,-3.5059,-3.5224,-3.494,-3.446,-3.4163,-3.3824,-3.2513,-3.1416,-3.0856,-3.0404,-3.0498,-3.0498,-3.0404,-3.0404,-3.0448,-3.0404,-3.0404,-3.0404,-3.0404,-3.05,-3.0712,-3.0892,-3.7195,-3.7292,-3.6934,-3.6109,-3.5054,-3.483,-3.4417,-3.388,-3.3807,-3.3807,-3.3807,-3.3807,-3.3807,-3.3807,-3.3807,-3.3807,-3.3807,-3.3807,-3.3807,-3.3807,-3.3807,-3.3807,-3.3807,-3.3807,-3.3807,-3.3807,-3.3807,-3.3807,-3.3807,-3.3807,-3.3807,-3.3807,-3.382,-3.3829,-3.3889,-3.3992,-3.4142,-3.4333,-3.4567,-3.4753,-3.4658,-3.4577,-3.4412,-3.405,-3.3667,-3.3244,-3.3224,-3.3256,-3.3276,-3.3237,-3.3314,-3.2891,-3.2564,-3.2487,-3.2449,-3.2699,-3.334,-3.4071,-3.4584,-3.5103,-3.5385,-3.55,-3.55,-3.55,-3.55,-3.55,-3.55,-3.55,-3.55,-3.5488,-3.5501,-3.5495,-3.5534,-3.5589,-3.5649,-3.573,-3.5817,-3.5906,-3.5944,-3.5977,-3.5985,-3.5988,-3.6013,-3.6015,-3.6016,-3.6016,-3.6016,-3.6016,-3.6016,-3.6016,-3.5996,-3.5875,-3.5495,-3.5573,-3.5841,-3.5555,-3.5061,-3.4707,-3.4135,-3.2445,-3.1097,-3.0681,-3.051,-3.0706,-3.0681,-3.0585,-3.0543,-3.06,-3.0537,-3.0583,-3.0404,-3.0481,-3.0923,-3.1173,-3.1577,-3.6607,-3.6417,-3.5908,-3.5351,-3.4765,-3.421,-3.3881,-3.3825,-3.3807,-3.3807,-3.3807,-3.3807,-3.3807,-3.3807,-3.3807,-3.3807,-3.3807,-3.3807,-3.3807,-3.3807,-3.3807,-3.3807,-3.3807,-3.3807,-3.3807,-3.3807,-3.3807,-3.3807,-3.3807,-3.3807,-3.3807,-3.3807,-3.3807,-3.382,-3.3834,-3.3895,-3.3972,-3.4142,-3.4267,-3.4423,-3.4653,-3.4717,-3.5062,-3.4971,-3.4932,-3.4865,-3.4913,-3.4986,-3.5,-3.4814,-3.4314,-3.3878,-3.3551,-3.3295,-3.3276,-3.343,-3.4071,-3.4545,-3.5026,-3.5288,-3.55,-3.55,-3.55,-3.55,-3.55,-3.55,-3.55,-3.55,-3.55,-3.55,-3.5488,-3.5488,-3.5534,-3.556,-3.5599,-3.5664,-3.5745,-3.5765,-3.5786,-3.5853,-3.5896,-3.5931,-3.5985,-3.5991,-3.6016,-3.6016,-3.6016,-3.6016,-3.6016,-3.6016,-3.5976,-3.5879,-3.5723,-3.5833,-3.5971,-3.5898,-3.5519,-3.5176,-3.437,-3.2571,-3.1297,-3.068,-3.0608,-3.1014,-3.0984,-3.0853,-3.0827,-3.1017,-3.1049,-3.1076,-3.0602,-3.0577,-3.1115,-3.1737,-3.2218]},{"header":{"parameterUnit":"m.s-1","parameterCategory":1,"la1":31.0,"la2":29.5877,"lo1":-88.7671,"lo2":-86.6584,"dy":0.0162,"dx":0.0185,"nx":115,"ny":88,"refTime":"2026-04-13T12:00:00:Z","depth":0,"parameterNumber":3,"parameterNumberName":"V-component_of_WINDS"},"data":[0.0,0.0,0.0,0.0,0.0,0.0,0.0,0.0,0.0,0.0,0.0,0.0,0.0,0.0,0.0,0.0,0.0,0.0,0.0,0.0,0.0,0.0,0.0,0.0,0.0,0.0,0.0,0.0,0.0,0.0,0.0,0.0,0.0,0.0,0.0,0.0,0.0,0.0,0.0,0.0,0.0,0.0,0.0,0.0,0.0,0.0,0.0,0.0,0.0,0.0,0.0,0.0,0.0,0.0,0.0,0.0,0.0,0.0,0.0,0.0,0.0,0.0,0.0,0.0,0.0,0.0,0.0,0.0,0.0,0.0,0.0,0.0,0.0,0.0,0.0,0.0,0.0,0.0,0.0,0.0,0.0,0.0,0.0,0.0,0.0,0.0,0.0,0.0,0.0,0.0,0.0,0.0,0.0,0.0,0.0,0.0,0.0,0.0,0.0,0.0,0.0,0.0,0.0,0.0,0.0,0.0,0.0,0.0,0.0,0.0,0.0,0.0,0.0,0.0,0.0,0.0,0.0,0.0,0.0,0.0,0.0,0.0,0.0,0.0,0.0,0.0,0.0,0.0,0.0,0.0,0.0,0.0,0.0,0.0,0.0,0.0,0.0,0.0,0.0,0.0,0.0,0.0,0.0,0.0,0.0,0.0,0.0,0.0,0.0,0.0,0.0,0.0,0.0,0.0,0.0,0.0,0.0,0.0,0.0,0.0,0.0,0.0,0.0,0.0,0.0,0.0,0.0,0.0,0.0,0.0,0.0,0.0,0.0,0.0,0.0,0.0,0.0,0.0,0.0,0.0,0.0,0.0,0.0,0.0,0.0,0.0,0.0,0.0,0.0,0.0,0.0,0.0,0.0,0.0,0.0,0.0,0.0,0.0,0.0,0.0,0.0,0.0,0.0,0.0,0.0,0.0,0.0,0.0,0.0,0.0,0.0,0.0,0.0,0.0,0.0,0.0,0.0,0.0,0.0,0.0,0.0,0.0,0.0,0.0,0.0,0.0,0.0,0.0,0.0,0.0,0.0,0.0,0.0,0.0,0.0,0.0,0.0,0.0,0.0,0.0,0.0,0.0,0.0,0.0,0.0,0.0,0.0,0.0,0.0,0.0,0.0,0.0,0.0,0.0,0.0,0.0,0.0,0.0,0.0,0.0,0.0,0.0,0.0,0.0,0.0,0.0,0.0,0.0,0.0,0.0,0.0,0.0,0.0,0.0,0.0,0.0,0.0,0.0,0.0,0.0,0.0,0.0,0.0,0.0,0.0,0.0,0.0,0.0,0.0,0.0,0.0,0.0,0.0,0.0,0.0,0.0,0.0,0.0,0.0,0.0,0.0,0.0,0.0,0.0,0.0,0.0,0.0,0.0,0.0,0.0,0.0,0.0,0.0,0.0,0.0,0.0,0.0,0.0,0.0,0.0,0.0,0.0,0.0,0.0,0.0,0.0,0.0,0.0,0.0,0.0,0.0,0.0,0.0,0.0,0.0,0.0,0.0,0.0,0.0,0.0,0.0,0.0,0.0,0.0,0.0,0.0,0.0,0.0,0.0,0.0,0.0,0.0,0.0,0.0,0.0,0.0,0.0,0.0,0.0,0.0,0.0,0.0,0.0,0.0,0.0,0.0,0.0,0.0,0.0,0.0,0.0,0.0,0.0,0.0,0.0,0.0,0.0,0.0,0.0,0.0,0.0,0.0,0.0,0.0,0.0,0.0,0.0,0.0,0.0,0.0,0.0,0.0,0.0,0.0,0.0,0.0,0.0,0.0,0.0,0.0,0.0,0.0,0.0,0.0,0.0,0.0,0.0,0.0,0.0,0.0,0.0,0.0,0.0,0.0,0.0,0.0,0.0,0.0,0.0,0.0,0.0,0.0,0.0,0.0,0.0,0.0,0.0,0.0,0.0,0.0,0.0,0.0,0.0,0.0,0.0,0.0,0.0,0.0,0.0,0.0,0.0,0.0,0.0,0.0,0.0,0.0,0.0,0.0,0.0,0.0,0.0,0.0,0.0,0.0,0.0,0.0,0.0,0.0,0.0,0.0,0.0,0.0,0.0,0.0,0.0,0.0,0.0,0.0,0.0,0.0,0.0,0.0,0.0,0.0,0.0,0.0,0.0,0.0,0.0,0.0,0.0,0.0,0.0,0.0,0.0,0.0,0.0,0.0,0.0,0.0,0.0,0.0,0.0,0.0,0.0,0.0,0.0,0.0,0.0,0.0,0.0,0.0,0.0,0.0,0.0,0.0,0.0,0.0,0.0,0.0,0.0,0.0,0.0,0.0,0.0,0.0,0.0,0.0,0.0,0.0,0.0,0.0,0.0,0.0,0.0,0.0,0.0,0.0,0.0,0.0,0.0,0.0,0.0,0.0,0.0,0.0,0.0,0.0,0.0,0.0,0.0,0.0,0.0,0.0,0.0,0.0,0.0,0.0,0.0,0.0,0.0,0.0,0.0,0.0,0.0,0.0,0.0,0.0,0.0,0.0,0.0,0.0,0.0,0.0,0.0,0.0,0.0,0.0,0.0,0.0,0.0,0.0,0.0,0.0,0.0,0.0,0.0,0.0,0.0,0.0,0.0,0.0,0.0,0.0,0.0,0.0,0.0,0.0,0.0,0.0,0.0,0.0,0.0,0.0,0.0,0.0,0.0,0.0,0.0,0.0,0.0,0.0,0.0,0.0,0.0,0.0,0.0,0.0,0.0,0.0,0.0,0.0,0.0,0.0,0.0,0.0,0.0,0.0,0.0,0.0,0.0,0.0,0.0,0.0,0.0,0.0,0.0,0.0,0.0,0.0,0.0,0.0,0.0,0.0,0.0,0.0,0.0,0.0,0.0,0.0,0.0,0.0,0.0,0.0,0.0,0.0,0.0,0.0,0.0,0.0,0.0,0.0,0.0,0.0,0.0,0.0,0.0,0.0,0.0,0.0,0.0,0.0,0.0,0.0,0.0,0.0,0.0,0.0,0.0,0.0,0.0,0.0,0.0,0.0,0.0,0.0,0.0,0.0,0.0,0.0,0.0,0.0,0.0,0.0,0.0,0.0,0.0,0.0,0.0,0.0,0.0,0.0,0.0,0.0,0.0,0.0,0.0,0.0,0.0,0.0,0.0,0.0,0.0,0.0,0.0,0.0,0.0,0.0,0.0,0.0,0.0,0.0,0.0,0.0,0.0,0.0,0.0,0.0,0.0,0.0,0.0,0.0,0.0,0.0,0.0,0.0,0.0,0.0,0.0,0.0,0.0,0.0,0.0,0.0,0.0,0.0,0.0,0.0,0.0,0.0,0.0,0.0,0.0,0.0,0.0,0.0,0.0,0.0,0.0,0.0,0.0,0.0,0.0,0.0,0.0,0.0,0.0,0.0,0.0,0.0,0.0,0.0,0.0,0.0,0.0,0.0,0.0,0.0,0.0,0.0,0.0,0.0,0.0,0.0,0.0,0.0,0.0,0.0,0.0,0.0,0.0,0.0,0.0,0.0,0.0,0.0,0.0,0.0,0.0,0.0,0.0,0.0,0.0,0.0,0.0,0.0,0.0,0.0,0.0,0.0,0.0,0.0,0.0,0.0,0.0,0.0,0.0,0.0,0.0,0.0,0.0,0.0,0.0,0.0,0.0,0.0,0.0,0.0,0.0,0.0,0.0,0.0,0.0,0.0,0.0,0.0,0.0,0.0,0.0,0.0,0.0,0.0,0.0,0.0,0.0,0.0,0.0,0.0,0.0,0.0,0.0,0.0,0.0,0.0,0.0,0.0,0.0,0.0,0.0,0.0,0.0,0.0,0.0,0.0,0.0,0.0,0.0,0.0,0.0,0.0,0.0,0.0,0.0,0.0,0.0,0.0,0.0,0.0,0.0,0.0,0.0,0.0,0.0,0.0,0.0,0.0,0.0,0.0,0.0,0.0,0.0,0.0,0.0,0.0,0.0,0.0,0.0,0.0,0.0,0.0,0.0,0.0,0.0,0.0,0.0,0.0,0.0,0.0,0.0,0.0,0.0,0.0,0.0,0.0,0.0,0.0,0.0,0.0,0.0,0.0,0.0,0.0,0.0,0.0,0.0,0.0,0.0,0.0,0.0,0.0,0.0,0.0,0.0,0.0,0.0,0.0,0.0,0.0,0.0,0.0,0.0,0.0,0.0,0.0,0.0,0.0,0.0,0.0,0.0,0.0,0.0,0.0,0.0,0.0,0.0,0.0,0.0,0.0,0.0,0.0,0.0,0.0,0.0,0.0,0.0,0.0,0.0,0.0,0.0,0.0,0.0,0.0,0.0,0.0,0.0,0.0,-0.6732,0.0,0.0,0.0,0.0,0.0,0.0,0.0,0.0,0.0,0.0,0.0,0.0,0.0,0.0,0.0,0.0,0.0,0.0,0.0,0.0,0.0,0.0,0.0,0.0,0.0,0.0,0.0,0.0,0.0,0.0,0.0,0.0,0.0,0.0,0.0,0.0,0.0,0.0,0.0,0.0,0.0,0.0,0.0,0.0,0.0,0.0,0.0,0.0,0.0,0.0,0.0,0.0,0.0,0.0,0.0,0.0,0.0,0.0,0.0,0.0,0.0,0.0,0.0,0.0,0.0,0.0,0.0,0.0,0.0,0.0,0.0,0.0,0.0,0.0,0.0,0.0,0.0,0.0,0.0,0.0,0.0,0.0,0.0,0.0,0.0,0.0,0.0,0.0,0.0,0.0,0.0,0.0,0.0,0.0,0.0,0.0,0.0,0.0,0.0,0.0,0.0,0.0,0.0,0.0,0.0,0.0,0.0,0.0,0.0,0.0,-0.5947,-0.6605,-0.6662,-0.6686,-0.6698,0.0,0.0,0.0,0.0,0.0,0.0,0.0,0.0,0.0,0.0,0.0,0.0,0.0,0.0,0.0,0.0,0.0,0.0,0.0,0.0,0.0,0.0,0.0,0.0,0.0,0.0,0.0,0.0,0.0,0.0,0.0,0.0,0.0,0.0,0.0,0.0,0.0,0.0,0.0,0.0,0.0,0.0,0.0,0.0,0.0,0.0,0.0,0.0,0.0,0.0,0.0,0.0,0.0,0.0,0.0,0.0,0.0,0.0,0.0,0.0,0.0,0.0,0.0,0.0,0.0,0.0,0.0,0.0,0.0,0.0,0.0,0.0,0.0,0.0,0.0,0.0,0.0,0.0,0.0,0.0,0.0,0.0,0.0,0.0,0.0,0.0,0.0,0.0,0.0,0.0,0.0,0.0,0.0,0.0,0.0,0.0,0.0,0.0,0.0,0.0,0.0,0.0,0.0,0.0,0.0,0.0,0.0,0.0,0.0,0.0,0.0,0.0,-0.6905,-0.6719,-0.6647,0.0,0.0,0.0,0.0,0.0,0.0,0.0,0.0,0.0,0.0,0.0,0.0,0.0,0.0,0.0,0.0,0.0,0.0,0.0,0.0,0.0,0.0,0.0,0.0,0.0,0.0,0.0,0.0,0.0,0.0,0.0,0.0,0.0,0.0,0.0,0.0,0.0,0.0,0.0,0.0,0.0,0.0,0.0,0.0,0.0,0.0,0.0,0.0,0.0,0.0,0.0,0.0,0.0,0.0,0.0,0.0,0.0,0.0,0.0,0.0,0.0,0.0,0.0,0.0,0.0,0.0,0.0,0.0,0.0,0.0,0.0,0.0,0.0,0.0,0.0,0.0,0.0,0.0,0.0,0.0,0.0,0.0,0.0,0.0,0.0,0.0,0.0,0.0,0.0,0.0,0.0,0.0,0.0,0.0,0.0,0.0,0.0,0.0,0.0,0.0,0.0,0.0,0.0,0.0,0.0,0.0,0.0,0.0,0.0,0.0,-0.6943,-0.7339,-0.7061,0.0,-0.6508,0.0,0.0,0.0,0.0,0.0,0.0,0.0,0.0,0.0,0.0,0.0,0.0,0.0,0.0,0.0,0.0,0.0,0.0,0.0,0.0,0.0,0.0,0.0,0.0,0.0,0.0,0.0,0.0,0.0,0.0,0.0,0.0,0.0,0.0,0.0,0.0,0.0,0.0,0.0,0.0,0.0,0.0,0.0,0.0,0.0,0.0,0.0,0.0,0.0,0.0,0.0,0.0,0.0,0.0,0.0,0.0,0.0,0.0,0.0,0.0,0.0,0.0,0.0,0.0,0.0,0.0,0.0,0.0,0.0,0.0,0.0,0.0,0.0,0.0,0.0,0.0,0.0,0.0,0.0,0.0,0.0,0.0,0.0,0.0,0.0,0.0,0.0,0.0,0.0,0.0,0.0,0.0,0.0,0.0,0.0,0.0,0.0,0.0,0.0,0.0,0.0,0.0,0.0,0.0,0.0,0.0,0.0,0.0,0.0,0.0,-0.7262,-0.7506,-0.7132,-0.6746,0.0,0.0,0.0,0.0,0.0,0.0,0.0,0.0,0.0,0.0,0.0,0.0,0.0,0.0,0.0,0.0,0.0,0.0,0.0,0.0,0.0,0.0,0.0,0.0,0.0,0.0,0.0,0.0,0.0,0.0,0.0,0.0,0.0,0.0,0.0,0.0,0.0,0.0,0.0,0.0,0.0,0.0,0.0,0.0,0.0,0.0,0.0,0.0,0.0,0.0,0.0,0.0,0.0,0.0,0.0,0.0,0.0,0.0,0.0,0.0,0.0,0.0,0.0,0.0,0.0,0.0,0.0,0.0,0.0,0.0,0.0,0.0,0.0,0.0,0.0,0.0,0.0,0.0,0.0,0.0,0.0,0.0,0.0,0.0,0.0,0.0,0.0,0.0,0.0,0.0,0.0,0.0,0.0,0.0,0.0,0.0,0.0,0.0,0.0,0.0,0.0,0.0,0.0,0.0,0.0,0.0,0.0,0.0,0.0,0.0,-0.7115,0.0,-0.7394,-0.7055,-0.6719,-0.6313,0.0,0.0,0.0,0.0,0.0,0.0,0.0,0.0,0.0,0.0,0.0,0.0,0.0,0.0,0.0,0.0,0.0,0.0,0.0,0.0,0.0,0.0,0.0,0.0,0.0,0.0,0.0,0.0,0.0,0.0,0.0,0.0,0.0,0.0,0.0,0.0,0.0,0.0,0.0,0.0,0.0,0.0,0.0,0.0,0.0,0.0,0.0,0.0,0.0,0.0,0.0,0.0,0.0,0.0,0.0,0.0,0.0,0.0,0.0,0.0,0.0,0.0,0.0,0.0,0.0,0.0,0.0,0.0,0.0,0.0,0.0,0.0,0.0,0.0,0.0,0.0,0.0,0.0,0.0,0.0,0.0,0.0,0.0,0.0,0.0,0.0,0.0,0.0,0.0,0.0,0.0,0.0,0.0,0.0,0.0,0.0,0.0,0.0,0.0,0.0,0.0,0.0,0.0,0.0,0.0,0.0,0.0,0.0,0.0,-0.6871,-0.6913,-0.6927,-0.6896,-0.6715,0.0,0.0,0.0,0.0,0.0,0.0,0.0,0.0,0.0,0.0,0.0,0.0,0.0,0.0,0.0,0.0,0.0,0.0,0.0,0.0,0.0,0.0,0.0,0.0,0.0,0.0,0.0,0.0,0.0,0.0,0.0,0.0,0.0,0.0,0.0,0.0,0.0,0.0,0.0,0.0,0.0,0.0,0.0,0.0,0.0,0.0,0.0,0.0,0.0,0.0,0.0,0.0,0.0,0.0,0.0,0.0,0.0,0.0,0.0,0.0,0.0,0.0,0.0,0.0,0.0,0.0,0.0,0.0,0.0,0.0,0.0,0.0,0.0,0.0,0.0,0.0,0.0,0.0,0.0,0.0,0.0,0.0,0.0,0.0,0.0,0.0,0.0,0.0,0.0,0.0,0.0,0.0,0.0,0.0,0.0,0.0,0.0,0.0,0.0,0.0,0.0,0.0,0.0,0.0,0.0,0.0,0.0,0.0,0.0,-0.6566,-0.6885,-0.6977,-0.6886,-0.6742,-0.6471,0.0,0.0,0.0,0.0,0.0,0.0,0.0,0.0,0.0,0.0,0.0,0.0,0.0,0.0,0.0,0.0,0.0,0.0,0.0,0.0,0.0,0.0,0.0,0.0,0.0,0.0,0.0,0.0,0.0,0.0,0.0,0.0,0.0,0.0,0.0,0.0,0.0,0.0,0.0,0.0,0.0,0.0,0.0,0.0,0.0,0.0,0.0,0.0,0.0,0.0,0.0,0.0,0.0,0.0,0.0,0.0,0.0,0.0,0.0,0.0,0.0,0.0,0.0,0.0,0.0,0.0,0.0,0.0,0.0,0.0,0.0,0.0,0.0,0.0,0.0,0.0,0.0,0.0,0.0,0.0,0.0,0.0,0.0,0.0,0.0,0.0,0.0,0.0,0.0,0.0,0.0,0.0,0.0,0.0,0.0,0.0,0.0,0.0,0.0,0.0,0.0,0.0,0.0,0.0,0.0,0.0,0.0,0.0,0.0,-0.6556,0.0,-0.7058,0.0,-0.6648,-0.6312,0.0,0.0,0.0,0.0,0.0,0.0,0.0,0.0,0.0,0.0,0.0,0.0,0.0,0.0,0.0,0.0,0.0,0.0,0.0,0.0,0.0,0.0,0.0,0.0,0.0,0.0,0.0,0.0,0.0,0.0,0.0,0.0,0.0,0.0,0.0,0.0,0.0,0.0,0.0,0.0,0.0,0.0,0.0,0.0,0.0,0.0,0.0,0.0,0.0,0.0,0.0,0.0,0.0,0.0,0.0,0.0,0.0,0.0,0.0,0.0,0.0,0.0,0.0,0.0,0.0,0.0,0.0,0.0,0.0,0.0,0.0,0.0,0.0,0.0,0.0,0.0,0.0,0.0,0.0,0.0,0.0,0.0,0.0,0.0,0.0,0.0,0.0,0.0,0.0,0.0,0.0,0.0,0.0,0.0,0.0,0.0,0.0,0.0,0.0,0.0,0.0,0.0,0.0,0.0,0.0,0.0,0.0,0.0,-0.6413,-0.6705,-0.7132,-0.7149,-0.6722,-0.6593,-0.63,0.0,0.0,0.0,0.0,0.0,0.0,0.0,0.0,0.0,0.0,0.0,0.0,0.0,0.0,0.0,0.0,0.0,0.0,0.0,0.0,0.0,0.0,0.0,0.0,0.0,0.0,0.0,0.0,0.0,0.0,0.0,0.0,0.0,0.0,0.0,0.0,0.0,0.0,0.0,0.0,0.0,0.0,0.0,0.0,0.0,0.0,0.0,0.0,0.0,0.0,0.0,0.0,0.0,0.0,0.0,0.0,0.0,0.0,0.0,0.0,0.0,0.0,0.0,0.0,0.0,0.0,0.0,0.0,0.0,0.0,0.0,0.0,0.0,0.0,0.0,0.0,0.0,0.0,0.0,0.0,0.0,0.0,0.0,0.0,0.0,0.0,0.0,0.0,0.0,0.0,0.0,0.0,0.0,0.0,0.0,0.0,0.0,0.0,0.0,0.0,0.0,0.0,0.0,0.0,0.0,0.0,0.0,0.0,0.0,-0.6861,-0.7088,-0.7099,-0.6815,-0.6552,-0.6252,0.0,0.0,0.0,0.0,0.0,0.0,0.0,0.0,0.0,0.0,0.0,0.0,0.0,0.0,0.0,0.0,0.0,0.0,0.0,0.0,0.0,0.0,0.0,0.0,0.0,0.0,0.0,0.0,0.0,0.0,0.0,0.0,0.0,0.0,0.0,0.0,0.0,0.0,0.0,0.0,0.0,0.0,0.0,0.0,0.0,0.0,0.0,0.0,0.0,0.0,0.0,0.0,0.0,0.0,0.0,0.0,0.0,0.0,0.0,0.0,0.0,0.0,0.0,0.0,0.0,0.0,0.0,0.0,0.0,0.0,0.0,0.0,0.0,0.0,0.0,0.0,0.0,0.0,0.0,0.0,0.0,0.0,0.0,0.0,0.0,0.0,0.0,0.0,0.0,0.0,0.0,0.0,0.0,0.0,0.0,0.0,0.0,0.0,0.0,0.0,0.0,0.0,0.0,0.0,0.0,0.0,0.0,0.0,0.0,-0.7206,-0.7355,-0.7307,-0.7102,-0.6712,-0.6359,-0.5993,0.0,0.0,0.0,0.0,0.0,0.0,0.0,0.0,0.0,0.0,0.0,0.0,0.0,0.0,0.0,0.0,0.0,0.0,0.0,0.0,0.0,0.0,0.0,0.0,0.0,0.0,0.0,0.0,0.0,0.0,0.0,0.0,0.0,0.0,0.0,0.0,0.0,0.0,0.0,0.0,0.0,0.0,0.0,0.0,0.0,0.0,0.0,0.0,0.0,0.0,0.0,0.0,0.0,0.0,0.0,0.0,0.0,0.0,0.0,0.0,0.0,0.0,0.0,0.0,0.0,0.0,0.0,0.0,0.0,0.0,0.0,0.0,0.0,0.0,0.0,0.0,0.0,0.0,0.0,0.0,0.0,0.0,0.0,0.0,0.0,0.0,0.0,0.0,0.0,0.0,0.0,0.0,0.0,0.0,0.0,0.0,0.0,0.0,0.0,0.0,0.0,0.0,0.0,0.0,0.0,0.0,0.0,0.0,-0.7831,-0.7961,-0.7879,-0.7467,-0.7112,-0.6633,0.0,0.0,0.0,0.0,0.0,0.0,0.0,0.0,0.0,0.0,0.0,0.0,0.0,0.0,0.0,0.0,0.0,0.0,0.0,0.0,0.0,0.0,0.0,0.0,0.0,0.0,0.0,0.0,0.0,0.0,0.0,0.0,0.0,0.0,0.0,0.0,0.0,0.0,0.0,0.0,0.0,0.0,0.0,0.0,0.0,0.0,0.0,0.0,0.0,0.0,0.0,0.0,0.0,0.0,0.0,0.0,0.0,0.0,0.0,0.0,0.0,0.0,0.0,0.0,0.0,0.0,0.0,0.0,0.0,0.0,0.0,0.0,0.0,0.0,0.0,0.0,0.0,0.0,0.0,0.0,0.0,0.0,0.0,0.0,0.0,0.0,0.0,0.0,0.0,0.0,0.0,0.0,0.0,0.0,0.0,0.0,0.0,0.0,0.0,0.0,0.0,0.0,0.0,0.0,0.0,0.0,0.0,0.0,0.0,-0.8136,-0.8615,-0.854,-0.7889,-0.7468,-0.7027,0.0,0.0,0.0,0.0,0.0,0.0,0.0,0.0,0.0,0.0,0.0,0.0,0.0,0.0,0.0,0.0,0.0,0.0,0.0,0.0,0.0,0.0,0.0,0.0,0.0,0.0,0.0,0.0,0.0,0.0,0.0,0.0,0.0,0.0,0.0,0.0,0.0,0.0,0.0,0.0,0.0,0.0,0.0,0.0,0.0,0.0,0.0,0.0,0.0,0.0,0.0,0.0,0.0,0.0,0.0,0.0,0.0,0.0,0.0,0.0,0.0,0.0,0.0,0.0,0.0,0.0,0.0,0.0,0.0,0.0,0.0,0.0,0.0,0.0,0.0,0.0,0.0,0.0,0.0,0.0,0.0,0.0,0.0,0.0,0.0,0.0,0.0,0.0,0.0,0.0,0.0,0.0,0.0,0.0,0.0,0.0,0.0,0.0,0.0,0.0,0.0,0.0,0.0,0.0,0.0,0.0,0.0,0.0,-0.7804,-0.8402,-0.906,-0.9018,-0.8285,-0.7824,-0.7285,0.0,0.0,0.0,0.0,0.0,0.0,0.0,0.0,0.0,0.0,0.0,0.0,0.0,0.0,0.0,0.0,0.0,0.0,0.0,0.0,0.0,0.0,0.0,0.0,0.0,0.0,0.0,0.0,0.0,0.0,0.0,0.0,0.0,0.0,0.0,0.0,0.0,0.0,0.0,0.0,0.0,0.0,0.0,0.0,0.0,0.0,0.0,0.0,0.0,0.0,0.0,0.0,0.0,0.0,0.0,0.0,0.0,0.0,0.0,0.0,0.0,0.0,0.0,0.0,0.0,0.0,0.0,0.0,0.0,0.0,0.0,0.0,0.0,0.0,0.0,0.0,0.0,0.0,0.0,0.0,0.0,0.0,0.0,0.0,0.0,0.0,0.0,0.0,0.0,0.0,0.0,0.0,0.0,0.0,0.0,0.0,0.0,0.0,0.0,0.0,0.0,0.0,0.0,0.0,0.0,0.0,0.0,0.0,-0.7902,-0.8476,-0.9188,-0.9289,-0.8723,-0.8157,-0.7509,0.0,0.0,0.0,0.0,0.0,0.0,0.0,0.0,0.0,0.0,0.0,0.0,0.0,0.0,0.0,0.0,0.0,0.0,0.0,0.0,0.0,0.0,0.0,0.0,0.0,0.0,0.0,0.0,0.0,0.0,0.0,0.0,0.0,0.0,0.0,0.0,0.0,0.0,0.0,0.0,0.0,0.0,0.0,0.0,0.0,0.0,0.0,0.0,0.0,0.0,0.0,0.0,0.0,0.0,0.0,0.0,0.0,0.0,0.0,0.0,0.0,0.0,0.0,0.0,0.0,0.0,0.0,0.0,0.0,0.0,0.0,0.0,0.0,0.0,0.0,0.0,0.0,0.0,0.0,0.0,0.0,0.0,0.0,0.0,0.0,0.0,0.0,0.0,0.0,0.0,0.0,0.0,0.0,0.0,0.0,0.0,0.0,0.0,0.0,0.0,0.0,0.0,0.0,0.0,0.0,0.0,0.0,0.0,-0.8001,-0.8476,-0.904,-0.9079,-0.872,-0.8364,-0.7818,0.0,0.0,0.0,0.0,0.0,0.0,0.0,0.0,0.0,0.0,0.0,0.0,0.0,0.0,0.0,0.0,0.0,0.0,0.0,0.0,0.0,0.0,0.0,0.0,0.0,0.0,0.0,0.0,0.0,0.0,0.0,0.0,0.0,0.0,0.0,0.0,0.0,0.0,0.0,0.0,0.0,0.0,0.0,0.0,0.0,0.0,0.0,0.0,-1.143,0.0,0.0,0.0,0.0,0.0,0.0,0.0,0.0,0.0,0.0,0.0,0.0,0.0,0.0,0.0,0.0,0.0,0.0,0.0,0.0,0.0,0.0,0.0,0.0,0.0,0.0,0.0,0.0,0.0,0.0,0.0,0.0,0.0,0.0,0.0,0.0,0.0,0.0,0.0,0.0,0.0,0.0,0.0,0.0,0.0,0.0,0.0,0.0,0.0,0.0,0.0,0.0,0.0,0.0,0.0,0.0,0.0,0.0,0.0,-0.8211,-0.8584,-0.9028,-0.9142,-0.8726,-0.8489,-0.7984,0.0,0.0,0.0,0.0,0.0,0.0,0.0,0.0,0.0,0.0,0.0,0.0,0.0,0.0,0.0,0.0,0.0,0.0,0.0,0.0,0.0,0.0,0.0,0.0,0.0,0.0,0.0,0.0,0.0,0.0,0.0,0.0,0.0,0.0,0.0,0.0,0.0,0.0,0.0,0.0,0.0,0.0,0.0,0.0,0.0,0.0,0.0,0.0,0.0,0.0,0.0,0.0,0.0,0.0,0.0,0.0,0.0,0.0,0.0,0.0,0.0,0.0,0.0,0.0,0.0,0.0,0.0,0.0,0.0,0.0,0.0,0.0,0.0,0.0,0.0,0.0,0.0,0.0,0.0,0.0,0.0,0.0,0.0,0.0,0.0,0.0,0.0,0.0,0.0,0.0,0.0,0.0,0.0,0.0,0.0,0.0,0.0,0.0,0.0,0.0,0.0,0.0,0.0,0.0,0.0,0.0,0.0,-0.7804,-0.8377,-0.8676,-0.9072,-0.9072,-0.8655,-0.8452,-0.7946,-0.7058,0.0,0.0,0.0,0.0,0.0,0.0,0.0,0.0,0.0,0.0,0.0,0.0,0.0,0.0,0.0,0.0,0.0,0.0,0.0,0.0,0.0,0.0,0.0,0.0,0.0,0.0,0.0,0.0,0.0,0.0,0.0,0.0,0.0,0.0,0.0,0.0,0.0,0.0,-0.9903,-1.0608,0.0,0.0,0.0,0.0,0.0,0.0,0.0,0.0,-1.1216,0.0,0.0,0.0,0.0,0.0,0.0,0.0,0.0,0.0,0.0,0.0,0.0,0.0,0.0,0.0,0.0,0.0,0.0,0.0,0.0,0.0,0.0,0.0,0.0,0.0,0.0,0.0,0.0,0.0,0.0,0.0,0.0,0.0,0.0,0.0,0.0,0.0,0.0,0.0,0.0,0.0,0.0,0.0,0.0,0.0,0.0,0.0,0.0,0.0,0.0,0.0,0.0,0.0,0.0,0.0,0.0,-0.7051,-0.7702,-0.8221,-0.8513,-0.8713,-0.8665,-0.835,-0.7953,-0.7438,-0.68,0.0,0.0,0.0,0.0,0.0,0.0,0.0,0.0,0.0,0.0,0.0,0.0,0.0,0.0,0.0,0.0,0.0,0.0,0.0,0.0,0.0,0.0,0.0,0.0,0.0,0.0,0.0,0.0,0.0,0.0,0.0,0.0,0.0,0.0,0.0,0.0,0.0,0.0,0.0,-1.1363,-1.163,0.0,0.0,0.0,0.0,0.0,0.0,0.0,0.0,-1.1303,0.0,0.0,0.0,0.0,0.0,0.0,0.0,0.0,0.0,0.0,0.0,0.0,0.0,0.0,0.0,0.0,0.0,0.0,0.0,0.0,0.0,0.0,0.0,0.0,0.0,0.0,0.0,0.0,0.0,0.0,0.0,0.0,0.0,0.0,0.0,0.0,0.0,0.0,0.0,0.0,0.0,0.0,0.0,0.0,0.0,0.0,0.0,0.0,0.0,0.0,0.0,0.0,0.0,0.0,0.0,-0.7082,-0.7814,-0.8228,-0.8374,-0.8591,-0.8492,-0.8045,-0.7675,-0.7211,0.0,0.0,0.0,0.0,0.0,0.0,0.0,0.0,0.0,0.0,0.0,0.0,0.0,0.0,0.0,0.0,0.0,0.0,0.0,0.0,0.0,0.0,0.0,0.0,0.0,0.0,0.0,0.0,0.0,0.0,0.0,0.0,0.0,0.0,0.0,0.0,0.0,0.0,0.0,0.0,-1.1817,-1.2098,-1.2147,0.0,0.0,0.0,0.0,0.0,0.0,-1.1269,-1.1223,0.0,0.0,0.0,0.0,0.0,0.0,0.0,0.0,0.0,0.0,0.0,0.0,0.0,0.0,0.0,0.0,0.0,0.0,0.0,0.0,0.0,0.0,0.0,0.0,0.0,0.0,0.0,0.0,0.0,0.0,0.0,0.0,0.0,0.0,0.0,0.0,0.0,0.0,0.0,0.0,0.0,0.0,0.0,0.0,0.0,0.0,0.0,0.0,0.0,0.0,0.0,0.0,0.0,0.0,0.0,-0.7088,-0.7824,-0.8211,-0.8327,-0.8499,-0.836,-0.7828,-0.7468,-0.6989,0.0,0.0,0.0,0.0,0.0,0.0,0.0,0.0,0.0,0.0,0.0,0.0,0.0,0.0,0.0,0.0,0.0,0.0,0.0,0.0,0.0,0.0,0.0,0.0,0.0,0.0,0.0,0.0,0.0,0.0,0.0,0.0,0.0,0.0,0.0,0.0,0.0,0.0,0.0,0.0,0.0,-1.2536,-1.2831,-1.2476,0.0,0.0,0.0,0.0,-1.1702,-1.1536,0.0,0.0,0.0,0.0,0.0,0.0,0.0,0.0,0.0,0.0,0.0,0.0,0.0,0.0,0.0,0.0,0.0,0.0,0.0,0.0,0.0,0.0,0.0,0.0,0.0,0.0,0.0,0.0,0.0,0.0,0.0,0.0,0.0,0.0,0.0,0.0,0.0,0.0,0.0,0.0,0.0,0.0,0.0,0.0,0.0,0.0,0.0,0.0,0.0,0.0,0.0,0.0,0.0,0.0,0.0,0.0,-0.7075,-0.7617,-0.7994,-0.8306,-0.8303,-0.8157,-0.7814,-0.7268,-0.6692,0.0,0.0,0.0,0.0,0.0,0.0,0.0,0.0,0.0,0.0,0.0,0.0,0.0,0.0,0.0,0.0,0.0,0.0,0.0,0.0,0.0,0.0,0.0,0.0,0.0,0.0,0.0,0.0,0.0,0.0,0.0,0.0,0.0,0.0,0.0,0.0,0.0,0.0,0.0,0.0,0.0,-1.2851,-1.312,-1.31,-1.3053,0.0,0.0,-1.269,-1.2959,-1.2746,0.0,0.0,0.0,0.0,0.0,0.0,0.0,0.0,0.0,0.0,0.0,0.0,0.0,0.0,0.0,0.0,0.0,0.0,0.0,0.0,0.0,0.0,0.0,0.0,0.0,0.0,0.0,0.0,0.0,0.0,0.0,0.0,0.0,0.0,0.0,0.0,0.0,0.0,0.0,0.0,0.0,0.0,0.0,0.0,0.0,0.0,0.0,0.0,0.0,0.0,0.0,0.0,0.0,0.0,0.0,-0.6203,-0.696,-0.7543,-0.7919,-0.8133,-0.8225,-0.8095,-0.7573,-0.7065,-0.6438,0.0,0.0,0.0,0.0,0.0,0.0,0.0,0.0,0.0,0.0,0.0,0.0,0.0,0.0,0.0,0.0,0.0,0.0,0.0,0.0,0.0,0.0,0.0,0.0,0.0,0.0,0.0,0.0,0.0,0.0,0.0,0.0,0.0,0.0,0.0,0.0,0.0,0.0,0.0,0.0,0.0,0.0,-1.3394,-1.342,0.0,0.0,0.0,-1.3053,-1.3186,0.0,0.0,0.0,0.0,0.0,0.0,0.0,0.0,0.0,0.0,0.0,0.0,0.0,0.0,0.0,0.0,0.0,0.0,0.0,0.0,0.0,0.0,0.0,0.0,0.0,0.0,0.0,0.0,0.0,0.0,0.0,0.0,0.0,0.0,0.0,0.0,0.0,0.0,0.0,0.0,0.0,0.0,0.0,0.0,0.0,0.0,0.0,0.0,0.0,0.0,0.0,0.0,0.0,0.0,0.0,0.0,0.0,-0.6822,-0.7458,-0.7831,-0.7931,-0.8133,-0.7963,-0.7444,-0.6993,0.0,0.0,0.0,0.0,0.0,0.0,0.0,0.0,0.0,0.0,0.0,0.0,0.0,0.0,0.0,0.0,0.0,0.0,0.0,0.0,0.0,0.0,0.0,0.0,0.0,0.0,0.0,-0.6865,0.0,0.0,0.0,0.0,0.0,0.0,0.0,0.0,0.0,0.0,0.0,0.0,0.0,0.0,-1.3085,-1.3533,-1.3726,-1.3793,0.0,0.0,-1.3514,-1.3514,-1.3541,-1.3485,0.0,0.0,0.0,0.0,0.0,0.0,0.0,0.0,0.0,0.0,0.0,0.0,0.0,0.0,0.0,0.0,0.0,0.0,0.0,0.0,0.0,0.0,0.0,0.0,0.0,0.0,0.0,0.0,0.0,0.0,0.0,0.0,0.0,0.0,0.0,0.0,0.0,0.0,0.0,0.0,0.0,0.0,0.0,0.0,0.0,0.0,0.0,0.0,0.0,0.0,0.0,0.0,0.0,0.0,0.0,-0.6705,-0.7309,-0.7682,-0.7824,-0.7974,-0.7906,-0.7587,-0.7146,-0.6556,0.0,0.0,0.0,0.0,0.0,0.0,0.0,0.0,0.0,0.0,0.0,0.0,0.0,0.0,0.0,0.0,0.0,0.0,0.0,0.0,0.0,0.0,0.0,0.0,0.0,0.0,0.0,0.0,0.0,0.0,0.0,0.0,0.0,0.0,0.0,0.0,0.0,0.0,0.0,0.0,0.0,-1.3293,-1.356,-1.4073,-1.4362,0.0,0.0,-1.4421,-1.4336,-1.4455,-1.4467,-1.4086,0.0,0.0,0.0,0.0,0.0,0.0,0.0,0.0,0.0,0.0,0.0,0.0,0.0,0.0,0.0,0.0,0.0,0.0,0.0,0.0,0.0,0.0,0.0,0.0,0.0,0.0,0.0,0.0,0.0,0.0,0.0,0.0,0.0,0.0,0.0,0.0,0.0,0.0,0.0,0.0,0.0,0.0,0.0,0.0,0.0,0.0,0.0,0.0,0.0,0.0,0.0,0.0,0.0,-0.5772,-0.6463,-0.7017,-0.7434,-0.7672,-0.774,-0.7668,-0.7511,-0.7112,-0.6573,0.0,0.0,0.0,0.0,0.0,0.0,0.0,0.0,0.0,0.0,0.0,0.0,0.0,0.0,0.0,0.0,0.0,0.0,0.0,0.0,0.0,0.0,0.0,0.0,0.0,0.0,0.0,0.0,-0.6993,-0.7093,-0.7326,0.0,0.0,0.0,0.0,0.0,0.0,0.0,0.0,0.0,0.0,-1.2826,-1.3267,-1.3881,0.0,0.0,-1.4182,-1.4276,-1.4289,-1.44,-1.4428,-1.4205,-1.3708,0.0,0.0,0.0,0.0,0.0,0.0,0.0,0.0,0.0,0.0,0.0,0.0,0.0,0.0,0.0,0.0,0.0,0.0,0.0,0.0,0.0,0.0,0.0,0.0,0.0,0.0,0.0,0.0,0.0,0.0,0.0,0.0,0.0,0.0,0.0,0.0,0.0,0.0,0.0,0.0,0.0,0.0,0.0,0.0,0.0,0.0,0.0,0.0,0.0,0.0,0.0,0.0,-0.5293,-0.5819,-0.6415,-0.6841,-0.7089,-0.7129,-0.7087,-0.6944,-0.6665,-0.6166,0.0,0.0,0.0,0.0,0.0,0.0,0.0,0.0,0.0,0.0,0.0,0.0,0.0,0.0,0.0,0.0,0.0,0.0,0.0,0.0,0.0,0.0,0.0,0.0,0.0,0.0,0.0,0.0,-0.7266,-0.72,-0.7026,0.0,0.0,0.0,0.0,0.0,0.0,0.0,0.0,0.0,0.0,-1.2726,-1.3153,-1.3781,-1.4188,-1.4102,-1.4162,-1.4243,-1.4301,-1.4482,-1.4577,-1.4606,0.0,0.0,0.0,0.0,0.0,0.0,0.0,0.0,0.0,0.0,0.0,0.0,0.0,0.0,0.0,0.0,0.0,0.0,0.0,0.0,0.0,0.0,0.0,0.0,0.0,0.0,0.0,0.0,0.0,0.0,0.0,0.0,0.0,0.0,0.0,0.0,0.0,0.0,0.0,0.0,0.0,0.0,0.0,0.0,0.0,0.0,0.0,0.0,0.0,0.0,0.0,0.0,0.0,-0.44,-0.4734,-0.5432,-0.5805,-0.5822,-0.61,-0.61,-0.5816,-0.5695,-0.5306,-0.4698,0.0,0.0,0.0,0.0,0.0,0.0,0.0,0.0,0.0,0.0,0.0,0.0,0.0,0.0,0.0,0.0,0.0,0.0,0.0,0.0,0.0,0.0,0.0,0.0,0.0,0.0,-0.7748,-0.7872,-0.7626,0.0,0.0,0.0,0.0,0.0,0.0,0.0,0.0,0.0,0.0,-1.2258,-1.3186,-1.3213,-1.3948,-1.4376,-1.4122,-1.4322,-1.4509,-1.4574,-1.4798,-1.5124,0.0,0.0,0.0,0.0,0.0,0.0,0.0,0.0,0.0,0.0,0.0,0.0,0.0,0.0,0.0,0.0,0.0,0.0,0.0,0.0,0.0,0.0,0.0,0.0,0.0,0.0,0.0,0.0,0.0,0.0,0.0,0.0,0.0,0.0,0.0,0.0,0.0,0.0,0.0,0.0,0.0,0.0,0.0,0.0,0.0,0.0,0.0,0.0,0.0,0.0,0.0,0.0,0.0,0.0,-0.3196,-0.3536,-0.3943,-0.4196,-0.4323,-0.4433,-0.4435,-0.4327,-0.4193,-0.3857,-0.3269,0.0,0.0,0.0,0.0,0.0,0.0,0.0,0.0,0.0,0.0,0.0,0.0,0.0,0.0,0.0,0.0,0.0,0.0,0.0,0.0,0.0,0.0,0.0,0.0,0.0,-0.6289,0.0,0.0,0.0,0.0,0.0,0.0,0.0,0.0,0.0,0.0,0.0,-0.99,-1.0868,-1.1931,-1.2752,-1.3153,-1.3627,-1.3933,0.0,0.0,0.0,0.0,0.0,0.0,0.0,0.0,0.0,0.0,0.0,0.0,0.0,0.0,-1.6484,-1.5791,-1.5429,-1.493,-1.3906,0.0,0.0,0.0,0.0,0.0,0.0,0.0,0.0,0.0,0.0,0.0,0.0,0.0,0.0,0.0,0.0,0.0,0.0,0.0,0.0,0.0,0.0,0.0,0.0,0.0,0.0,0.0,0.0,0.0,0.0,0.0,0.0,0.0,0.0,0.0,0.0,0.0,0.0,0.0,0.0,0.0,-0.2262,-0.2445,-0.2699,-0.2895,-0.3063,-0.3091,-0.3093,-0.3025,-0.291,-0.2603,-0.2196,-0.225,-0.2476,0.0,0.0,0.0,0.0,0.0,0.0,0.0,0.0,0.0,0.0,0.0,0.0,0.0,0.0,0.0,0.0,0.0,0.0,0.0,0.0,0.0,0.0,0.0,-0.6375,0.0,0.0,0.0,0.0,0.0,0.0,0.0,0.0,0.0,-0.8844,-0.9534,-1.0345,-1.1216,-1.2,-1.2677,-1.314,0.0,0.0,0.0,0.0,0.0,0.0,0.0,-1.5543,-1.6395,-1.667,-1.6975,-1.7519,-1.7734,-1.7812,-1.7822,0.0,0.0,-1.6894,-1.6652,-1.6251,-1.5196,-1.5146,-1.5059,-1.4502,-1.4609,-1.4816,0.0,0.0,0.0,0.0,0.0,0.0,0.0,0.0,0.0,0.0,0.0,0.0,0.0,0.0,0.0,0.0,0.0,0.0,0.0,0.0,0.0,0.0,0.0,0.0,0.0,0.0,0.0,0.0,0.0,0.0,0.0,0.0,0.0,0.0,0.0,0.0,-0.1492,-0.1546,-0.1777,-0.1945,-0.1948,-0.203,-0.2071,-0.194,-0.1739,-0.1616,-0.1538,-0.1743,-0.2034,-0.2433,-0.2591,0.0,0.0,0.0,0.0,0.0,0.0,0.0,0.0,0.0,0.0,0.0,0.0,0.0,0.0,0.0,0.0,0.0,0.0,0.0,0.0,-0.6213,0.0,0.0,0.0,0.0,0.0,0.0,0.0,0.0,0.0,0.0,-0.9693,-1.0258,-1.0935,-1.1785,0.0,0.0,0.0,0.0,-1.3769,-1.433,-1.4601,-1.4995,-1.5759,-1.6043,-1.6577,-1.7879,0.0,0.0,-1.915,-1.8945,-1.8617,-1.8598,-1.8301,-1.8027,-1.7988,-1.7627,-1.7227,-1.6746,-1.6357,-1.6153,-1.6105,-1.5997,-1.6163,0.505,0.0,0.0,0.0,0.0,0.1015,0.0989,0.1011,0.0823,0.0663,0.0496,0.0365,0.0,0.0,0.0,0.0,0.0,0.0,0.0,0.0,0.0,0.0,0.0,0.0,0.0,0.0,0.0,0.0,0.0,0.0,0.0,-0.0062,0.0,0.0,0.0,0.0,-0.0435,-0.0468,-0.0529,-0.0584,-0.0555,-0.0628,-0.0618,-0.0565,-0.0507,-0.049,-0.0478,-0.0718,-0.1057,-0.1469,-0.183,0.0,0.0,0.0,0.0,0.0,0.0,0.0,0.0,0.0,0.0,0.0,0.0,0.0,0.0,0.0,0.0,0.0,0.0,0.0,-0.495,-0.5859,-0.6574,0.0,0.0,0.0,0.0,0.0,0.0,0.0,0.0,0.0,-1.0613,-1.0942,-1.1343,0.0,0.0,-1.2576,-1.2871,-1.314,-1.3554,-1.4247,0.0,0.0,0.0,-1.683,-1.7492,-1.8249,-1.8914,-1.9453,-1.9687,-1.9629,-1.9309,-1.8724,-1.851,-1.8334,-1.8066,-1.792,-1.7686,-1.7295,-1.709,-1.6926,-1.6621,-1.6543,-1.6551,0.6543,0.4838,0.3925,0.3181,0.2511,0.2445,0.2424,0.2431,0.2061,0.1667,0.1215,0.0875,0.0464,0.0,0.0,0.0,0.0,0.0,0.0,0.0,0.0,0.0,0.0,0.0,0.0,0.0,0.0,0.0,0.0,0.0,0.0,0.0,0.0,0.0,0.0,0.0,0.0,0.0,0.0,0.0,0.0,0.0,0.0,0.0,0.0,0.0,0.0,-0.0196,-0.053,-0.093,-0.1262,-0.1746,0.0,0.0,0.0,0.0,0.0,0.0,0.0,0.0,0.0,0.0,0.0,-0.2846,-0.3022,0.0,0.0,0.0,-0.3725,-0.4128,-0.4914,-0.565,0.0,0.0,0.0,0.0,0.0,0.0,0.0,-0.9271,-1.0154,-1.0874,-1.1129,-1.1516,-1.1844,-1.2017,-1.2191,-1.2442,-1.2813,0.0,-1.36,-1.4652,-1.5471,-1.6339,-1.7227,-1.7849,-1.8395,-1.8956,-1.9512,-1.9902,-1.9902,-1.9658,-1.9202,-1.8734,-1.8471,-1.8311,-1.8057,-1.8008,-1.7939,-1.7695,-1.7627,-1.7529,-1.7252,-1.7204,-1.7213,0.7743,0.7235,0.6011,0.5027,0.4324,0.4193,0.4105,0.4084,0.3521,0.286,0.2092,0.1559,0.0836,0.0042,0.0,0.0,0.0,0.0,0.0,0.0,0.0,0.0,0.0,0.0,0.0,0.0,0.0,0.0,0.0,0.0,0.0,0.0,0.0,0.0,0.0,0.0,0.0,0.0,0.0,0.0,0.0,0.0,0.0,0.0,0.0,0.0,0.0,-0.0129,-0.0339,-0.0642,-0.0899,-0.1268,-0.1791,0.0,0.0,0.0,0.0,0.0,0.0,0.0,0.0,0.0,0.0,0.0,0.0,0.0,0.0,0.0,-0.3883,0.0,-0.4799,-0.5552,0.0,0.0,0.0,-0.8638,-0.9157,-0.9243,-0.9497,-1.0087,0.0,0.0,0.0,0.0,-1.2305,-1.2305,-1.2305,-1.2472,-1.2938,-1.3213,-1.3897,-1.5307,-1.6182,-1.7127,-1.8342,-1.8841,-1.9212,-1.9645,-1.9863,-1.9824,-1.9727,-1.9163,-1.8666,-1.8539,-1.8237,-1.8008,-1.8008,-1.8008,-1.8008,-1.7988,-1.7988,-1.7998,-1.7949,-1.7939,-1.792,0.8614,0.8419,0.7901,0.6789,0.5335,0.5183,0.5153,0.5088,0.4586,0.389,0.3108,0.242,0.1458,0.0302,0.0083,0.0,0.0,0.0,0.0,0.0,0.0,0.0,0.0,0.0,0.0,0.0,0.0,0.0,0.0,0.0,0.0,0.0,0.0,0.0,0.0,0.0,0.0,0.0,0.0,0.0,0.0,0.0,0.0,0.0,0.0,0.0,0.0,-0.0031,-0.0091,-0.0173,-0.0434,-0.0749,-0.1119,-0.1432,0.0,0.0,0.0,0.0,0.0,0.0,0.0,0.0,0.0,-0.3168,-0.3423,0.0,-0.3595,0.0,-0.4182,-0.4574,-0.5061,-0.58,0.0,0.0,-0.8207,-0.8835,-0.931,-0.9685,-1.0053,-1.0408,-1.0969,-1.1436,-1.173,-1.2078,-1.2305,-1.2305,-1.2305,-1.2479,-1.2894,-1.3538,-1.4328,-1.5366,-1.6796,-1.8118,-1.8815,-1.9373,-1.9608,-1.9446,-1.9443,-1.9326,-1.8958,-1.8754,-1.85,-1.8198,-1.8086,-1.8008,-1.8008,-1.8008,-1.8008,-1.8008,-1.8008,-1.8008,-1.8008,-1.8008,-1.8008,0.8937,0.8854,0.8608,0.7924,0.6935,0.67,0.6625,0.6583,0.601,0.5349,0.4498,0.2939,0.1667,0.0706,0.0218,0.0,0.0,0.0,0.0,0.0,0.0,0.0,0.0,0.0,0.0,0.0,0.0,0.0,0.0,0.0,0.0,0.0,0.0,0.0,0.0,0.0,0.0,0.0,0.0,0.0,0.0,0.0,0.0,0.0,0.0,0.0,0.0,0.0,0.0,0.0,-0.0191,-0.0445,-0.0706,-0.1049,-0.1463,0.0,0.0,0.0,0.0,0.0,0.0,0.0,0.0,0.0,0.0,0.0,-0.3924,0.0,-0.4457,0.0,-0.5239,-0.5818,-0.6536,-0.7466,-0.8268,-0.8964,-0.9514,-1.0141,-1.0575,-1.0767,-1.1263,-1.169,-1.1886,-1.2124,-1.2305,-1.2305,-1.2305,-1.2452,-1.287,-1.3564,-1.437,-1.5421,-1.7032,-1.8447,-1.9269,-1.9522,-1.9551,-1.9326,-1.9131,-1.8916,-1.8646,-1.8442,-1.8247,-1.8057,-1.8008,-1.8008,-1.8008,-1.8008,-1.8008,-1.8008,-1.8008,-1.8008,-1.8008,-1.8008,-1.8008,0.8937,0.891,0.8608,0.8535,0.8462,0.8163,0.7988,0.7988,0.749,0.6775,0.5795,0.3284,0.1865,0.1261,0.0539,0.018,0.0135,0.009,0.009,0.0045,0.0,0.0,0.0,0.0,0.0,0.0,0.0,0.0,0.0,0.0,0.0,0.0,0.0,0.0,0.0,0.0,0.0,0.0,0.0,0.0,0.0,0.0,0.0,0.0,0.0,0.0,0.0,0.0,0.0,0.0,-0.0137,-0.0262,-0.043,-0.0803,-0.1174,0.0,-0.1976,0.0,0.0,0.0,0.0,0.0,0.0,0.0,0.0,-0.3961,-0.4239,-0.4528,-0.4689,-0.4947,-0.5358,-0.578,-0.6375,-0.7288,-0.8234,-0.9029,-0.9685,-1.0516,-1.1009,-1.1042,-1.1564,-1.1913,-1.1973,-1.2181,-1.2305,-1.2305,-1.2305,-1.2452,-1.282,-1.3411,-1.4237,-1.5516,-1.6928,-1.8295,-1.9311,-1.9414,-1.917,-1.9092,-1.8763,-1.8529,-1.85,-1.8217,-1.8018,-1.8008,-1.8008,-1.8008,-1.8008,-1.8008,-1.8008,-1.8008,-1.8008,-1.8008,-1.8008,-1.8008,-1.8008,0.8937,0.891,0.8608,0.8535,0.8459,0.8116,0.7988,0.7988,0.7643,0.6834,0.5596,0.3938,0.291,0.2341,0.1491,0.1031,0.0897,0.0673,0.0493,0.0314,0.009,0.0,0.0,0.0,0.0,0.0,0.0,0.0,0.0,0.0,0.0,0.0,0.0,0.0,0.0,0.0,0.0,0.0,0.0,0.0,0.0,0.0,0.0,0.0,0.0,0.0,0.0,0.0,0.0,0.0,-0.0026,0.0,0.0,0.0,0.0,0.0,0.0,0.0,0.0,0.0,0.0,0.0,-0.4214,-0.4324,-0.4331,-0.4572,-0.4746,-0.483,-0.4931,-0.5123,-0.5377,-0.5809,-0.6383,-0.7168,-0.8131,-0.8942,-0.9524,-1.0412,-1.1076,-1.1289,-1.1657,-1.1993,-1.2178,-1.2278,-1.2305,-1.2305,-1.2305,-1.2378,-1.2636,-1.3244,-1.4065,-1.5016,-1.6641,-1.8011,-1.8724,-1.8783,-1.8607,-1.834,-1.8203,-1.8144,-1.811,-1.8096,-1.8018,-1.8008,-1.8008,-1.8008,-1.8008,-1.8008,-1.8008,-1.8008,-1.8008,-1.8008,-1.8008,-1.8008,-1.8008,0.8937,0.0,0.8608,0.8535,0.0,0.8113,0.7988,0.7988,0.7842,0.7263,0.6252,0.5225,0.4364,0.3738,0.2967,0.235,0.197,0.1478,0.1069,0.0706,0.0221,0.0,0.0,0.0,0.0,0.0,0.0,0.0,0.0,0.0,0.0,0.0,0.0,0.0,0.0,0.0,0.0,0.0,0.0,0.0,0.0,0.0,0.0,0.0,0.0,0.0,0.0,0.0,0.0,0.0,0.0,0.0,0.0,0.0,0.0,-0.0596,-0.109,-0.1713,-0.2445,-0.2962,-0.3502,-0.4052,-0.454,-0.4765,-0.4694,-0.4833,-0.4918,-0.4985,-0.5059,-0.5194,-0.537,-0.561,-0.6053,-0.6745,-0.7739,-0.8576,-0.9271,-1.0409,-1.1222,-1.1436,-1.1817,-1.2144,-1.2285,-1.2305,-1.2305,-1.2305,-1.2305,-1.2342,-1.2489,-1.3032,-1.3878,-1.5238,-1.627,-1.7363,-1.8132,-1.8218,-1.8158,-1.8013,-1.8008,-1.8008,-1.8008,-1.8008,-1.8008,-1.8008,-1.8008,-1.8008,-1.8008,-1.8008,-1.8008,-1.8008,-1.8008,-1.8008,-1.8008,-1.8008,-1.8008,0.8937,0.8854,0.8608,0.8535,0.8459,0.8167,0.7988,0.7988,0.0,0.0,0.0,0.6432,0.5733,0.5055,0.4322,0.3676,0.3086,0.237,0.1815,0.1303,0.0565,0.0215,0.0167,0.0123,0.0081,0.004,0.0,0.0,0.0,0.0,0.0,0.0,0.0,0.0,0.0,0.0,0.0,0.0,0.0,0.0,0.0,0.0,0.0,0.0,0.0,0.0,0.0,0.0,0.0,0.0,0.0,0.0,0.0,-0.0107,-0.0236,-0.0405,-0.0761,-0.1289,-0.2043,-0.2593,-0.3299,-0.4166,-0.4776,-0.5049,-0.4931,-0.4951,-0.5015,-0.5127,-0.514,-0.5223,-0.5382,-0.5395,-0.566,-0.6284,-0.7321,-0.8218,-0.8978,-1.0405,-1.14,-1.1494,-1.1935,-1.2305,-1.2305,-1.2305,-1.2305,-1.2305,-1.2305,-1.2305,-1.2378,-1.2783,-1.3704,-1.513,-1.5764,-1.6475,-1.7476,-1.7723,-1.7735,-1.7949,-1.8008,-1.8008,-1.8008,-1.8008,-1.8008,-1.8008,-1.8008,-1.8008,-1.8008,-1.8008,-1.7978,-1.791,-1.79,-1.7871,-1.7803,-1.7842,-1.791,0.8937,0.8858,0.8608,0.8535,0.8459,0.8167,0.7988,0.7988,0.7988,0.7829,0.7449,0.6771,0.6231,0.586,0.5158,0.4531,0.4072,0.3353,0.2743,0.0,0.1476,0.0978,0.0778,0.0611,0.0403,0.0237,0.0079,0.0,0.0,0.0,0.0,0.0,0.0,0.0,0.0,0.0,0.0,0.0,0.0,0.0,0.0,0.0,0.0,0.0,0.0,0.0,0.0,0.0,0.0,0.0,0.0,0.0,0.0,0.0,-0.0052,-0.0076,-0.0364,-0.0741,-0.1249,-0.189,-0.2843,-0.4159,-0.4791,-0.5086,-0.5076,-0.5223,-0.5341,-0.5361,-0.5354,-0.5368,-0.5395,-0.5395,-0.5627,-0.6201,-0.7178,-0.8115,-0.883,-1.0315,-1.1359,-1.1507,-1.1976,-1.2305,-1.2305,-1.2305,-1.2305,-1.2305,-1.2305,-1.2305,-1.2378,-1.2673,-1.32,-1.395,-1.4649,-1.5515,-1.657,-1.7109,-1.7407,-1.794,-1.7974,-1.7974,-1.8008,-1.8008,-1.8008,-1.8008,-1.8008,-1.8008,-1.8008,-1.8008,-1.7852,-1.7598,-1.75,-1.7373,-1.709,-1.7266,-1.7598,0.876,0.8777,0.8492,0.8419,0.835,0.8133,0.7988,0.7982,0.7901,0.7821,0.7707,0.7334,0.7054,0.6771,0.6463,0.6006,0.5408,0.4736,0.4108,0.355,0.2783,0.222,0.1829,0.1364,0.0952,0.0629,0.0196,0.0,0.0,0.0,0.0,0.0,0.0,0.0,0.0,0.0,0.0,0.0,0.0,0.0,0.0,0.0,0.0,0.0,0.0,0.0,0.0,0.0,0.0,0.0,0.0,0.0,0.0,0.0,0.0,0.0,-0.0163,-0.0466,-0.0847,-0.2092,-0.3243,-0.4216,-0.4896,-0.5257,-0.5257,-0.5354,-0.5395,-0.5395,-0.5395,-0.5395,-0.5395,-0.5395,-0.5626,-0.6116,-0.6861,-0.7626,-0.8517,-0.9885,-1.0916,-1.1276,-1.187,-1.2305,-1.2305,-1.2305,-1.2305,-1.2305,-1.2305,-1.2305,-1.2305,-1.2452,-1.2783,-1.3361,-1.4013,-1.4859,-1.5807,-1.6411,-1.695,-1.7623,-1.7794,-1.7862,-1.7974,-1.7998,-1.7998,-1.8008,-1.7998,-1.8008,-1.7988,-1.7812,-1.7607,-1.7451,-1.7168,-1.6953,-1.6794,-1.708,-1.751,0.8713,0.8682,0.8394,0.8252,0.8208,0.8042,0.7971,0.7928,0.7862,0.7773,0.7716,0.7712,0.7587,0.7426,0.7336,0.7027,0.6441,0.5852,0.5287,0.4727,0.401,0.3428,0.2898,0.2211,0.1607,0.1099,0.0471,0.0118,0.0079,0.0,0.0,0.0,0.0,0.0,0.0,0.0,0.0,0.0,0.0,0.0,0.0,0.0,0.0,0.0,0.0,0.0,0.0,0.0,0.0,0.0,0.0,0.0,0.0,0.0,0.0,0.0,-0.0084,-0.0339,-0.0833,-0.2302,-0.3499,-0.4132,-0.4924,-0.5395,-0.5395,-0.5395,-0.5395,-0.5395,-0.5395,-0.5395,-0.5395,-0.5395,-0.5591,-0.6009,-0.654,-0.719,-0.8077,-0.9362,-1.0386,-1.0864,-1.1653,-1.2157,-1.2231,-1.2268,-1.2305,-1.2305,-1.2305,-1.2305,-1.2305,-1.2305,-1.2526,-1.2936,-1.3477,-1.4086,-1.4966,-1.5596,-1.6315,-1.7132,-1.7486,-1.7624,-1.7789,-1.7852,-1.7783,-1.7705,-1.7676,-1.7646,-1.7666,-1.7471,-1.7207,-1.7031,-1.6758,-1.6582,-1.6572,-1.6777,-1.7256,0.8706,0.8665,0.8384,0.8191,0.8019,0.7995,0.7914,0.7841,0.7814,0.7658,0.7438,0.746,0.745,0.7402,0.7227,0.6982,0.6748,0.6257,0.5779,0.5323,0.4824,0.4261,0.3712,0.3018,0.2388,0.1764,0.0981,0.0471,0.0275,0.0078,0.0,0.0,0.0,0.0,0.0,0.0,0.0,0.0,0.0,0.0,0.0,0.0,0.0,0.0,0.0,0.0,0.0,0.0,0.0,0.0,0.0,0.0,0.0,0.0,0.0,0.0,0.0,-0.0316,-0.1033,-0.2116,-0.3095,-0.3794,-0.4794,-0.5392,-0.5395,-0.5395,-0.5395,-0.5395,-0.5395,-0.5395,-0.5395,-0.5395,-0.5527,-0.5824,-0.6327,-0.702,-0.7782,-0.8943,-0.9906,-1.0479,-1.1218,-1.1818,-1.1959,-1.215,-1.2305,-1.2305,-1.2305,-1.2305,-1.2305,-1.2305,-1.2305,-1.2452,-1.2746,-1.3215,-1.3854,-1.4537,-1.5463,-1.6446,-1.701,-1.7241,-1.7369,-1.7438,-1.7344,-1.7126,-1.6921,-1.695,-1.6911,-1.6755,-1.666,-1.6445,-1.6281,-1.6153,-1.6153,-1.6251,-1.6594,0.8452,0.8428,0.8221,0.8099,0.7992,0.7988,0.7904,0.7807,0.7723,0.7567,0.737,0.7275,0.7234,0.7231,0.7122,0.7051,0.6966,0.6789,0.6552,0.6284,0.5984,0.556,0.4999,0.4286,0.3521,0.2741,0.1686,0.102,0.0627,0.0194,0.0,0.0,0.0,0.0,0.0,0.0,0.0,0.0,0.0,0.0,0.0,0.0,0.0,0.0,0.0,0.0,0.0,0.0,0.0,0.0,0.0,0.0,0.0,0.0,0.0,0.0,0.0,-0.0267,-0.0885,-0.1834,-0.2668,-0.3382,-0.4428,-0.5093,-0.5223,-0.5326,-0.5395,-0.5395,-0.5395,-0.5395,-0.5395,-0.5395,-0.5521,-0.5766,-0.6051,-0.6473,-0.7187,-0.793,-0.8655,-0.9487,-1.045,-1.1205,-1.1625,-1.204,-1.2268,-1.2305,-1.2305,-1.2291,-1.2305,-1.2305,-1.2305,-1.2305,-1.2445,-1.2776,-1.3324,-1.397,-1.4824,-1.5702,-1.6341,-1.6734,-1.6954,-1.7166,-1.7096,-1.6724,-1.6648,-1.6638,-1.6736,-1.6475,-1.6271,-1.6046,-1.5791,-1.5674,-1.5674,-1.5919,-1.6271,0.8323,0.8248,0.8052,0.7988,0.7988,0.7988,0.788,0.7753,0.7645,0.7492,0.7305,0.7142,0.7095,0.7095,0.7095,0.7095,0.7092,0.7055,0.7004,0.6815,0.6709,0.6356,0.5854,0.5207,0.4457,0.36,0.2468,0.1602,0.1009,0.0569,0.033,0.0318,0.0244,0.0206,0.0135,0.0135,0.0135,0.0,0.0168,0.0229,0.0,0.0284,0.0186,0.0,0.0,0.0,0.0,0.0,0.0,0.0,0.0,0.0,0.0,0.0,0.0,0.0,0.0,-0.0212,-0.0676,-0.1449,-0.2215,-0.2943,-0.3959,-0.4691,-0.4957,-0.5226,-0.5395,-0.5395,-0.5395,-0.5395,-0.5395,-0.5395,-0.5525,-0.5755,-0.58,-0.6068,-0.6763,-0.7157,-0.7785,-0.8647,-0.9702,-1.0591,-1.1254,-1.1734,-1.1979,-1.2138,-1.2171,-1.2231,-1.2285,-1.2305,-1.2305,-1.2305,-1.2305,-1.2452,-1.29,-1.3368,-1.4106,-1.4687,-1.5305,-1.5832,-1.6233,-1.643,-1.6581,-1.6108,-1.6296,-1.6307,-1.6171,-1.5977,-1.5938,-1.586,-1.5644,-1.5439,-1.5469,-1.5713,-1.583,0.8323,0.8296,0.8106,0.7988,0.7988,0.7982,0.7823,0.7624,0.7597,0.7431,0.7136,0.7102,0.7095,0.7095,0.7095,0.7095,0.7071,0.696,0.6819,0.6705,0.6559,0.6288,0.5876,0.5476,0.4968,0.4345,0.3326,0.2282,0.1288,0.1185,0.1117,0.1051,0.0888,0.0674,0.0538,0.0505,0.0471,0.0504,0.0672,0.0851,0.0934,0.0959,0.0692,0.0,0.0,0.0,0.0,0.0,0.0,0.0,0.0,0.0,0.0,0.0,0.0,0.0,0.0,-0.0152,-0.0512,-0.1034,-0.1664,-0.2436,-0.3418,-0.4217,-0.4592,-0.506,-0.5326,-0.5395,-0.5395,-0.5395,-0.5395,-0.5395,-0.5518,-0.5755,-0.58,-0.6049,-0.6563,-0.6912,-0.7468,-0.8122,-0.902,-1.0029,-1.108,-1.1252,-1.1502,-1.1782,-1.1926,-1.1993,-1.2158,-1.2251,-1.2271,-1.2271,-1.2278,-1.2335,-1.2402,-1.275,-1.3107,-1.3615,-1.4236,-1.4656,-1.4939,-1.5198,-1.5357,-1.5525,-1.5624,-1.5605,-1.5527,-1.5478,-1.5518,-1.5508,-1.5518,-1.542,-1.542,-1.542,-1.5518,0.8123,0.8116,0.8012,0.7988,0.7978,0.7936,0.778,0.7594,0.7538,0.7339,0.7119,0.7095,0.7095,0.7095,0.7095,0.7048,0.696,0.6949,0.6797,0.6569,0.6495,0.6396,0.6151,0.5986,0.5673,0.5126,0.4377,0.3408,0.2402,0.2264,0.2204,0.2088,0.1788,0.1443,0.1074,0.1008,0.1008,0.104,0.1342,0.1665,0.192,0.1939,0.1791,0.1403,0.0784,0.0393,0.028,0.0196,0.0084,0.0,0.0,0.0,0.0,0.0,0.0,0.0,0.0,-0.0125,-0.0361,-0.0762,-0.1229,-0.1878,-0.2787,-0.3553,-0.4059,-0.4625,-0.506,-0.5193,-0.5326,-0.5395,-0.5395,-0.5395,-0.5511,-0.5732,-0.5806,-0.5958,-0.6263,-0.6443,-0.6673,-0.7347,-0.8318,-0.9431,-1.0237,-1.0729,-1.1069,-1.1487,-1.1583,-1.1643,-1.1737,-1.1897,-1.206,-1.2094,-1.2171,-1.2238,-1.2031,-1.224,-1.2571,-1.2917,-1.3344,-1.3733,-1.4085,-1.452,-1.4778,-1.5141,-1.5156,-1.5313,-1.5362,-1.5439,-1.542,-1.542,-1.542,-1.542,-1.542,-1.542,-1.542,0.7988,0.7988,0.7988,0.7961,0.7957,0.7855,0.7699,0.7526,0.7414,0.7282,0.7115,0.7095,0.7095,0.7095,0.7095,0.6987,0.6825,0.6851,0.6719,0.6521,0.6467,0.6392,0.6313,0.63,0.6106,0.5634,0.5079,0.4268,0.3394,0.3302,0.3213,0.3058,0.2649,0.2181,0.1744,0.1713,0.1713,0.1744,0.208,0.2479,0.2756,0.2795,0.2712,0.2426,0.1733,0.1119,0.0672,0.0448,0.0252,0.0,0.0,0.0,0.0,0.0,0.0,0.0,0.0,-0.0063,-0.02,-0.0404,-0.074,-0.121,-0.1982,-0.2684,-0.332,-0.4059,-0.4589,-0.4924,-0.5226,-0.5395,-0.5395,-0.5395,-0.5515,-0.5735,-0.58,-0.5928,-0.6242,-0.6169,-0.6401,-0.6927,-0.7701,-0.8628,-0.9437,-0.9883,-1.0421,-1.0992,-1.1147,-1.1208,-1.1402,-1.1577,-1.1777,-1.1886,-1.1917,-1.1957,-1.1824,-1.1877,-1.1784,-1.2072,-1.2383,-1.2785,-1.322,-1.3714,-1.4255,-1.4618,-1.4931,-1.5137,-1.5274,-1.5391,-1.542,-1.542,-1.542,-1.542,-1.542,-1.542,-1.542,0.7988,0.7988,0.7988,0.7907,0.7834,0.7801,0.7638,0.7456,0.7409,0.7265,0.7102,0.7095,0.7095,0.7095,0.7078,0.6976,0.6756,0.6709,0.6614,0.6451,0.6371,0.6313,0.63,0.63,0.618,0.5906,0.5315,0.4725,0.4184,0.4164,0.4066,0.3792,0.3458,0.2987,0.2415,0.2618,0.2618,0.2584,0.2954,0.3296,0.3406,0.3439,0.3369,0.3126,0.2822,0.2206,0.1229,0.0896,0.0505,0.0084,0.0,0.0,0.0,0.0,0.0,0.0,0.0,0.0,0.0,0.0,-0.0236,-0.0605,-0.1074,-0.1709,-0.2482,-0.3382,-0.4118,-0.4558,-0.5027,-0.5359,-0.5362,-0.5395,-0.5515,-0.5742,-0.5803,-0.5932,-0.6211,-0.63,-0.6423,-0.6794,-0.7174,-0.7724,-0.8404,-0.8871,-0.9396,-1.0211,-1.0593,-1.0817,-1.1175,-1.1356,-1.1536,-1.1683,-1.169,-1.165,-1.1543,-1.145,-1.1223,-1.1108,-1.1437,-1.1804,-1.2223,-1.2694,-1.3428,-1.3902,-1.4597,-1.4824,-1.5128,-1.5206,-1.5303,-1.5332,-1.5362,-1.5391,-1.542,-1.542,-1.542,0.7988,0.7988,0.7988,0.7904,0.7807,0.7709,0.755,0.7412,0.7265,0.7183,0.7098,0.7095,0.7095,0.7068,0.6997,0.6846,0.6698,0.6593,0.6468,0.6378,0.6317,0.63,0.63,0.63,0.6257,0.618,0.5983,0.5679,0.5304,0.5258,0.516,0.4873,0.4495,0.4023,0.3518,0.3553,0.3556,0.3551,0.392,0.424,0.439,0.4424,0.4293,0.4079,0.3738,0.3292,0.2676,0.1679,0.0869,0.0336,0.0196,0.0084,0.0,0.0,0.0,0.0,0.0,0.0,0.0,0.0,-0.0101,-0.0371,-0.074,-0.1209,-0.1848,-0.2718,-0.3487,-0.3992,-0.4628,-0.503,-0.5193,-0.5326,-0.5525,-0.5769,-0.5803,-0.5922,-0.6231,-0.6293,-0.6249,-0.6181,-0.6438,-0.6845,-0.7268,-0.7749,-0.856,-0.9477,-0.9896,-1.0276,-1.0738,-1.1002,-1.1129,-1.127,-1.1263,-1.1343,-1.1263,-1.1162,-1.0975,-1.0854,-1.1001,-1.1155,-1.15,-1.188,-1.2589,-1.3321,-1.4013,-1.4499,-1.4795,-1.5001,-1.5069,-1.5245,-1.5303,-1.5362,-1.5391,-1.542,-1.542,0.7988,0.7988,0.7988,0.7919,0.7733,0.7631,0.7475,0.7292,0.7187,0.7095,0.7095,0.7095,0.7061,0.7011,0.6966,0.681,0.662,0.6512,0.6436,0.6313,0.63,0.63,0.63,0.63,0.63,0.63,0.63,0.6139,0.5813,0.5789,0.565,0.5373,0.506,0.4658,0.4287,0.4259,0.4259,0.4287,0.4589,0.4851,0.4943,0.4945,0.4799,0.455,0.4243,0.391,0.3516,0.249,0.1568,0.0784,0.0336,0.0084,0.0,0.0,0.0,0.0,0.0,0.0,0.0,0.0,-0.0034,-0.0202,-0.037,-0.0706,-0.121,-0.1947,-0.2582,-0.3255,-0.4023,-0.4592,-0.4891,-0.5226,-0.5494,-0.5769,-0.58,-0.5939,-0.6218,-0.6245,-0.6074,-0.594,-0.6001,-0.6214,-0.6522,-0.7018,-0.7804,-0.8683,-0.9236,-0.9748,-1.0206,-1.0593,-1.0731,-1.0883,-1.0969,-1.1015,-1.1009,-1.0902,-1.0794,-1.0739,-1.0728,-1.0844,-1.1035,-1.1365,-1.1919,-1.2681,-1.3373,-1.3773,-1.4103,-1.449,-1.4677,-1.4913,-1.5157,-1.5323,-1.5381,-1.542,-1.542,0.8038,0.8038,0.8031,0.7907,0.7715,0.7677,0.746,0.7177,0.7098,0.7095,0.7095,0.7095,0.7031,0.6927,0.6879,0.6753,0.6566,0.6451,0.6419,0.6327,0.63,0.63,0.63,0.63,0.63,0.63,0.63,0.6129,0.5813,0.58,0.565,0.5393,0.5226,0.499,0.4758,0.4794,0.4761,0.4725,0.4957,0.5111,0.509,0.4978,0.4853,0.4687,0.4392,0.4126,0.3824,0.3267,0.2402,0.1229,0.0448,0.0056,0.0028,0.0,0.0,0.0,0.0,0.0,0.0,0.0,0.0,0.0,0.0,-0.0135,-0.0605,-0.1141,-0.171,-0.2382,-0.3351,-0.4084,-0.4489,-0.4924,-0.5362,-0.5706,-0.5814,-0.5996,-0.6183,-0.6122,-0.5973,-0.5806,-0.5797,-0.5863,-0.6043,-0.6507,-0.7186,-0.7902,-0.856,-0.9139,-0.9792,-1.0181,-1.0483,-1.0658,-1.0775,-1.0821,-1.0847,-1.0801,-1.0687,-1.066,-1.0618,-1.0681,-1.0776,-1.109,-1.1404,-1.2128,-1.2612,-1.3017,-1.3442,-1.3833,-1.4201,-1.4478,-1.4795,-1.5206,-1.5294,-1.5177,-1.5177,0.8581,0.8566,0.8405,0.8295,0.8099,0.8029,0.7775,0.7381,0.7187,0.7095,0.7095,0.7095,0.7071,0.7018,0.6854,0.6709,0.66,0.6417,0.6347,0.6306,0.63,0.63,0.63,0.63,0.63,0.63,0.6289,0.6139,0.582,0.58,0.5647,0.5405,0.5359,0.5256,0.5193,0.5193,0.5229,0.5226,0.5259,0.5255,0.5123,0.5063,0.4948,0.4711,0.4589,0.4452,0.4255,0.3624,0.2623,0.1344,0.0645,0.0252,0.0168,0.0,0.0,0.0,0.0,0.0,0.0,0.0,0.0,0.0,0.0,0.0,-0.0337,-0.0706,-0.1209,-0.1847,-0.2686,-0.3387,-0.3787,-0.4259,-0.4785,-0.5373,-0.5768,-0.605,-0.6088,-0.6016,-0.5935,-0.5694,-0.5679,-0.5641,-0.5707,-0.5984,-0.6441,-0.7083,-0.7702,-0.8425,-0.9172,-0.9754,-1.0053,-1.0487,-1.0653,-1.066,-1.066,-1.0633,-1.0606,-1.0606,-1.0586,-1.0618,-1.0776,-1.0996,-1.1303,-1.1771,-1.1942,-1.2282,-1.272,-1.3147,-1.3549,-1.3872,-1.4291,-1.4608,-1.4667,-1.4647,-1.4706,0.9272,0.9153,0.9007,0.8824,0.8648,0.853,0.8218,0.7738,0.7319,0.7095,0.7095,0.7095,0.7061,0.6987,0.6871,0.6719,0.659,0.6427,0.6364,0.63,0.63,0.63,0.63,0.63,0.63,0.63,0.63,0.6084,0.585,0.58,0.5672,0.5446,0.5395,0.5395,0.5359,0.5395,0.5395,0.5395,0.5392,0.5344,0.5237,0.5098,0.4972,0.4775,0.4709,0.4541,0.4332,0.3821,0.2959,0.1933,0.112,0.0588,0.0393,0.014,0.0,0.0,0.0,0.0,0.0,0.0,0.0,0.0,0.0,0.0,-0.0169,-0.037,-0.0673,-0.1142,-0.1847,-0.2382,-0.2855,-0.3484,-0.415,-0.4768,-0.5408,-0.5785,-0.5946,-0.5973,-0.5833,-0.5654,-0.5566,-0.5501,-0.5402,-0.5624,-0.598,-0.6433,-0.7022,-0.7804,-0.8587,-0.9107,-0.9652,-1.0104,-1.046,-1.0511,-1.0588,-1.06,-1.0593,-1.0593,-1.0586,-1.0586,-1.0681,-1.087,-1.0996,-1.1209,-1.1334,-1.1545,-1.1981,-1.2382,-1.2681,-1.307,-1.3554,-1.3825,-1.3855,-1.3953,-1.4013,0.9995,0.9841,0.9672,0.9473,0.9334,0.9225,0.8896,0.8256,0.7536,0.7187,0.7187,0.7139,0.7041,0.6949,0.6849,0.6749,0.6512,0.6484,0.6399,0.6327,0.63,0.63,0.63,0.63,0.63,0.63,0.63,0.6078,0.5871,0.58,0.564,0.5463,0.5395,0.5395,0.5395,0.5395,0.5395,0.5395,0.5395,0.5365,0.526,0.5091,0.4948,0.4819,0.4634,0.4466,0.4276,0.3968,0.3499,0.2731,0.1742,0.1131,0.0822,0.0369,0.0,0.0,0.0,0.0,0.0,0.0,0.0,0.0,0.0,0.0,0.0,0.0,-0.0236,-0.0572,-0.0973,-0.1509,-0.2022,-0.2787,-0.3471,-0.4091,-0.4629,-0.5212,-0.5718,-0.5834,-0.5722,-0.5586,-0.5474,-0.5412,-0.5425,-0.5521,-0.5716,-0.5947,-0.647,-0.706,-0.7804,-0.8355,-0.9069,-0.9786,-1.011,-1.0333,-1.0466,-1.0593,-1.0593,-1.0586,-1.0586,-1.0586,-1.0586,-1.0681,-1.0649,-1.0744,-1.0958,-1.1083,-1.124,-1.1577,-1.1934,-1.2274,-1.2765,-1.2887,-1.2917,-1.3017,-1.3108,1.0716,1.0849,1.0442,1.0374,1.0463,1.0167,0.963,0.8934,0.8065,0.7588,0.7411,0.7187,0.7075,0.7031,0.6871,0.6705,0.66,0.6467,0.6323,0.631,0.63,0.63,0.63,0.63,0.63,0.63,0.63,0.6095,0.5874,0.5786,0.5654,0.544,0.5402,0.5395,0.5395,0.5395,0.5395,0.5395,0.5395,0.5304,0.522,0.5128,0.4972,0.4782,0.461,0.4515,0.4463,0.438,0.4185,0.3631,0.2681,0.1855,0.1404,0.0782,0.0399,0.022,0.0,0.0,0.0,0.0,0.0,0.0,0.0,0.0,0.0,0.0,0.0,-0.0337,-0.0672,-0.1075,-0.1518,-0.2177,-0.2782,-0.3353,-0.401,-0.4678,-0.5225,-0.5554,-0.5568,-0.5494,-0.5423,-0.5395,-0.5395,-0.5425,-0.5524,-0.5624,-0.5918,-0.6375,-0.6957,-0.7637,-0.842,-0.9236,-0.9626,-0.9888,-1.0238,-1.0396,-1.046,-1.0523,-1.0555,-1.0586,-1.0586,-1.0586,-1.0586,-1.0586,-1.0618,-1.0744,-1.087,-1.109,-1.1514,-1.1763,-1.195,-1.2066,-1.2128,-1.2166,-1.2259,1.1866,1.1894,1.1586,1.1519,1.1548,1.1332,1.0794,0.9893,0.8807,0.8157,0.7764,0.7319,0.7061,0.6991,0.6878,0.6749,0.6566,0.6412,0.63,0.63,0.63,0.63,0.63,0.63,0.63,0.63,0.63,0.6118,0.5952,0.5823,0.5691,0.5508,0.5436,0.5395,0.5395,0.5395,0.5395,0.5395,0.5395,0.5351,0.525,0.5159,0.5012,0.484,0.4721,0.4706,0.4684,0.4684,0.4614,0.4315,0.3643,0.2816,0.2119,0.1357,0.0815,0.0513,0.0,0.0,0.0,0.0,0.0,0.0,0.0,0.0,0.0,0.0,0.0,-0.0135,-0.0303,-0.0572,-0.0844,-0.1217,-0.178,-0.2334,-0.3032,-0.3786,-0.4539,-0.5156,-0.553,-0.5433,-0.5399,-0.5395,-0.5395,-0.5395,-0.5428,-0.5524,-0.562,-0.6009,-0.6404,-0.7051,-0.7772,-0.849,-0.9017,-0.9434,-0.9881,-1.0142,-1.0301,-1.0396,-1.0523,-1.0555,-1.0586,-1.0586,-1.0586,-1.0586,-1.0586,-1.0624,-1.0751,-1.0933,-1.1028,-1.1115,-1.124,-1.1334,-1.1365,-1.1397,-1.149,1.2913,1.2812,1.2674,1.2594,1.2546,1.2425,1.1869,1.0977,0.9719,0.8894,0.8328,0.7669,0.7374,0.7118,0.7016,0.6836,0.6518,0.6378,0.63,0.63,0.63,0.63,0.63,0.63,0.63,0.63,0.63,0.6162,0.602,0.5858,0.5759,0.5596,0.5504,0.5433,0.5405,0.5395,0.5395,0.5395,0.5395,0.5361,0.5317,0.5179,0.5022,0.4897,0.4887,0.4874,0.487,0.4887,0.4876,0.4903,0.462,0.3966,0.3141,0.2061,0.1323,0.0973,0.0554,0.0,0.0,0.0,0.0,0.0034,0.0,0.0,0.0,0.0,0.0,0.0,0.0,0.0,0.0,-0.0423,-0.0819,-0.1323,-0.1963,-0.2787,-0.3732,-0.4692,-0.5119,-0.5433,-0.5395,-0.5395,-0.5395,-0.5395,-0.5395,-0.5425,-0.5521,-0.5683,-0.6042,-0.6433,-0.712,-0.7642,-0.8129,-0.8753,-0.923,-0.9722,-0.9919,-1.0206,-1.0364,-1.0523,-1.0555,-1.0586,-1.0586,-1.0586,-1.0586,-1.0624,-1.0624,-1.0713,-1.0713,-1.0586,-1.0681,-1.0902,-1.0839,-1.0618,-1.0839,1.3108,1.3248,1.3022,1.304,1.3185,1.2997,1.2528,1.1714,1.0593,0.9816,0.9336,0.8675,0.8147,0.7773,0.7408,0.6975,0.6477,0.631,0.63,0.63,0.63,0.63,0.63,0.63,0.63,0.63,0.6293,0.6218,0.6074,0.5952,0.584,0.564,0.5555,0.5525,0.5419,0.5395,0.5395,0.5395,0.5392,0.5347,0.5226,0.5172,0.5066,0.4979,0.4972,0.4962,0.4942,0.4938,0.4955,0.5051,0.5001,0.4765,0.4189,0.2992,0.2213,0.1725,0.1263,0.0934,0.0739,0.0538,0.0404,0.027,0.0101,0.0,0.0,0.0,0.0,0.0,0.0,0.0,0.0,-0.0181,-0.0483,-0.0975,-0.1545,-0.2261,-0.3098,-0.3808,-0.4577,-0.5078,-0.5236,-0.5395,-0.5395,-0.5395,-0.5395,-0.5395,-0.5458,-0.5488,-0.5653,-0.5947,-0.6371,-0.6826,-0.7214,-0.7864,-0.8517,-0.9075,-0.9466,-0.9843,-1.0104,-1.0466,-1.053,-1.0586,-1.0586,-1.0586,-1.0586,-1.0586,-1.0586,-1.0586,-1.0586,-1.0586,-1.0586,-1.0586,-1.0586,-1.0586,-1.0649,1.3652,1.3737,1.361,1.3652,1.3743,1.3652,1.3264,1.2662,1.1746,1.1101,1.0587,0.9961,0.9278,0.8673,0.8094,0.7367,0.6514,0.63,0.63,0.63,0.63,0.63,0.63,0.63,0.63,0.63,0.6293,0.6269,0.6149,0.6057,0.5911,0.5739,0.5633,0.5545,0.5426,0.5395,0.5395,0.5395,0.5388,0.5361,0.5254,0.5243,0.5196,0.5165,0.5138,0.5148,0.5145,0.5148,0.5182,0.524,0.5254,0.5127,0.4737,0.4123,0.3286,0.2751,0.2214,0.1777,0.1442,0.1141,0.084,0.0539,0.0236,0.0,0.0,0.0,0.0,0.0,0.0,0.0,0.0,0.0,-0.0225,-0.0448,-0.0911,-0.1502,-0.2139,-0.2827,-0.3693,-0.4565,-0.4933,-0.5156,-0.5395,-0.5395,-0.5395,-0.5395,-0.5395,-0.5395,-0.5395,-0.5624,-0.5914,-0.6239,-0.6662,-0.7153,-0.7772,-0.8291,-0.8844,-0.9294,-0.9843,-1.0174,-1.0466,-1.0491,-1.0555,-1.0586,-1.0586,-1.0586,-1.0586,-1.0586,-1.0586,-1.0586,-1.0586,-1.0586,-1.0586,-1.0618,-1.0649,1.4088,1.4088,1.4088,1.4088,1.4088,1.4088,1.3864,1.3392,1.2687,1.2174,1.1832,1.1107,1.0364,0.956,0.8658,0.7605,0.6454,0.6374,0.6335,0.63,0.63,0.63,0.63,0.63,0.63,0.63,0.63,0.63,0.6262,0.6146,0.5986,0.5813,0.5671,0.5532,0.5436,0.5395,0.5395,0.5395,0.5395,0.5395,0.5395,0.5395,0.5395,0.5395,0.5395,0.5378,0.5358,0.5354,0.5358,0.5375,0.5382,0.5322,0.5153,0.4891,0.4492,0.3887,0.328,0.2746,0.2313,0.1811,0.141,0.1008,0.0438,0.0,0.0,0.0,0.0,0.0,0.0,0.0,0.0,0.0,0.0,-0.0113,-0.0377,-0.0751,-0.1339,-0.2017,-0.2828,-0.3653,-0.4378,-0.4921,-0.5193,-0.5395,-0.5395,-0.5395,-0.5395,-0.5395,-0.5395,-0.5458,-0.5686,-0.5918,-0.6243,-0.6568,-0.706,-0.7479,-0.8032,-0.8549,-0.9262,-0.9849,-1.0174,-1.0396,-1.046,-1.0523,-1.0586,-1.0586,-1.0586,-1.0586,-1.0586,-1.0586,-1.0586,-1.0586,-1.0586,-1.0586,-1.0618,1.4088,1.4088,1.4088,1.4088,1.4088,1.4088,1.3913,1.361,1.313,1.279,1.2523,1.1828,1.1211,1.0281,0.8887,0.7726,0.6988,0.6641,0.649,0.6338,0.63,0.63,0.63,0.63,0.63,0.63,0.63,0.63,0.6289,0.6265,0.6074,0.5861,0.5769,0.5678,0.545,0.5405,0.5395,0.5395,0.5395,0.5395,0.5395,0.5395,0.5395,0.5395,0.5395,0.5395,0.5395,0.5395,0.5395,0.5395,0.5395,0.5395,0.5359,0.5326,0.5292,0.4891,0.4292,0.3491,0.3123,0.2651,0.208,0.1579,0.0908,0.0477,0.0208,0.0,0.0,0.0,0.0,0.0,0.0,0.0,0.0,0.0,-0.0192,-0.0453,-0.0877,-0.1239,-0.2092,-0.2766,-0.3489,-0.442,-0.5027,-0.5226,-0.5395,-0.5395,-0.5395,-0.5395,-0.5395,-0.5458,-0.5458,-0.5686,-0.5785,-0.6112,-0.6404,-0.6826,-0.7284,-0.7837,-0.8613,-0.9396,-0.9722,-1.0009,-1.0364,-1.046,-1.046,-1.046,-1.0428,-1.0428,-1.0555,-1.0586,-1.0586,-1.0586,-1.0586,-1.0586,-1.0586,1.4088,1.4088,1.4088,1.4088,1.4088,1.4088,1.4046,1.3913,1.3737,1.3471,1.3204,1.2911,1.2124,1.0869,0.9543,0.8394,0.7514,0.7099,0.6683,0.6416,0.6335,0.6296,0.63,0.63,0.63,0.6335,0.63,0.63,0.63,0.6279,0.6135,0.5952,0.584,0.5705,0.5518,0.5436,0.5402,0.5395,0.5395,0.5395,0.5395,0.5395,0.5395,0.5395,0.5395,0.5395,0.5395,0.5395,0.5395,0.5395,0.5395,0.5395,0.5395,0.5395,0.5395,0.5326,0.4994,0.4528,0.4125,0.3587,0.3021,0.2319,0.1515,0.0748,0.0315,0.0,0.0,0.0,0.0,0.0,0.0,0.0,0.0,0.0,0.0,0.0,0.0,0.0,-0.1295,-0.1949,-0.2654,-0.3574,-0.4492,-0.4885,-0.5146,-0.5395,-0.5395,-0.5395,-0.5395,-0.5428,-0.5425,-0.5458,-0.5524,-0.5587,-0.5881,-0.6207,-0.6695,-0.7251,-0.7999,-0.8683,-0.9145,-0.9498,-0.9779,-0.9939,-0.9875,-0.9945,-1.011,-1.0371,-1.0498,-1.0561,-1.0586,-1.0586,-1.0586,-1.0586,-1.0586,1.4088,1.4088,1.4088,1.4088,1.4088,1.4088,1.4088,1.4088,1.4088,1.388,1.362,1.3305,1.2463,1.1307,1.0225,0.9188,0.8084,0.7676,0.7142,0.6799,0.6606,0.6644,0.6683,0.6606,0.6528,0.6451,0.6412,0.6374,0.63,0.6282,0.6179,0.603,0.5892,0.5759,0.5603,0.5525,0.5457,0.5395,0.5395,0.5395,0.5395,0.5395,0.5395,0.5395,0.5395,0.5395,0.5395,0.5395,0.5395,0.5395,0.5395,0.5395,0.5395,0.5395,0.5395,0.5395,0.5259,0.5163,0.4794,0.4359,0.3868,0.3121,0.221,0.1236,0.0574,0.0293,0.0,0.0,0.0,0.0,0.0,0.0,0.0,0.0,0.0,0.0,0.0,0.0,-0.079,-0.1342,-0.2051,-0.2747,-0.36,-0.4321,-0.4834,-0.5269,-0.5395,-0.5395,-0.5395,-0.5395,-0.5395,-0.5395,-0.5425,-0.5425,-0.5554,-0.5848,-0.6239,-0.6662,-0.7381,-0.7907,-0.8296,-0.8683,-0.8967,-0.9096,-0.9166,-0.923,-0.9294,-0.9913,-1.0466,-1.0466,-1.0498,-1.0555,-1.0586,-1.0586,-1.0586,1.4088,1.4088,1.4088,1.4088,1.4088,1.4088,1.4088,1.4088,1.4088,1.3908,1.3507,1.2883,1.2209,1.1433,1.0773,0.9943,0.8922,0.8508,0.8016,0.7633,0.7446,0.7484,0.7446,0.733,0.7061,0.6865,0.6714,0.6528,0.6338,0.6296,0.6166,0.6044,0.6,0.583,0.5664,0.5545,0.5484,0.5419,0.5395,0.5395,0.5395,0.5395,0.5395,0.5395,0.5395,0.5395,0.5395,0.5395,0.5395,0.5395,0.5395,0.5395,0.5395,0.5395,0.5395,0.5395,0.5395,0.5329,0.516,0.4834,0.4386,0.3709,0.2889,0.1995,0.1375,0.0997,0.0817,0.062,0.0466,0.0195,0.0,0.0,0.0,0.0,0.0,0.0,0.0,0.0,-0.0518,-0.0875,-0.1399,-0.2045,-0.271,-0.341,-0.4476,-0.5013,-0.5395,-0.5395,-0.5395,-0.5395,-0.5395,-0.5395,-0.5395,-0.5395,-0.5395,-0.5657,-0.5885,-0.6141,-0.6695,-0.7055,-0.7349,-0.7702,-0.8188,-0.8188,-0.8226,-0.8355,-0.8581,-0.9172,-0.9722,-1.0174,-1.0434,-1.053,-1.0586,-1.0586,-1.0586,1.4088,1.4088,1.4088,1.4088,1.4088,1.4088,1.4088,1.4088,1.4082,1.3808,1.334,1.2689,1.2225,1.1874,1.1484,1.0844,1.0121,0.9712,0.915,0.8775,0.8623,0.8618,0.8504,0.8237,0.7889,0.7476,0.7138,0.6683,0.6338,0.6374,0.6279,0.6166,0.6122,0.5918,0.5752,0.5552,0.546,0.5426,0.5395,0.5395,0.5395,0.5395,0.5395,0.5395,0.5395,0.5395,0.5395,0.5395,0.5395,0.5395,0.5395,0.5395,0.5395,0.5395,0.5395,0.5395,0.5395,0.5399,0.5409,0.5143,0.4821,0.4169,0.3542,0.2984,0.2428,0.2087,0.168,0.1332,0.0864,0.0589,0.0,0.0,0.0,0.0,0.0,0.0,0.0,0.0,0.0,0.0,0.0,-0.1182,-0.1838,-0.2513,-0.3666,-0.4721,-0.5106,-0.5395,-0.5395,-0.5395,-0.5395,-0.5395,-0.5395,-0.5395,-0.5395,-0.5425,-0.5491,-0.5785,-0.6075,-0.6338,-0.6666,-0.699,-0.7344,-0.7316,-0.7349,-0.7512,-0.7837,-0.8425,-0.9043,-0.9658,-1.0174,-1.0555,-1.0586,-1.0555,-1.0586,1.4088,1.4088,1.4088,1.4088,1.4088,1.4088,1.4088,1.4068,1.3981,1.3621,1.3039,1.2532,1.2305,1.2194,1.1929,1.1477,1.0944,1.0533,1.0126,0.9787,0.9604,0.9679,0.9523,0.9221,0.8732,0.8203,0.7714,0.7296,0.676,0.6606,0.6556,0.6482,0.626,0.6074,0.5762,0.5559,0.5399,0.5395,0.5395,0.5395,0.5395,0.5395,0.5395,0.5395,0.5395,0.5395,0.5395,0.5395,0.5395,0.5395,0.5395,0.5395,0.5395,0.5395,0.5395,0.5395,0.5399,0.5409,0.5453,0.5386,0.5146,0.4574,0.4358,0.3955,0.3562,0.3138,0.2621,0.1997,0.149,0.0942,0.0314,0.0,0.0,0.0,0.0,0.0,0.0,0.0,0.0,0.0,0.0,-0.0742,-0.1416,-0.2183,-0.333,-0.4459,-0.5073,-0.5362,-0.5395,-0.5395,-0.5395,-0.5395,-0.5395,-0.5395,-0.5395,-0.5425,-0.5458,-0.5491,-0.5752,-0.5851,-0.6112,-0.6437,-0.6502,-0.6404,-0.647,-0.6634,-0.6994,-0.7479,-0.8323,-0.9268,-0.9748,-1.0206,-1.0364,-1.0364,-1.0498,1.4088,1.4088,1.4088,1.4088,1.4088,1.4088,1.4088,1.4041,1.3726,1.3327,1.2844,1.2438,1.2305,1.2268,1.2077,1.1774,1.1477,1.1217,1.0925,1.0657,1.0582,1.0507,1.04,1.0132,0.9679,0.9036,0.8623,0.8169,0.7522,0.7369,0.7173,0.6815,0.6561,0.6221,0.58,0.5549,0.5409,0.5399,0.5412,0.5416,0.5395,0.5395,0.5395,0.5395,0.5395,0.5395,0.5395,0.5395,0.5395,0.5395,0.5395,0.5395,0.5395,0.5395,0.5395,0.5395,0.5395,0.5463,0.5569,0.5535,0.5364,0.5166,0.4993,0.4843,0.4443,0.4031,0.3561,0.3012,0.235,0.1568,0.0942,0.0432,0.0275,0.0,0.0,0.0,0.0,0.0,0.0,0.0,0.0,-0.0504,-0.1209,-0.202,-0.3146,-0.4132,-0.4928,-0.5276,-0.5279,-0.5336,-0.5319,-0.5399,-0.5396,-0.5395,-0.5395,-0.5395,-0.5428,-0.5428,-0.5462,-0.5591,-0.5624,-0.5752,-0.5752,-0.5591,-0.5752,-0.605,-0.621,-0.6437,-0.7414,-0.8388,-0.9236,-0.9728,-0.9951,-1.0174,-1.0301,1.4088,1.4088,1.4088,1.4088,1.4088,1.4088,1.4088,1.4001,1.3581,1.3126,1.279,1.2432,1.2305,1.2268,1.2224,1.2077,1.2003,1.1966,1.1744,1.1669,1.1589,1.17,1.1521,1.1149,1.0732,1.0233,0.9782,0.9258,0.8694,0.8351,0.7893,0.7498,0.6745,0.6129,0.5928,0.5742,0.5627,0.5535,0.5508,0.5508,0.5412,0.5399,0.5395,0.5395,0.5395,0.5395,0.5395,0.5395,0.5395,0.5395,0.5395,0.5395,0.5395,0.5395,0.5395,0.5395,0.5402,0.5515,0.5684,0.5785,0.5778,0.5726,0.5698,0.5667,0.5595,0.5243,0.4693,0.4027,0.3288,0.2429,0.1529,0.0982,0.0,0.0,0.0,0.0,0.0,0.0,0.0,0.0,0.0,-0.0311,-0.0799,-0.1354,-0.2405,-0.3201,-0.3902,-0.4644,-0.4836,-0.5045,-0.5121,-0.5277,-0.5349,-0.5393,-0.5395,-0.5395,-0.5395,-0.5428,-0.5428,-0.5462,-0.5428,-0.5395,-0.5428,-0.5491,-0.5462,-0.5462,-0.5785,-0.6112,-0.6666,-0.7479,-0.8199,-0.9011,-0.9434,-0.9754,-1.0104,1.4088,1.4075,1.3975,1.3935,1.3948,1.4041,1.3988,1.3734,1.326,1.2872,1.263,1.2378,1.2305,1.2305,1.2305,1.2305,1.2305,1.2305,1.2268,1.2305,1.2268,1.2194,1.212,1.1966,1.1403,1.1056,1.0683,1.0201,0.9679,0.9296,0.8694,0.7905,0.7064,0.67,0.638,0.6094,0.5745,0.5657,0.5613,0.5538,0.5491,0.544,0.5395,0.5395,0.5395,0.5395,0.5395,0.5395,0.5395,0.5395,0.5395,0.5395,0.5395,0.5395,0.5395,0.5395,0.5528,0.5634,0.5779,0.6013,0.606,0.6094,0.6255,0.6293,0.6219,0.5828,0.5398,0.481,0.4187,0.3249,0.2272,0.1647,0.0,0.0,0.0,0.0,0.0,0.0,0.0,0.0,0.0,0.0,-0.0384,-0.0839,-0.1541,-0.2172,-0.28,-0.355,-0.4273,-0.4547,-0.4789,-0.5026,-0.5256,-0.5379,-0.5405,-0.5395,-0.5395,-0.5395,-0.5405,-0.5416,-0.5395,-0.5395,-0.5395,-0.5395,-0.5428,-0.5462,-0.5557,-0.5885,-0.621,-0.6507,-0.6933,-0.7777,-0.8716,-0.9204,-0.9556,1.4088,1.4041,1.374,1.3633,1.366,1.3874,1.3674,1.3193,1.2938,1.2636,1.2311,1.2325,1.2305,1.2305,1.2305,1.2305,1.2305,1.2305,1.2305,1.2305,1.2305,1.2305,1.2231,1.2077,1.1811,1.1521,1.126,1.1031,1.055,1.0056,0.9377,0.8627,0.7982,0.7546,0.7149,0.6615,0.6158,0.5943,0.5735,0.5647,0.5586,0.5487,0.5433,0.5409,0.5395,0.5395,0.5395,0.5395,0.5395,0.5395,0.5395,0.5395,0.5395,0.5395,0.5395,0.5463,0.562,0.5742,0.5833,0.6102,0.6242,0.6252,0.6279,0.6296,0.6219,0.6064,0.5789,0.5359,0.4813,0.3951,0.3091,0.235,0.0,0.0,0.0,0.0,0.0,0.0,0.0,0.0,0.0,0.0,0.0,-0.062,0.0,-0.1153,-0.1683,-0.2124,-0.2911,-0.3846,-0.4151,-0.4689,-0.4951,-0.5336,-0.5373,-0.544,-0.546,-0.5481,-0.5457,-0.5457,-0.5429,-0.5395,-0.5395,-0.5395,-0.5395,-0.5425,-0.5491,-0.5491,-0.5524,-0.5822,-0.6214,-0.683,-0.7837,-0.8328,-0.8716,1.4088,1.4075,1.4001,1.3841,1.3567,1.332,1.3065,1.2911,1.2804,1.2616,1.2305,1.2305,1.2305,1.2305,1.2305,1.2305,1.2305,1.2305,1.2305,1.2305,1.2305,1.2305,1.2268,1.2231,1.2114,1.204,1.1929,1.1774,1.1552,1.0987,1.0314,0.9669,0.8998,0.8618,0.8121,0.7555,0.6909,0.6294,0.604,0.5779,0.5647,0.5545,0.5501,0.544,0.5399,0.5399,0.5395,0.5395,0.5395,0.5395,0.5395,0.5395,0.5395,0.5395,0.5399,0.5426,0.5606,0.5806,0.5854,0.6088,0.63,0.63,0.63,0.63,0.6257,0.6219,0.6064,0.575,0.5398,0.4654,0.399,0.3288,0.2429,0.1647,0.1059,0.0,0.0,0.0,0.0,0.0,0.0,0.0,0.0,0.0,0.0,0.0,-0.0625,-0.1046,-0.1641,-0.2634,-0.3469,-0.3989,-0.4631,-0.4996,-0.539,-0.5502,-0.5528,-0.5532,-0.5504,-0.5464,-0.5446,-0.5416,-0.5402,-0.5395,-0.5395,-0.5395,-0.5428,-0.5395,-0.5395,-0.5458,-0.5785,-0.6305,-0.6859,-0.7419,-0.7874,1.4088,1.4068,1.3955,1.3674,1.326,1.2938,1.273,1.263,1.261,1.2458,1.2318,1.2305,1.2305,1.2305,1.2305,1.2305,1.2305,1.2305,1.2305,1.2305,1.2305,1.2305,1.2305,1.2305,1.2268,1.2305,1.2305,1.2194,1.2077,1.1545,1.0832,1.0501,1.0019,0.9599,0.9092,0.8505,0.782,0.7051,0.644,0.5995,0.58,0.5654,0.5532,0.5501,0.545,0.5412,0.5405,0.5409,0.5402,0.5395,0.5395,0.5395,0.5395,0.5395,0.5395,0.5446,0.5665,0.5769,0.585,0.6088,0.6252,0.63,0.63,0.63,0.63,0.6257,0.6219,0.6103,0.5828,0.5437,0.4849,0.4224,0.3209,0.2194,0.1608,0.1021,0.0,0.0,0.0,0.0,0.0,0.0,0.0,0.0,0.0,0.0,0.0,-0.0431,-0.0927,-0.1668,-0.2546,-0.3237,-0.4039,-0.4688,-0.5041,-0.5422,-0.554,-0.5557,-0.5579,-0.5528,-0.5454,-0.5426,-0.5402,-0.5395,-0.5395,-0.5395,-0.5395,-0.5395,-0.5395,-0.5458,-0.5458,-0.5818,-0.6243,-0.6638,-0.7092,1.4208,1.4181,1.3741,1.332,1.2857,1.2777,1.2589,1.2318,1.2331,1.2311,1.2305,1.2305,1.2305,1.2305,1.2305,1.2305,1.2305,1.2305,1.2305,1.2305,1.2305,1.2305,1.2305,1.2305,1.2305,1.2305,1.2305,1.2305,1.2157,1.1781,1.1403,1.1186,1.0887,1.0507,1.0132,0.9561,0.8883,0.8132,0.7062,0.6288,0.6022,0.5789,0.5616,0.562,0.5542,0.5457,0.5453,0.5443,0.5429,0.5433,0.5443,0.546,0.5436,0.5399,0.5399,0.5501,0.5702,0.5789,0.5905,0.6153,0.6255,0.63,0.63,0.63,0.63,0.63,0.63,0.6257,0.6022,0.5867,0.5398,0.489,0.407,0.321,0.2546,0.1764,0.102,0.0549,0.0,0.0,0.0,0.0,0.0,0.0,0.0,0.0,0.0,0.0,0.0,0.0,-0.1645,-0.2508,-0.3366,-0.4152,-0.467,-0.5064,-0.5428,-0.5551,-0.5505,-0.5534,-0.5429,-0.5417,-0.5395,-0.5395,-0.5395,-0.5395,-0.5395,-0.5395,-0.5395,-0.5428,-0.5428,-0.5395,-0.569,-0.6053,-0.6247,1.4992,1.4782,1.3871,1.3365,1.3039,1.2599,1.2378,1.2305,1.2305,1.2305,1.2305,1.2305,1.2305,1.2305,1.2305,1.2305,1.2305,1.2305,1.2305,1.2305,1.2305,1.2305,1.2305,1.2305,1.2305,1.2305,1.2305,1.2305,1.2231,1.212,1.204,1.1972,1.1744,1.1484,1.1111,1.0539,0.989,0.913,0.8027,0.6945,0.6433,0.6094,0.5845,0.5789,0.5684,0.5661,0.5664,0.5674,0.5688,0.5698,0.5698,0.5644,0.5583,0.5467,0.547,0.5576,0.5705,0.5844,0.5976,0.6166,0.6272,0.63,0.63,0.63,0.63,0.63,0.6296,0.6257,0.6219,0.6103,0.5948,0.5479,0.4971,0.4226,0.3444,0.2466,0.1489,0.0824,0.0196,0.0,0.0,0.0,0.0,0.0,0.0,0.0,0.0,0.0,0.0,0.0,0.0,-0.1813,-0.2769,-0.3554,-0.4068,-0.45,-0.4769,-0.5092,-0.5129,-0.5222,-0.5357,-0.5406,-0.5395,-0.5395,-0.5395,-0.5395,-0.5395,-0.5395,-0.5395,-0.5395,-0.5395,-0.5395,-0.5405,-0.5708,-0.5701,1.6083,1.5666,1.4491,1.3615,1.3044,1.267,1.2432,1.2318,1.2305,1.2305,1.2305,1.2305,1.2305,1.2305,1.2305,1.2305,1.2305,1.2305,1.2305,1.2305,1.2305,1.2305,1.2305,1.2305,1.2305,1.2305,1.2305,1.2305,1.2305,1.2268,1.2268,1.2305,1.2268,1.215,1.1781,1.1285,1.072,0.9976,0.8879,0.8014,0.711,0.6578,0.604,0.5872,0.585,0.583,0.58,0.58,0.58,0.58,0.5783,0.5705,0.5627,0.5586,0.5607,0.564,0.5769,0.5905,0.6051,0.6156,0.6293,0.63,0.63,0.63,0.63,0.63,0.63,0.6257,0.6257,0.618,0.6103,0.575,0.5398,0.481,0.4107,0.3249,0.2194,0.1256,0.0785,0.0,0.0,0.0,0.0,0.0,0.0,0.0,0.0,0.0,0.0,0.0,0.0,-0.1055,-0.1958,-0.2605,-0.3004,-0.3518,-0.3964,-0.4308,-0.4641,-0.4968,-0.5152,-0.5302,-0.5395,-0.5309,-0.5309,-0.5395,-0.5395,-0.5369,-0.5395,-0.5395,-0.5395,-0.5395,-0.5412,-0.545,-0.5551,1.7147,1.6506,1.5204,1.3952,1.2932,1.2806,1.2569,1.2331,1.2305,1.2305,1.2305,1.2305,1.2305,1.2305,1.2305,1.2305,1.2305,1.2305,1.2305,1.2305,1.2305,1.2305,1.2305,1.2305,1.2305,1.2305,1.2305,1.2305,1.2305,1.2305,1.2305,1.2305,1.2268,1.2187,1.1959,1.1663,1.1217,1.0619,0.983,0.915,0.8161,0.7074,0.6494,0.6196,0.6012,0.5937,0.5933,0.5864,0.5867,0.5861,0.5874,0.58,0.5742,0.5728,0.5722,0.5766,0.5841,0.5969,0.6098,0.619,0.6279,0.63,0.63,0.63,0.63,0.63,0.63,0.63,0.63,0.6257,0.618,0.6099,0.5747,0.5398,0.4693,0.4031,0.2937,0.1921,0.153,0.1178,0.0903,0.0746,0.0432,0.0236,0.0,0.0,0.0,0.0,0.0,0.0,0.0,-0.0509,-0.0968,-0.1514,-0.2035,-0.2525,-0.3067,-0.3495,-0.3889,-0.4488,-0.4925,-0.4928,-0.5003,-0.5138,-0.5169,-0.5152,-0.5282,-0.5292,-0.5316,-0.5393,-0.5395,-0.5409,-0.5487,-0.5532,-0.5603,1.7706,1.6452,1.5427,1.4328,1.3258,1.2791,1.2499,1.2311,1.2305,1.2305,1.2305,1.2305,1.2305,1.2305,1.2305,1.2305,1.2305,1.2305,1.2305,1.2305,1.2305,1.2305,1.2305,1.2305,1.2305,1.2305,1.2305,1.2305,1.2305,1.2305,1.2305,1.2305,1.2305,1.2268,1.2231,1.2003,1.1781,1.1217,1.0763,1.0115,0.9448,0.8415,0.7333,0.6996,0.679,0.6619,0.6471,0.6287,0.6211,0.6139,0.6051,0.5936,0.5878,0.5871,0.5867,0.5895,0.5969,0.6091,0.6176,0.6262,0.63,0.63,0.63,0.63,0.63,0.63,0.63,0.63,0.63,0.63,0.6257,0.6257,0.5986,0.5712,0.5201,0.4577,0.3717,0.309,0.2581,0.2154,0.1724,0.1372,0.0903,0.0589,0.0,0.0,0.0,0.0,0.0,0.0,-0.0039,0.0,0.0,-0.0704,-0.1335,-0.1685,-0.2172,-0.2614,-0.312,-0.3639,-0.4086,-0.4414,-0.4506,-0.4428,-0.4631,-0.4714,-0.4882,-0.5051,-0.5335,-0.541,-0.5396,-0.5426,-0.5521,-0.5596,-0.5681]}]]